<?xml version="1.0" encoding="UTF-8" standalone="no" ?>
<gpx xmlns="http://www.topografix.com/GPX/1/1" xmlns:xsi="http://www.w3.org/2001/XMLSchema-instance" xsi:schemaLocation="http://www.topografix.com/GPX/1/1 http://www.topografix.com/GPX/1/1/gpx.xsd" version="1.1" creator="VisuGPX - https://www.visugpx.com">
  <metadata>
    <name>GTA30-St Dalmas Valdeblore / Berthemont</name>
  </metadata>
  <trk>
    <name><![CDATA[GTA30-St Dalmas Valdeblore / Berthemont]]></name>
    <trkseg>
      <trkpt lat="44.06561" lon="7.2038">
        <ele>1301.76</ele>
        <time>2017-07-28T05:59:01Z</time>
      </trkpt>
      <trkpt lat="44.06563" lon="7.20382">
        <ele>1302.24</ele>
        <time>2017-07-28T05:59:20Z</time>
      </trkpt>
      <trkpt lat="44.0657" lon="7.20385">
        <ele>1302.24</ele>
        <time>2017-07-28T05:59:35Z</time>
      </trkpt>
      <trkpt lat="44.06572" lon="7.20398">
        <ele>1301.28</ele>
        <time>2017-07-28T05:59:43Z</time>
      </trkpt>
      <trkpt lat="44.06581" lon="7.20401">
        <ele>1301.28</ele>
        <time>2017-07-28T05:59:57Z</time>
      </trkpt>
      <trkpt lat="44.06588" lon="7.20399">
        <ele>1301.28</ele>
        <time>2017-07-28T06:00:12Z</time>
      </trkpt>
      <trkpt lat="44.06588" lon="7.20398">
        <ele>1301.28</ele>
        <time>2017-07-28T06:00:24Z</time>
      </trkpt>
      <trkpt lat="44.0659" lon="7.20402">
        <ele>1301.28</ele>
        <time>2017-07-28T06:00:43Z</time>
      </trkpt>
      <trkpt lat="44.06599" lon="7.20409">
        <ele>1301.28</ele>
        <time>2017-07-28T06:00:58Z</time>
      </trkpt>
      <trkpt lat="44.06597" lon="7.2041">
        <ele>1301.28</ele>
        <time>2017-07-28T06:01:26Z</time>
      </trkpt>
      <trkpt lat="44.066" lon="7.20414">
        <ele>1300.8</ele>
        <time>2017-07-28T06:01:43Z</time>
      </trkpt>
      <trkpt lat="44.06614" lon="7.2042">
        <ele>1301.28</ele>
        <time>2017-07-28T06:02:00Z</time>
      </trkpt>
      <trkpt lat="44.06616" lon="7.20418">
        <ele>1299.84</ele>
        <time>2017-07-28T06:02:03Z</time>
      </trkpt>
      <trkpt lat="44.06621" lon="7.20411">
        <ele>1298.88</ele>
        <time>2017-07-28T06:02:12Z</time>
      </trkpt>
      <trkpt lat="44.06627" lon="7.20395">
        <ele>1297.44</ele>
        <time>2017-07-28T06:02:27Z</time>
      </trkpt>
      <trkpt lat="44.06635" lon="7.20383">
        <ele>1296.48</ele>
        <time>2017-07-28T06:02:40Z</time>
      </trkpt>
      <trkpt lat="44.06647" lon="7.20381">
        <ele>1295.99</ele>
        <time>2017-07-28T06:02:55Z</time>
      </trkpt>
      <trkpt lat="44.06649" lon="7.20384">
        <ele>1295.99</ele>
        <time>2017-07-28T06:02:59Z</time>
      </trkpt>
      <trkpt lat="44.06655" lon="7.20393">
        <ele>1295.99</ele>
        <time>2017-07-28T06:03:12Z</time>
      </trkpt>
      <trkpt lat="44.06658" lon="7.20403">
        <ele>1295.99</ele>
        <time>2017-07-28T06:03:21Z</time>
      </trkpt>
      <trkpt lat="44.0666" lon="7.20408">
        <ele>1295.99</ele>
        <time>2017-07-28T06:03:35Z</time>
      </trkpt>
      <trkpt lat="44.06658" lon="7.20411">
        <ele>1295.99</ele>
        <time>2017-07-28T06:03:49Z</time>
      </trkpt>
      <trkpt lat="44.06663" lon="7.2042">
        <ele>1295.99</ele>
        <time>2017-07-28T06:04:05Z</time>
      </trkpt>
      <trkpt lat="44.06665" lon="7.20423">
        <ele>1295.99</ele>
        <time>2017-07-28T06:04:12Z</time>
      </trkpt>
      <trkpt lat="44.06669" lon="7.2042">
        <ele>1297.44</ele>
        <time>2017-07-28T06:04:18Z</time>
      </trkpt>
      <trkpt lat="44.06679" lon="7.2042">
        <ele>1299.36</ele>
        <time>2017-07-28T06:04:32Z</time>
      </trkpt>
      <trkpt lat="44.06682" lon="7.20415">
        <ele>1300.8</ele>
        <time>2017-07-28T06:04:44Z</time>
      </trkpt>
      <trkpt lat="44.06679" lon="7.20413">
        <ele>1300.8</ele>
        <time>2017-07-28T06:04:47Z</time>
      </trkpt>
      <trkpt lat="44.06667" lon="7.20405">
        <ele>1298.88</ele>
        <time>2017-07-28T06:05:09Z</time>
      </trkpt>
      <trkpt lat="44.06668" lon="7.20404">
        <ele>1298.88</ele>
        <time>2017-07-28T06:05:26Z</time>
      </trkpt>
      <trkpt lat="44.06673" lon="7.2041">
        <ele>1298.88</ele>
        <time>2017-07-28T06:05:45Z</time>
      </trkpt>
      <trkpt lat="44.06675" lon="7.20412">
        <ele>1298.88</ele>
        <time>2017-07-28T06:05:47Z</time>
      </trkpt>
      <trkpt lat="44.06682" lon="7.20421">
        <ele>1300.32</ele>
        <time>2017-07-28T06:06:01Z</time>
      </trkpt>
      <trkpt lat="44.06674" lon="7.20421">
        <ele>1297.44</ele>
        <time>2017-07-28T06:06:11Z</time>
      </trkpt>
      <trkpt lat="44.06666" lon="7.20429">
        <ele>1295.03</ele>
        <time>2017-07-28T06:06:22Z</time>
      </trkpt>
      <trkpt lat="44.06669" lon="7.20458">
        <ele>1295.51</ele>
        <time>2017-07-28T06:06:41Z</time>
      </trkpt>
      <trkpt lat="44.06669" lon="7.20459">
        <ele>1295.51</ele>
        <time>2017-07-28T06:06:42Z</time>
      </trkpt>
      <trkpt lat="44.06669" lon="7.20463">
        <ele>1295.99</ele>
        <time>2017-07-28T06:06:45Z</time>
      </trkpt>
      <trkpt lat="44.0668" lon="7.20489">
        <ele>1295.99</ele>
        <time>2017-07-28T06:07:02Z</time>
      </trkpt>
      <trkpt lat="44.06684" lon="7.20493">
        <ele>1296.48</ele>
        <time>2017-07-28T06:07:06Z</time>
      </trkpt>
      <trkpt lat="44.06696" lon="7.20512">
        <ele>1296.96</ele>
        <time>2017-07-28T06:07:21Z</time>
      </trkpt>
      <trkpt lat="44.06712" lon="7.20526">
        <ele>1297.92</ele>
        <time>2017-07-28T06:07:38Z</time>
      </trkpt>
      <trkpt lat="44.0672" lon="7.20535">
        <ele>1298.88</ele>
        <time>2017-07-28T06:07:49Z</time>
      </trkpt>
      <trkpt lat="44.06732" lon="7.20551">
        <ele>1298.4</ele>
        <time>2017-07-28T06:08:05Z</time>
      </trkpt>
      <trkpt lat="44.0675" lon="7.20572">
        <ele>1298.88</ele>
        <time>2017-07-28T06:08:26Z</time>
      </trkpt>
      <trkpt lat="44.06752" lon="7.20575">
        <ele>1298.88</ele>
        <time>2017-07-28T06:08:28Z</time>
      </trkpt>
      <trkpt lat="44.06755" lon="7.20582">
        <ele>1299.36</ele>
        <time>2017-07-28T06:08:34Z</time>
      </trkpt>
      <trkpt lat="44.06773" lon="7.20602">
        <ele>1299.36</ele>
        <time>2017-07-28T06:08:53Z</time>
      </trkpt>
      <trkpt lat="44.06776" lon="7.20603">
        <ele>1299.36</ele>
        <time>2017-07-28T06:08:55Z</time>
      </trkpt>
      <trkpt lat="44.06795" lon="7.20627">
        <ele>1299.84</ele>
        <time>2017-07-28T06:09:17Z</time>
      </trkpt>
      <trkpt lat="44.0681" lon="7.20652">
        <ele>1301.28</ele>
        <time>2017-07-28T06:09:38Z</time>
      </trkpt>
      <trkpt lat="44.06822" lon="7.20667">
        <ele>1301.28</ele>
        <time>2017-07-28T06:09:53Z</time>
      </trkpt>
      <trkpt lat="44.06822" lon="7.20669">
        <ele>1301.76</ele>
        <time>2017-07-28T06:09:54Z</time>
      </trkpt>
      <trkpt lat="44.06834" lon="7.20689">
        <ele>1302.72</ele>
        <time>2017-07-28T06:10:11Z</time>
      </trkpt>
      <trkpt lat="44.0685" lon="7.2071">
        <ele>1302.72</ele>
        <time>2017-07-28T06:10:30Z</time>
      </trkpt>
      <trkpt lat="44.06859" lon="7.20726">
        <ele>1303.2</ele>
        <time>2017-07-28T06:10:48Z</time>
      </trkpt>
      <trkpt lat="44.0687" lon="7.20742">
        <ele>1303.2</ele>
        <time>2017-07-28T06:11:04Z</time>
      </trkpt>
      <trkpt lat="44.0688" lon="7.20758">
        <ele>1304.17</ele>
        <time>2017-07-28T06:11:22Z</time>
      </trkpt>
      <trkpt lat="44.06886" lon="7.20767">
        <ele>1304.17</ele>
        <time>2017-07-28T06:11:48Z</time>
      </trkpt>
      <trkpt lat="44.06903" lon="7.20783">
        <ele>1304.17</ele>
        <time>2017-07-28T06:12:08Z</time>
      </trkpt>
      <trkpt lat="44.0692" lon="7.20801">
        <ele>1304.65</ele>
        <time>2017-07-28T06:12:29Z</time>
      </trkpt>
      <trkpt lat="44.06931" lon="7.20813">
        <ele>1306.09</ele>
        <time>2017-07-28T06:12:44Z</time>
      </trkpt>
      <trkpt lat="44.06944" lon="7.20823">
        <ele>1307.53</ele>
        <time>2017-07-28T06:12:59Z</time>
      </trkpt>
      <trkpt lat="44.06956" lon="7.20835">
        <ele>1308.97</ele>
        <time>2017-07-28T06:13:15Z</time>
      </trkpt>
      <trkpt lat="44.06961" lon="7.20839">
        <ele>1309.45</ele>
        <time>2017-07-28T06:13:30Z</time>
      </trkpt>
      <trkpt lat="44.06964" lon="7.20848">
        <ele>1309.45</ele>
        <time>2017-07-28T06:13:43Z</time>
      </trkpt>
      <trkpt lat="44.06966" lon="7.20859">
        <ele>1309.45</ele>
        <time>2017-07-28T06:13:57Z</time>
      </trkpt>
      <trkpt lat="44.06976" lon="7.20883">
        <ele>1309.45</ele>
        <time>2017-07-28T06:14:16Z</time>
      </trkpt>
      <trkpt lat="44.06977" lon="7.20899">
        <ele>1310.9</ele>
        <time>2017-07-28T06:14:27Z</time>
      </trkpt>
      <trkpt lat="44.06983" lon="7.20922">
        <ele>1310.9</ele>
        <time>2017-07-28T06:14:44Z</time>
      </trkpt>
      <trkpt lat="44.06984" lon="7.20945">
        <ele>1310.9</ele>
        <time>2017-07-28T06:15:01Z</time>
      </trkpt>
      <trkpt lat="44.06985" lon="7.20968">
        <ele>1310.9</ele>
        <time>2017-07-28T06:15:17Z</time>
      </trkpt>
      <trkpt lat="44.06985" lon="7.20975">
        <ele>1310.9</ele>
        <time>2017-07-28T06:15:32Z</time>
      </trkpt>
      <trkpt lat="44.06986" lon="7.20994">
        <ele>1310.9</ele>
        <time>2017-07-28T06:15:47Z</time>
      </trkpt>
      <trkpt lat="44.06987" lon="7.21001">
        <ele>1311.38</ele>
        <time>2017-07-28T06:15:52Z</time>
      </trkpt>
      <trkpt lat="44.06998" lon="7.21029">
        <ele>1311.86</ele>
        <time>2017-07-28T06:16:10Z</time>
      </trkpt>
      <trkpt lat="44.07002" lon="7.21056">
        <ele>1312.82</ele>
        <time>2017-07-28T06:16:29Z</time>
      </trkpt>
      <trkpt lat="44.06998" lon="7.21082">
        <ele>1313.3</ele>
        <time>2017-07-28T06:16:47Z</time>
      </trkpt>
      <trkpt lat="44.06991" lon="7.21107">
        <ele>1314.26</ele>
        <time>2017-07-28T06:17:05Z</time>
      </trkpt>
      <trkpt lat="44.06989" lon="7.21125">
        <ele>1315.7</ele>
        <time>2017-07-28T06:17:21Z</time>
      </trkpt>
      <trkpt lat="44.06989" lon="7.21133">
        <ele>1316.18</ele>
        <time>2017-07-28T06:17:37Z</time>
      </trkpt>
      <trkpt lat="44.06988" lon="7.2115">
        <ele>1318.1</ele>
        <time>2017-07-28T06:17:53Z</time>
      </trkpt>
      <trkpt lat="44.06984" lon="7.21168">
        <ele>1319.55</ele>
        <time>2017-07-28T06:18:06Z</time>
      </trkpt>
      <trkpt lat="44.06982" lon="7.21185">
        <ele>1320.03</ele>
        <time>2017-07-28T06:18:21Z</time>
      </trkpt>
      <trkpt lat="44.0698" lon="7.21201">
        <ele>1321.47</ele>
        <time>2017-07-28T06:18:35Z</time>
      </trkpt>
      <trkpt lat="44.06979" lon="7.21213">
        <ele>1322.91</ele>
        <time>2017-07-28T06:18:47Z</time>
      </trkpt>
      <trkpt lat="44.06978" lon="7.21227">
        <ele>1323.87</ele>
        <time>2017-07-28T06:19:01Z</time>
      </trkpt>
      <trkpt lat="44.06976" lon="7.21243">
        <ele>1324.35</ele>
        <time>2017-07-28T06:19:14Z</time>
      </trkpt>
      <trkpt lat="44.06972" lon="7.21261">
        <ele>1325.8</ele>
        <time>2017-07-28T06:19:30Z</time>
      </trkpt>
      <trkpt lat="44.06971" lon="7.21276">
        <ele>1327.72</ele>
        <time>2017-07-28T06:19:45Z</time>
      </trkpt>
      <trkpt lat="44.06968" lon="7.21294">
        <ele>1329.16</ele>
        <time>2017-07-28T06:20:00Z</time>
      </trkpt>
      <trkpt lat="44.06968" lon="7.21309">
        <ele>1330.6</ele>
        <time>2017-07-28T06:20:14Z</time>
      </trkpt>
      <trkpt lat="44.0697" lon="7.21323">
        <ele>1331.56</ele>
        <time>2017-07-28T06:20:29Z</time>
      </trkpt>
      <trkpt lat="44.06972" lon="7.2134">
        <ele>1333.01</ele>
        <time>2017-07-28T06:20:44Z</time>
      </trkpt>
      <trkpt lat="44.06974" lon="7.21354">
        <ele>1334.93</ele>
        <time>2017-07-28T06:20:59Z</time>
      </trkpt>
      <trkpt lat="44.06975" lon="7.21367">
        <ele>1335.89</ele>
        <time>2017-07-28T06:21:12Z</time>
      </trkpt>
      <trkpt lat="44.06974" lon="7.21381">
        <ele>1337.33</ele>
        <time>2017-07-28T06:21:24Z</time>
      </trkpt>
      <trkpt lat="44.06974" lon="7.21386">
        <ele>1338.29</ele>
        <time>2017-07-28T06:21:42Z</time>
      </trkpt>
      <trkpt lat="44.06974" lon="7.21402">
        <ele>1339.25</ele>
        <time>2017-07-28T06:21:59Z</time>
      </trkpt>
      <trkpt lat="44.06979" lon="7.21414">
        <ele>1341.18</ele>
        <time>2017-07-28T06:22:13Z</time>
      </trkpt>
      <trkpt lat="44.06992" lon="7.21422">
        <ele>1342.62</ele>
        <time>2017-07-28T06:22:28Z</time>
      </trkpt>
      <trkpt lat="44.07001" lon="7.21429">
        <ele>1344.54</ele>
        <time>2017-07-28T06:22:42Z</time>
      </trkpt>
      <trkpt lat="44.07009" lon="7.21436">
        <ele>1345.98</ele>
        <time>2017-07-28T06:22:56Z</time>
      </trkpt>
      <trkpt lat="44.07018" lon="7.21445">
        <ele>1347.91</ele>
        <time>2017-07-28T06:23:13Z</time>
      </trkpt>
      <trkpt lat="44.07027" lon="7.21452">
        <ele>1349.83</ele>
        <time>2017-07-28T06:23:28Z</time>
      </trkpt>
      <trkpt lat="44.07038" lon="7.2146">
        <ele>1351.75</ele>
        <time>2017-07-28T06:23:46Z</time>
      </trkpt>
      <trkpt lat="44.07043" lon="7.21467">
        <ele>1353.19</ele>
        <time>2017-07-28T06:23:58Z</time>
      </trkpt>
      <trkpt lat="44.07046" lon="7.21474">
        <ele>1354.15</ele>
        <time>2017-07-28T06:24:07Z</time>
      </trkpt>
      <trkpt lat="44.07054" lon="7.21484">
        <ele>1355.6</ele>
        <time>2017-07-28T06:24:20Z</time>
      </trkpt>
      <trkpt lat="44.07059" lon="7.21496">
        <ele>1356.56</ele>
        <time>2017-07-28T06:24:35Z</time>
      </trkpt>
      <trkpt lat="44.07068" lon="7.21508">
        <ele>1358</ele>
        <time>2017-07-28T06:24:48Z</time>
      </trkpt>
      <trkpt lat="44.07079" lon="7.21515">
        <ele>1358.96</ele>
        <time>2017-07-28T06:25:03Z</time>
      </trkpt>
      <trkpt lat="44.07085" lon="7.21526">
        <ele>1360.88</ele>
        <time>2017-07-28T06:25:18Z</time>
      </trkpt>
      <trkpt lat="44.07092" lon="7.21536">
        <ele>1362.81</ele>
        <time>2017-07-28T06:25:33Z</time>
      </trkpt>
      <trkpt lat="44.071" lon="7.21543">
        <ele>1364.73</ele>
        <time>2017-07-28T06:25:48Z</time>
      </trkpt>
      <trkpt lat="44.07106" lon="7.21547">
        <ele>1366.17</ele>
        <time>2017-07-28T06:26:02Z</time>
      </trkpt>
      <trkpt lat="44.07112" lon="7.21554">
        <ele>1368.09</ele>
        <time>2017-07-28T06:26:17Z</time>
      </trkpt>
      <trkpt lat="44.07121" lon="7.21564">
        <ele>1370.02</ele>
        <time>2017-07-28T06:26:35Z</time>
      </trkpt>
      <trkpt lat="44.07129" lon="7.21575">
        <ele>1371.46</ele>
        <time>2017-07-28T06:26:50Z</time>
      </trkpt>
      <trkpt lat="44.07136" lon="7.21581">
        <ele>1372.9</ele>
        <time>2017-07-28T06:27:05Z</time>
      </trkpt>
      <trkpt lat="44.07145" lon="7.21588">
        <ele>1374.82</ele>
        <time>2017-07-28T06:27:19Z</time>
      </trkpt>
      <trkpt lat="44.07154" lon="7.21595">
        <ele>1376.75</ele>
        <time>2017-07-28T06:27:35Z</time>
      </trkpt>
      <trkpt lat="44.07161" lon="7.21601">
        <ele>1378.19</ele>
        <time>2017-07-28T06:27:49Z</time>
      </trkpt>
      <trkpt lat="44.07166" lon="7.21608">
        <ele>1379.63</ele>
        <time>2017-07-28T06:28:03Z</time>
      </trkpt>
      <trkpt lat="44.07171" lon="7.2162">
        <ele>1381.55</ele>
        <time>2017-07-28T06:28:19Z</time>
      </trkpt>
      <trkpt lat="44.07176" lon="7.21634">
        <ele>1383.47</ele>
        <time>2017-07-28T06:28:35Z</time>
      </trkpt>
      <trkpt lat="44.07176" lon="7.21646">
        <ele>1385.4</ele>
        <time>2017-07-28T06:28:50Z</time>
      </trkpt>
      <trkpt lat="44.07173" lon="7.21661">
        <ele>1386.84</ele>
        <time>2017-07-28T06:29:06Z</time>
      </trkpt>
      <trkpt lat="44.07174" lon="7.21675">
        <ele>1388.76</ele>
        <time>2017-07-28T06:29:20Z</time>
      </trkpt>
      <trkpt lat="44.07175" lon="7.21686">
        <ele>1390.2</ele>
        <time>2017-07-28T06:29:33Z</time>
      </trkpt>
      <trkpt lat="44.07174" lon="7.21698">
        <ele>1391.65</ele>
        <time>2017-07-28T06:29:48Z</time>
      </trkpt>
      <trkpt lat="44.07172" lon="7.21706">
        <ele>1393.09</ele>
        <time>2017-07-28T06:30:02Z</time>
      </trkpt>
      <trkpt lat="44.07167" lon="7.21717">
        <ele>1395.01</ele>
        <time>2017-07-28T06:30:17Z</time>
      </trkpt>
      <trkpt lat="44.07166" lon="7.21727">
        <ele>1397.41</ele>
        <time>2017-07-28T06:30:33Z</time>
      </trkpt>
      <trkpt lat="44.07168" lon="7.21736">
        <ele>1399.34</ele>
        <time>2017-07-28T06:30:48Z</time>
      </trkpt>
      <trkpt lat="44.07174" lon="7.2175">
        <ele>1401.74</ele>
        <time>2017-07-28T06:31:04Z</time>
      </trkpt>
      <trkpt lat="44.07177" lon="7.21764">
        <ele>1403.66</ele>
        <time>2017-07-28T06:31:18Z</time>
      </trkpt>
      <trkpt lat="44.0718" lon="7.21775">
        <ele>1405.58</ele>
        <time>2017-07-28T06:31:32Z</time>
      </trkpt>
      <trkpt lat="44.07179" lon="7.21778">
        <ele>1407.03</ele>
        <time>2017-07-28T06:31:45Z</time>
      </trkpt>
      <trkpt lat="44.07178" lon="7.21767">
        <ele>1407.03</ele>
        <time>2017-07-28T06:32:09Z</time>
      </trkpt>
      <trkpt lat="44.07173" lon="7.21768">
        <ele>1407.99</ele>
        <time>2017-07-28T06:32:33Z</time>
      </trkpt>
      <trkpt lat="44.0717" lon="7.2178">
        <ele>1409.91</ele>
        <time>2017-07-28T06:32:46Z</time>
      </trkpt>
      <trkpt lat="44.07173" lon="7.21799">
        <ele>1411.83</ele>
        <time>2017-07-28T06:33:01Z</time>
      </trkpt>
      <trkpt lat="44.07175" lon="7.21805">
        <ele>1414.24</ele>
        <time>2017-07-28T06:33:13Z</time>
      </trkpt>
      <trkpt lat="44.07177" lon="7.21813">
        <ele>1416.64</ele>
        <time>2017-07-28T06:33:27Z</time>
      </trkpt>
      <trkpt lat="44.07181" lon="7.21831">
        <ele>1419.04</ele>
        <time>2017-07-28T06:33:46Z</time>
      </trkpt>
      <trkpt lat="44.07182" lon="7.21839">
        <ele>1420.49</ele>
        <time>2017-07-28T06:34:02Z</time>
      </trkpt>
      <trkpt lat="44.07181" lon="7.21845">
        <ele>1422.41</ele>
        <time>2017-07-28T06:34:15Z</time>
      </trkpt>
      <trkpt lat="44.0718" lon="7.21855">
        <ele>1424.81</ele>
        <time>2017-07-28T06:34:31Z</time>
      </trkpt>
      <trkpt lat="44.07182" lon="7.21863">
        <ele>1427.7</ele>
        <time>2017-07-28T06:34:46Z</time>
      </trkpt>
      <trkpt lat="44.07183" lon="7.2187">
        <ele>1429.14</ele>
        <time>2017-07-28T06:35:00Z</time>
      </trkpt>
      <trkpt lat="44.07184" lon="7.21876">
        <ele>1431.06</ele>
        <time>2017-07-28T06:35:14Z</time>
      </trkpt>
      <trkpt lat="44.07184" lon="7.21886">
        <ele>1433.94</ele>
        <time>2017-07-28T06:35:33Z</time>
      </trkpt>
      <trkpt lat="44.07185" lon="7.21892">
        <ele>1435.39</ele>
        <time>2017-07-28T06:35:45Z</time>
      </trkpt>
      <trkpt lat="44.07184" lon="7.21901">
        <ele>1437.79</ele>
        <time>2017-07-28T06:36:00Z</time>
      </trkpt>
      <trkpt lat="44.07185" lon="7.21902">
        <ele>1439.23</ele>
        <time>2017-07-28T06:36:16Z</time>
      </trkpt>
      <trkpt lat="44.07185" lon="7.21896">
        <ele>1439.23</ele>
        <time>2017-07-28T06:36:39Z</time>
      </trkpt>
      <trkpt lat="44.07184" lon="7.21903">
        <ele>1440.67</ele>
        <time>2017-07-28T06:36:55Z</time>
      </trkpt>
      <trkpt lat="44.07183" lon="7.2191">
        <ele>1443.08</ele>
        <time>2017-07-28T06:37:11Z</time>
      </trkpt>
      <trkpt lat="44.07182" lon="7.21919">
        <ele>1445.48</ele>
        <time>2017-07-28T06:37:27Z</time>
      </trkpt>
      <trkpt lat="44.07185" lon="7.21927">
        <ele>1448.36</ele>
        <time>2017-07-28T06:37:42Z</time>
      </trkpt>
      <trkpt lat="44.07188" lon="7.21933">
        <ele>1450.29</ele>
        <time>2017-07-28T06:38:00Z</time>
      </trkpt>
      <trkpt lat="44.07188" lon="7.21929">
        <ele>1450.29</ele>
        <time>2017-07-28T06:38:20Z</time>
      </trkpt>
      <trkpt lat="44.07189" lon="7.21936">
        <ele>1452.21</ele>
        <time>2017-07-28T06:38:39Z</time>
      </trkpt>
      <trkpt lat="44.07192" lon="7.21946">
        <ele>1455.57</ele>
        <time>2017-07-28T06:38:57Z</time>
      </trkpt>
      <trkpt lat="44.07193" lon="7.2195">
        <ele>1457.5</ele>
        <time>2017-07-28T06:39:10Z</time>
      </trkpt>
      <trkpt lat="44.07191" lon="7.2196">
        <ele>1459.9</ele>
        <time>2017-07-28T06:39:26Z</time>
      </trkpt>
      <trkpt lat="44.0719" lon="7.21968">
        <ele>1462.3</ele>
        <time>2017-07-28T06:39:41Z</time>
      </trkpt>
      <trkpt lat="44.07193" lon="7.21977">
        <ele>1463.74</ele>
        <time>2017-07-28T06:39:56Z</time>
      </trkpt>
      <trkpt lat="44.07198" lon="7.2197">
        <ele>1466.63</ele>
        <time>2017-07-28T06:40:12Z</time>
      </trkpt>
      <trkpt lat="44.07205" lon="7.21965">
        <ele>1468.55</ele>
        <time>2017-07-28T06:40:28Z</time>
      </trkpt>
      <trkpt lat="44.07214" lon="7.21956">
        <ele>1469.03</ele>
        <time>2017-07-28T06:40:44Z</time>
      </trkpt>
      <trkpt lat="44.07217" lon="7.2196">
        <ele>1470.47</ele>
        <time>2017-07-28T06:40:58Z</time>
      </trkpt>
      <trkpt lat="44.07215" lon="7.21968">
        <ele>1471.44</ele>
        <time>2017-07-28T06:41:12Z</time>
      </trkpt>
      <trkpt lat="44.07212" lon="7.21976">
        <ele>1473.36</ele>
        <time>2017-07-28T06:41:26Z</time>
      </trkpt>
      <trkpt lat="44.07208" lon="7.21984">
        <ele>1474.8</ele>
        <time>2017-07-28T06:41:41Z</time>
      </trkpt>
      <trkpt lat="44.07204" lon="7.21997">
        <ele>1476.72</ele>
        <time>2017-07-28T06:41:58Z</time>
      </trkpt>
      <trkpt lat="44.072" lon="7.22007">
        <ele>1478.65</ele>
        <time>2017-07-28T06:42:13Z</time>
      </trkpt>
      <trkpt lat="44.07199" lon="7.22015">
        <ele>1481.53</ele>
        <time>2017-07-28T06:42:27Z</time>
      </trkpt>
      <trkpt lat="44.07198" lon="7.22023">
        <ele>1482.97</ele>
        <time>2017-07-28T06:42:39Z</time>
      </trkpt>
      <trkpt lat="44.07198" lon="7.22031">
        <ele>1483.93</ele>
        <time>2017-07-28T06:42:52Z</time>
      </trkpt>
      <trkpt lat="44.07196" lon="7.22031">
        <ele>1483.93</ele>
        <time>2017-07-28T06:43:07Z</time>
      </trkpt>
      <trkpt lat="44.07194" lon="7.22031">
        <ele>1484.41</ele>
        <time>2017-07-28T06:43:16Z</time>
      </trkpt>
      <trkpt lat="44.07194" lon="7.22031">
        <ele>1484.41</ele>
        <time>2017-07-28T06:43:31Z</time>
      </trkpt>
      <trkpt lat="44.07192" lon="7.22026">
        <ele>1484.89</ele>
        <time>2017-07-28T06:43:52Z</time>
      </trkpt>
      <trkpt lat="44.07193" lon="7.22026">
        <ele>1485.85</ele>
        <time>2017-07-28T06:44:19Z</time>
      </trkpt>
      <trkpt lat="44.07192" lon="7.22027">
        <ele>1485.85</ele>
        <time>2017-07-28T06:44:42Z</time>
      </trkpt>
      <trkpt lat="44.07191" lon="7.2203">
        <ele>1484.89</ele>
        <time>2017-07-28T06:45:01Z</time>
      </trkpt>
      <trkpt lat="44.07196" lon="7.22029">
        <ele>1485.37</ele>
        <time>2017-07-28T06:45:26Z</time>
      </trkpt>
      <trkpt lat="44.07198" lon="7.22032">
        <ele>1485.37</ele>
        <time>2017-07-28T06:46:00Z</time>
      </trkpt>
      <trkpt lat="44.07199" lon="7.22033">
        <ele>1485.85</ele>
        <time>2017-07-28T06:46:31Z</time>
      </trkpt>
      <trkpt lat="44.07199" lon="7.22035">
        <ele>1485.85</ele>
        <time>2017-07-28T06:46:33Z</time>
      </trkpt>
      <trkpt lat="44.07188" lon="7.22037">
        <ele>1487.3</ele>
        <time>2017-07-28T06:46:43Z</time>
      </trkpt>
      <trkpt lat="44.07172" lon="7.22043">
        <ele>1488.74</ele>
        <time>2017-07-28T06:47:00Z</time>
      </trkpt>
      <trkpt lat="44.07158" lon="7.22046">
        <ele>1490.18</ele>
        <time>2017-07-28T06:47:16Z</time>
      </trkpt>
      <trkpt lat="44.07152" lon="7.2205">
        <ele>1490.66</ele>
        <time>2017-07-28T06:47:25Z</time>
      </trkpt>
      <trkpt lat="44.0715" lon="7.22052">
        <ele>1491.14</ele>
        <time>2017-07-28T06:47:28Z</time>
      </trkpt>
      <trkpt lat="44.07139" lon="7.22054">
        <ele>1492.1</ele>
        <time>2017-07-28T06:47:42Z</time>
      </trkpt>
      <trkpt lat="44.07127" lon="7.2206">
        <ele>1493.55</ele>
        <time>2017-07-28T06:47:57Z</time>
      </trkpt>
      <trkpt lat="44.07118" lon="7.22063">
        <ele>1494.03</ele>
        <time>2017-07-28T06:48:11Z</time>
      </trkpt>
      <trkpt lat="44.07108" lon="7.22078">
        <ele>1495.47</ele>
        <time>2017-07-28T06:48:27Z</time>
      </trkpt>
      <trkpt lat="44.07101" lon="7.22096">
        <ele>1495.95</ele>
        <time>2017-07-28T06:48:43Z</time>
      </trkpt>
      <trkpt lat="44.07095" lon="7.22123">
        <ele>1496.43</ele>
        <time>2017-07-28T06:49:03Z</time>
      </trkpt>
      <trkpt lat="44.07094" lon="7.22143">
        <ele>1496.91</ele>
        <time>2017-07-28T06:49:17Z</time>
      </trkpt>
      <trkpt lat="44.07093" lon="7.22163">
        <ele>1496.91</ele>
        <time>2017-07-28T06:49:32Z</time>
      </trkpt>
      <trkpt lat="44.07091" lon="7.22181">
        <ele>1497.87</ele>
        <time>2017-07-28T06:49:48Z</time>
      </trkpt>
      <trkpt lat="44.0709" lon="7.22202">
        <ele>1497.39</ele>
        <time>2017-07-28T06:50:05Z</time>
      </trkpt>
      <trkpt lat="44.07092" lon="7.22221">
        <ele>1497.87</ele>
        <time>2017-07-28T06:50:18Z</time>
      </trkpt>
      <trkpt lat="44.07102" lon="7.22242">
        <ele>1497.87</ele>
        <time>2017-07-28T06:50:36Z</time>
      </trkpt>
      <trkpt lat="44.07103" lon="7.22246">
        <ele>1498.35</ele>
        <time>2017-07-28T06:50:39Z</time>
      </trkpt>
      <trkpt lat="44.07103" lon="7.22256">
        <ele>1497.39</ele>
        <time>2017-07-28T06:50:48Z</time>
      </trkpt>
      <trkpt lat="44.07101" lon="7.22282">
        <ele>1496.91</ele>
        <time>2017-07-28T06:51:07Z</time>
      </trkpt>
      <trkpt lat="44.07097" lon="7.22304">
        <ele>1495.95</ele>
        <time>2017-07-28T06:51:23Z</time>
      </trkpt>
      <trkpt lat="44.07094" lon="7.22328">
        <ele>1494.99</ele>
        <time>2017-07-28T06:51:40Z</time>
      </trkpt>
      <trkpt lat="44.0709" lon="7.22354">
        <ele>1493.55</ele>
        <time>2017-07-28T06:52:00Z</time>
      </trkpt>
      <trkpt lat="44.07086" lon="7.22373">
        <ele>1493.06</ele>
        <time>2017-07-28T06:52:16Z</time>
      </trkpt>
      <trkpt lat="44.07083" lon="7.22382">
        <ele>1492.58</ele>
        <time>2017-07-28T06:52:30Z</time>
      </trkpt>
      <trkpt lat="44.07085" lon="7.22382">
        <ele>1492.1</ele>
        <time>2017-07-28T06:52:47Z</time>
      </trkpt>
      <trkpt lat="44.07084" lon="7.22384">
        <ele>1493.06</ele>
        <time>2017-07-28T06:53:01Z</time>
      </trkpt>
      <trkpt lat="44.07084" lon="7.22388">
        <ele>1492.1</ele>
        <time>2017-07-28T06:53:21Z</time>
      </trkpt>
      <trkpt lat="44.07083" lon="7.22387">
        <ele>1492.58</ele>
        <time>2017-07-28T06:53:50Z</time>
      </trkpt>
      <trkpt lat="44.07082" lon="7.22386">
        <ele>1492.58</ele>
        <time>2017-07-28T06:54:13Z</time>
      </trkpt>
      <trkpt lat="44.07081" lon="7.22381">
        <ele>1492.58</ele>
        <time>2017-07-28T06:54:38Z</time>
      </trkpt>
      <trkpt lat="44.07081" lon="7.22381">
        <ele>1493.06</ele>
        <time>2017-07-28T06:54:59Z</time>
      </trkpt>
      <trkpt lat="44.07084" lon="7.22384">
        <ele>1493.06</ele>
        <time>2017-07-28T06:55:20Z</time>
      </trkpt>
      <trkpt lat="44.07082" lon="7.22383">
        <ele>1493.06</ele>
        <time>2017-07-28T06:55:38Z</time>
      </trkpt>
      <trkpt lat="44.07081" lon="7.22389">
        <ele>1495.47</ele>
        <time>2017-07-28T06:56:02Z</time>
      </trkpt>
      <trkpt lat="44.07084" lon="7.22391">
        <ele>1493.06</ele>
        <time>2017-07-28T06:56:18Z</time>
      </trkpt>
      <trkpt lat="44.07082" lon="7.22412">
        <ele>1492.58</ele>
        <time>2017-07-28T06:56:34Z</time>
      </trkpt>
      <trkpt lat="44.07079" lon="7.22417">
        <ele>1492.58</ele>
        <time>2017-07-28T06:56:39Z</time>
      </trkpt>
      <trkpt lat="44.07078" lon="7.22424">
        <ele>1492.58</ele>
        <time>2017-07-28T06:56:54Z</time>
      </trkpt>
      <trkpt lat="44.0708" lon="7.22445">
        <ele>1491.62</ele>
        <time>2017-07-28T06:57:09Z</time>
      </trkpt>
      <trkpt lat="44.07087" lon="7.22474">
        <ele>1490.18</ele>
        <time>2017-07-28T06:57:29Z</time>
      </trkpt>
      <trkpt lat="44.07089" lon="7.22504">
        <ele>1488.74</ele>
        <time>2017-07-28T06:57:48Z</time>
      </trkpt>
      <trkpt lat="44.07094" lon="7.2253">
        <ele>1488.26</ele>
        <time>2017-07-28T06:58:06Z</time>
      </trkpt>
      <trkpt lat="44.07098" lon="7.22555">
        <ele>1486.82</ele>
        <time>2017-07-28T06:58:23Z</time>
      </trkpt>
      <trkpt lat="44.07098" lon="7.22559">
        <ele>1487.3</ele>
        <time>2017-07-28T06:58:35Z</time>
      </trkpt>
      <trkpt lat="44.07101" lon="7.2257">
        <ele>1486.34</ele>
        <time>2017-07-28T06:58:49Z</time>
      </trkpt>
      <trkpt lat="44.07107" lon="7.2258">
        <ele>1485.85</ele>
        <time>2017-07-28T06:59:13Z</time>
      </trkpt>
      <trkpt lat="44.07115" lon="7.226">
        <ele>1483.93</ele>
        <time>2017-07-28T06:59:30Z</time>
      </trkpt>
      <trkpt lat="44.07123" lon="7.2262">
        <ele>1482.49</ele>
        <time>2017-07-28T06:59:47Z</time>
      </trkpt>
      <trkpt lat="44.07122" lon="7.22626">
        <ele>1482.01</ele>
        <time>2017-07-28T07:00:04Z</time>
      </trkpt>
      <trkpt lat="44.0712" lon="7.2263">
        <ele>1482.01</ele>
        <time>2017-07-28T07:00:33Z</time>
      </trkpt>
      <trkpt lat="44.07121" lon="7.22638">
        <ele>1480.09</ele>
        <time>2017-07-28T07:00:51Z</time>
      </trkpt>
      <trkpt lat="44.07121" lon="7.22644">
        <ele>1479.13</ele>
        <time>2017-07-28T07:01:07Z</time>
      </trkpt>
      <trkpt lat="44.07114" lon="7.22642">
        <ele>1479.13</ele>
        <time>2017-07-28T07:01:42Z</time>
      </trkpt>
      <trkpt lat="44.07117" lon="7.22648">
        <ele>1479.13</ele>
        <time>2017-07-28T07:02:00Z</time>
      </trkpt>
      <trkpt lat="44.07121" lon="7.22668">
        <ele>1476.72</ele>
        <time>2017-07-28T07:02:17Z</time>
      </trkpt>
      <trkpt lat="44.07123" lon="7.22684">
        <ele>1474.8</ele>
        <time>2017-07-28T07:02:30Z</time>
      </trkpt>
      <trkpt lat="44.07123" lon="7.22697">
        <ele>1473.84</ele>
        <time>2017-07-28T07:02:43Z</time>
      </trkpt>
      <trkpt lat="44.07123" lon="7.2271">
        <ele>1472.88</ele>
        <time>2017-07-28T07:02:56Z</time>
      </trkpt>
      <trkpt lat="44.07127" lon="7.22722">
        <ele>1471.92</ele>
        <time>2017-07-28T07:03:09Z</time>
      </trkpt>
      <trkpt lat="44.07128" lon="7.22738">
        <ele>1469.99</ele>
        <time>2017-07-28T07:03:23Z</time>
      </trkpt>
      <trkpt lat="44.07129" lon="7.22759">
        <ele>1468.07</ele>
        <time>2017-07-28T07:03:37Z</time>
      </trkpt>
      <trkpt lat="44.07129" lon="7.22781">
        <ele>1466.15</ele>
        <time>2017-07-28T07:03:53Z</time>
      </trkpt>
      <trkpt lat="44.0713" lon="7.22807">
        <ele>1464.71</ele>
        <time>2017-07-28T07:04:09Z</time>
      </trkpt>
      <trkpt lat="44.07128" lon="7.22828">
        <ele>1463.74</ele>
        <time>2017-07-28T07:04:23Z</time>
      </trkpt>
      <trkpt lat="44.07128" lon="7.22834">
        <ele>1463.26</ele>
        <time>2017-07-28T07:04:42Z</time>
      </trkpt>
      <trkpt lat="44.0713" lon="7.22834">
        <ele>1463.74</ele>
        <time>2017-07-28T07:05:05Z</time>
      </trkpt>
      <trkpt lat="44.07129" lon="7.22851">
        <ele>1462.3</ele>
        <time>2017-07-28T07:05:21Z</time>
      </trkpt>
      <trkpt lat="44.07132" lon="7.22873">
        <ele>1460.86</ele>
        <time>2017-07-28T07:05:36Z</time>
      </trkpt>
      <trkpt lat="44.07137" lon="7.22894">
        <ele>1457.98</ele>
        <time>2017-07-28T07:05:54Z</time>
      </trkpt>
      <trkpt lat="44.07143" lon="7.22915">
        <ele>1456.05</ele>
        <time>2017-07-28T07:06:09Z</time>
      </trkpt>
      <trkpt lat="44.07152" lon="7.22925">
        <ele>1453.65</ele>
        <time>2017-07-28T07:06:26Z</time>
      </trkpt>
      <trkpt lat="44.07159" lon="7.22935">
        <ele>1452.21</ele>
        <time>2017-07-28T07:06:38Z</time>
      </trkpt>
      <trkpt lat="44.0716" lon="7.22957">
        <ele>1450.77</ele>
        <time>2017-07-28T07:06:55Z</time>
      </trkpt>
      <trkpt lat="44.07163" lon="7.2298">
        <ele>1449.32</ele>
        <time>2017-07-28T07:07:10Z</time>
      </trkpt>
      <trkpt lat="44.0716" lon="7.22999">
        <ele>1446.92</ele>
        <time>2017-07-28T07:07:25Z</time>
      </trkpt>
      <trkpt lat="44.07156" lon="7.23023">
        <ele>1445.48</ele>
        <time>2017-07-28T07:07:41Z</time>
      </trkpt>
      <trkpt lat="44.07153" lon="7.23043">
        <ele>1445</ele>
        <time>2017-07-28T07:07:55Z</time>
      </trkpt>
      <trkpt lat="44.07153" lon="7.23053">
        <ele>1443.56</ele>
        <time>2017-07-28T07:08:08Z</time>
      </trkpt>
      <trkpt lat="44.07151" lon="7.23072">
        <ele>1441.63</ele>
        <time>2017-07-28T07:08:24Z</time>
      </trkpt>
      <trkpt lat="44.07152" lon="7.23088">
        <ele>1439.71</ele>
        <time>2017-07-28T07:08:36Z</time>
      </trkpt>
      <trkpt lat="44.07149" lon="7.23106">
        <ele>1437.79</ele>
        <time>2017-07-28T07:08:50Z</time>
      </trkpt>
      <trkpt lat="44.07157" lon="7.23115">
        <ele>1435.87</ele>
        <time>2017-07-28T07:09:05Z</time>
      </trkpt>
      <trkpt lat="44.07161" lon="7.23127">
        <ele>1433.94</ele>
        <time>2017-07-28T07:09:17Z</time>
      </trkpt>
      <trkpt lat="44.07164" lon="7.23142">
        <ele>1432.02</ele>
        <time>2017-07-28T07:09:31Z</time>
      </trkpt>
      <trkpt lat="44.07166" lon="7.23157">
        <ele>1430.58</ele>
        <time>2017-07-28T07:09:42Z</time>
      </trkpt>
      <trkpt lat="44.07172" lon="7.23172">
        <ele>1428.66</ele>
        <time>2017-07-28T07:09:57Z</time>
      </trkpt>
      <trkpt lat="44.07175" lon="7.23187">
        <ele>1425.77</ele>
        <time>2017-07-28T07:10:13Z</time>
      </trkpt>
      <trkpt lat="44.07182" lon="7.23204">
        <ele>1423.37</ele>
        <time>2017-07-28T07:10:29Z</time>
      </trkpt>
      <trkpt lat="44.07192" lon="7.23218">
        <ele>1421.45</ele>
        <time>2017-07-28T07:10:44Z</time>
      </trkpt>
      <trkpt lat="44.072" lon="7.23225">
        <ele>1420</ele>
        <time>2017-07-28T07:10:58Z</time>
      </trkpt>
      <trkpt lat="44.07211" lon="7.23239">
        <ele>1418.56</ele>
        <time>2017-07-28T07:11:12Z</time>
      </trkpt>
      <trkpt lat="44.07221" lon="7.23253">
        <ele>1417.12</ele>
        <time>2017-07-28T07:11:26Z</time>
      </trkpt>
      <trkpt lat="44.07228" lon="7.23269">
        <ele>1414.72</ele>
        <time>2017-07-28T07:11:41Z</time>
      </trkpt>
      <trkpt lat="44.07233" lon="7.23282">
        <ele>1412.79</ele>
        <time>2017-07-28T07:11:54Z</time>
      </trkpt>
      <trkpt lat="44.07241" lon="7.23292">
        <ele>1410.87</ele>
        <time>2017-07-28T07:12:09Z</time>
      </trkpt>
      <trkpt lat="44.07243" lon="7.23311">
        <ele>1409.43</ele>
        <time>2017-07-28T07:12:24Z</time>
      </trkpt>
      <trkpt lat="44.07246" lon="7.23334">
        <ele>1407.99</ele>
        <time>2017-07-28T07:12:37Z</time>
      </trkpt>
      <trkpt lat="44.07252" lon="7.23347">
        <ele>1407.03</ele>
        <time>2017-07-28T07:12:49Z</time>
      </trkpt>
      <trkpt lat="44.07254" lon="7.23368">
        <ele>1405.1</ele>
        <time>2017-07-28T07:13:03Z</time>
      </trkpt>
      <trkpt lat="44.07254" lon="7.23388">
        <ele>1403.18</ele>
        <time>2017-07-28T07:13:17Z</time>
      </trkpt>
      <trkpt lat="44.07257" lon="7.23401">
        <ele>1400.78</ele>
        <time>2017-07-28T07:13:33Z</time>
      </trkpt>
      <trkpt lat="44.0726" lon="7.23411">
        <ele>1398.86</ele>
        <time>2017-07-28T07:13:45Z</time>
      </trkpt>
      <trkpt lat="44.07269" lon="7.23429">
        <ele>1396.45</ele>
        <time>2017-07-28T07:14:01Z</time>
      </trkpt>
      <trkpt lat="44.07273" lon="7.23443">
        <ele>1394.53</ele>
        <time>2017-07-28T07:14:14Z</time>
      </trkpt>
      <trkpt lat="44.07278" lon="7.23454">
        <ele>1392.61</ele>
        <time>2017-07-28T07:14:28Z</time>
      </trkpt>
      <trkpt lat="44.07284" lon="7.23463">
        <ele>1391.17</ele>
        <time>2017-07-28T07:14:40Z</time>
      </trkpt>
      <trkpt lat="44.07291" lon="7.23483">
        <ele>1389.24</ele>
        <time>2017-07-28T07:14:53Z</time>
      </trkpt>
      <trkpt lat="44.07295" lon="7.23503">
        <ele>1387.32</ele>
        <time>2017-07-28T07:15:06Z</time>
      </trkpt>
      <trkpt lat="44.07296" lon="7.23521">
        <ele>1385.4</ele>
        <time>2017-07-28T07:15:19Z</time>
      </trkpt>
      <trkpt lat="44.07299" lon="7.23533">
        <ele>1382.99</ele>
        <time>2017-07-28T07:15:33Z</time>
      </trkpt>
      <trkpt lat="44.07302" lon="7.23546">
        <ele>1380.11</ele>
        <time>2017-07-28T07:15:47Z</time>
      </trkpt>
      <trkpt lat="44.07307" lon="7.23569">
        <ele>1377.71</ele>
        <time>2017-07-28T07:16:01Z</time>
      </trkpt>
      <trkpt lat="44.07314" lon="7.23581">
        <ele>1375.78</ele>
        <time>2017-07-28T07:16:15Z</time>
      </trkpt>
      <trkpt lat="44.07318" lon="7.236">
        <ele>1373.38</ele>
        <time>2017-07-28T07:16:30Z</time>
      </trkpt>
      <trkpt lat="44.07314" lon="7.23614">
        <ele>1370.98</ele>
        <time>2017-07-28T07:16:43Z</time>
      </trkpt>
      <trkpt lat="44.07313" lon="7.23626">
        <ele>1369.54</ele>
        <time>2017-07-28T07:16:54Z</time>
      </trkpt>
      <trkpt lat="44.07314" lon="7.23645">
        <ele>1367.13</ele>
        <time>2017-07-28T07:17:09Z</time>
      </trkpt>
      <trkpt lat="44.07314" lon="7.23662">
        <ele>1366.17</ele>
        <time>2017-07-28T07:17:23Z</time>
      </trkpt>
      <trkpt lat="44.07315" lon="7.23677">
        <ele>1364.25</ele>
        <time>2017-07-28T07:17:36Z</time>
      </trkpt>
      <trkpt lat="44.07317" lon="7.23693">
        <ele>1362.33</ele>
        <time>2017-07-28T07:17:48Z</time>
      </trkpt>
      <trkpt lat="44.07317" lon="7.23716">
        <ele>1359.92</ele>
        <time>2017-07-28T07:18:05Z</time>
      </trkpt>
      <trkpt lat="44.07316" lon="7.23735">
        <ele>1358</ele>
        <time>2017-07-28T07:18:19Z</time>
      </trkpt>
      <trkpt lat="44.07321" lon="7.23752">
        <ele>1356.56</ele>
        <time>2017-07-28T07:18:34Z</time>
      </trkpt>
      <trkpt lat="44.07331" lon="7.23768">
        <ele>1355.6</ele>
        <time>2017-07-28T07:18:50Z</time>
      </trkpt>
      <trkpt lat="44.07337" lon="7.23776">
        <ele>1354.15</ele>
        <time>2017-07-28T07:19:04Z</time>
      </trkpt>
      <trkpt lat="44.07343" lon="7.23782">
        <ele>1353.19</ele>
        <time>2017-07-28T07:19:19Z</time>
      </trkpt>
      <trkpt lat="44.07346" lon="7.23787">
        <ele>1352.23</ele>
        <time>2017-07-28T07:19:36Z</time>
      </trkpt>
      <trkpt lat="44.07346" lon="7.23786">
        <ele>1352.23</ele>
        <time>2017-07-28T07:19:56Z</time>
      </trkpt>
      <trkpt lat="44.07349" lon="7.23784">
        <ele>1351.75</ele>
        <time>2017-07-28T07:20:17Z</time>
      </trkpt>
      <trkpt lat="44.07355" lon="7.23793">
        <ele>1350.79</ele>
        <time>2017-07-28T07:20:33Z</time>
      </trkpt>
      <trkpt lat="44.07363" lon="7.23808">
        <ele>1349.83</ele>
        <time>2017-07-28T07:20:50Z</time>
      </trkpt>
      <trkpt lat="44.07365" lon="7.23813">
        <ele>1349.35</ele>
        <time>2017-07-28T07:20:54Z</time>
      </trkpt>
      <trkpt lat="44.07367" lon="7.23816">
        <ele>1349.35</ele>
        <time>2017-07-28T07:20:57Z</time>
      </trkpt>
      <trkpt lat="44.07377" lon="7.23833">
        <ele>1348.39</ele>
        <time>2017-07-28T07:21:13Z</time>
      </trkpt>
      <trkpt lat="44.07385" lon="7.23851">
        <ele>1346.94</ele>
        <time>2017-07-28T07:21:29Z</time>
      </trkpt>
      <trkpt lat="44.07393" lon="7.23865">
        <ele>1346.46</ele>
        <time>2017-07-28T07:21:46Z</time>
      </trkpt>
      <trkpt lat="44.07392" lon="7.23864">
        <ele>1346.46</ele>
        <time>2017-07-28T07:22:05Z</time>
      </trkpt>
      <trkpt lat="44.07388" lon="7.23861">
        <ele>1346.46</ele>
        <time>2017-07-28T07:22:32Z</time>
      </trkpt>
      <trkpt lat="44.07393" lon="7.23864">
        <ele>1346.46</ele>
        <time>2017-07-28T07:22:52Z</time>
      </trkpt>
      <trkpt lat="44.07391" lon="7.23865">
        <ele>1345.98</ele>
        <time>2017-07-28T07:23:16Z</time>
      </trkpt>
      <trkpt lat="44.07393" lon="7.23863">
        <ele>1345.5</ele>
        <time>2017-07-28T07:23:47Z</time>
      </trkpt>
      <trkpt lat="44.0739" lon="7.23867">
        <ele>1345.5</ele>
        <time>2017-07-28T07:24:11Z</time>
      </trkpt>
      <trkpt lat="44.0739" lon="7.23869">
        <ele>1345.5</ele>
        <time>2017-07-28T07:24:36Z</time>
      </trkpt>
      <trkpt lat="44.07391" lon="7.23868">
        <ele>1345.5</ele>
        <time>2017-07-28T07:25:04Z</time>
      </trkpt>
      <trkpt lat="44.07392" lon="7.23865">
        <ele>1345.5</ele>
        <time>2017-07-28T07:25:25Z</time>
      </trkpt>
      <trkpt lat="44.07401" lon="7.23872">
        <ele>1345.5</ele>
        <time>2017-07-28T07:25:40Z</time>
      </trkpt>
      <trkpt lat="44.07406" lon="7.23877">
        <ele>1345.02</ele>
        <time>2017-07-28T07:25:54Z</time>
      </trkpt>
      <trkpt lat="44.07414" lon="7.23886">
        <ele>1345.02</ele>
        <time>2017-07-28T07:26:07Z</time>
      </trkpt>
      <trkpt lat="44.07423" lon="7.23898">
        <ele>1345.02</ele>
        <time>2017-07-28T07:26:19Z</time>
      </trkpt>
      <trkpt lat="44.07435" lon="7.2392">
        <ele>1344.54</ele>
        <time>2017-07-28T07:26:36Z</time>
      </trkpt>
      <trkpt lat="44.07445" lon="7.23938">
        <ele>1342.14</ele>
        <time>2017-07-28T07:26:52Z</time>
      </trkpt>
      <trkpt lat="44.0745" lon="7.23957">
        <ele>1340.7</ele>
        <time>2017-07-28T07:27:06Z</time>
      </trkpt>
      <trkpt lat="44.07456" lon="7.23973">
        <ele>1338.77</ele>
        <time>2017-07-28T07:27:24Z</time>
      </trkpt>
      <trkpt lat="44.0746" lon="7.23975">
        <ele>1338.29</ele>
        <time>2017-07-28T07:27:40Z</time>
      </trkpt>
      <trkpt lat="44.07466" lon="7.23984">
        <ele>1336.85</ele>
        <time>2017-07-28T07:27:59Z</time>
      </trkpt>
      <trkpt lat="44.07474" lon="7.23992">
        <ele>1336.37</ele>
        <time>2017-07-28T07:28:14Z</time>
      </trkpt>
      <trkpt lat="44.07476" lon="7.23996">
        <ele>1335.89</ele>
        <time>2017-07-28T07:28:25Z</time>
      </trkpt>
      <trkpt lat="44.07473" lon="7.23998">
        <ele>1335.89</ele>
        <time>2017-07-28T07:28:48Z</time>
      </trkpt>
      <trkpt lat="44.07473" lon="7.23997">
        <ele>1335.89</ele>
        <time>2017-07-28T07:29:12Z</time>
      </trkpt>
      <trkpt lat="44.07472" lon="7.23998">
        <ele>1335.89</ele>
        <time>2017-07-28T07:29:32Z</time>
      </trkpt>
      <trkpt lat="44.07472" lon="7.23993">
        <ele>1335.89</ele>
        <time>2017-07-28T07:29:59Z</time>
      </trkpt>
      <trkpt lat="44.07471" lon="7.23993">
        <ele>1335.89</ele>
        <time>2017-07-28T07:30:20Z</time>
      </trkpt>
      <trkpt lat="44.07474" lon="7.2399">
        <ele>1335.89</ele>
        <time>2017-07-28T07:30:34Z</time>
      </trkpt>
      <trkpt lat="44.07483" lon="7.23988">
        <ele>1333.97</ele>
        <time>2017-07-28T07:30:50Z</time>
      </trkpt>
      <trkpt lat="44.07492" lon="7.23991">
        <ele>1331.08</ele>
        <time>2017-07-28T07:31:03Z</time>
      </trkpt>
      <trkpt lat="44.07504" lon="7.23992">
        <ele>1329.64</ele>
        <time>2017-07-28T07:31:16Z</time>
      </trkpt>
      <trkpt lat="44.07513" lon="7.23997">
        <ele>1327.72</ele>
        <time>2017-07-28T07:31:28Z</time>
      </trkpt>
      <trkpt lat="44.07514" lon="7.23997">
        <ele>1327.72</ele>
        <time>2017-07-28T07:31:29Z</time>
      </trkpt>
      <trkpt lat="44.07527" lon="7.24009">
        <ele>1325.31</ele>
        <time>2017-07-28T07:31:44Z</time>
      </trkpt>
      <trkpt lat="44.07533" lon="7.2402">
        <ele>1322.43</ele>
        <time>2017-07-28T07:31:57Z</time>
      </trkpt>
      <trkpt lat="44.07542" lon="7.24034">
        <ele>1320.51</ele>
        <time>2017-07-28T07:32:10Z</time>
      </trkpt>
      <trkpt lat="44.07547" lon="7.24049">
        <ele>1318.1</ele>
        <time>2017-07-28T07:32:24Z</time>
      </trkpt>
      <trkpt lat="44.07553" lon="7.24061">
        <ele>1315.7</ele>
        <time>2017-07-28T07:32:38Z</time>
      </trkpt>
      <trkpt lat="44.07561" lon="7.24076">
        <ele>1313.78</ele>
        <time>2017-07-28T07:32:50Z</time>
      </trkpt>
      <trkpt lat="44.07571" lon="7.24087">
        <ele>1311.38</ele>
        <time>2017-07-28T07:33:06Z</time>
      </trkpt>
      <trkpt lat="44.07564" lon="7.24088">
        <ele>1308.97</ele>
        <time>2017-07-28T07:33:19Z</time>
      </trkpt>
      <trkpt lat="44.07562" lon="7.24092">
        <ele>1308.49</ele>
        <time>2017-07-28T07:33:35Z</time>
      </trkpt>
      <trkpt lat="44.07562" lon="7.24092">
        <ele>1308.49</ele>
        <time>2017-07-28T07:33:53Z</time>
      </trkpt>
      <trkpt lat="44.07561" lon="7.24097">
        <ele>1308.49</ele>
        <time>2017-07-28T07:34:17Z</time>
      </trkpt>
      <trkpt lat="44.07561" lon="7.24096">
        <ele>1308.49</ele>
        <time>2017-07-28T07:34:43Z</time>
      </trkpt>
      <trkpt lat="44.07561" lon="7.24095">
        <ele>1308.01</ele>
        <time>2017-07-28T07:35:01Z</time>
      </trkpt>
      <trkpt lat="44.07559" lon="7.24089">
        <ele>1308.01</ele>
        <time>2017-07-28T07:35:38Z</time>
      </trkpt>
      <trkpt lat="44.0756" lon="7.24097">
        <ele>1308.01</ele>
        <time>2017-07-28T07:36:01Z</time>
      </trkpt>
      <trkpt lat="44.07558" lon="7.24101">
        <ele>1308.01</ele>
        <time>2017-07-28T07:36:33Z</time>
      </trkpt>
      <trkpt lat="44.07554" lon="7.24096">
        <ele>1308.01</ele>
        <time>2017-07-28T07:36:57Z</time>
      </trkpt>
      <trkpt lat="44.07547" lon="7.24091">
        <ele>1306.57</ele>
        <time>2017-07-28T07:37:05Z</time>
      </trkpt>
      <trkpt lat="44.07534" lon="7.24082">
        <ele>1304.65</ele>
        <time>2017-07-28T07:37:19Z</time>
      </trkpt>
      <trkpt lat="44.07529" lon="7.24075">
        <ele>1303.2</ele>
        <time>2017-07-28T07:37:33Z</time>
      </trkpt>
      <trkpt lat="44.07539" lon="7.24086">
        <ele>1300.32</ele>
        <time>2017-07-28T07:37:48Z</time>
      </trkpt>
      <trkpt lat="44.07547" lon="7.241">
        <ele>1297.44</ele>
        <time>2017-07-28T07:38:03Z</time>
      </trkpt>
      <trkpt lat="44.07557" lon="7.2411">
        <ele>1295.03</ele>
        <time>2017-07-28T07:38:19Z</time>
      </trkpt>
      <trkpt lat="44.07558" lon="7.24115">
        <ele>1295.03</ele>
        <time>2017-07-28T07:38:22Z</time>
      </trkpt>
      <trkpt lat="44.07556" lon="7.24117">
        <ele>1293.59</ele>
        <time>2017-07-28T07:38:25Z</time>
      </trkpt>
      <trkpt lat="44.07541" lon="7.24119">
        <ele>1291.19</ele>
        <time>2017-07-28T07:38:40Z</time>
      </trkpt>
      <trkpt lat="44.07529" lon="7.24114">
        <ele>1288.78</ele>
        <time>2017-07-28T07:38:55Z</time>
      </trkpt>
      <trkpt lat="44.0752" lon="7.24105">
        <ele>1286.86</ele>
        <time>2017-07-28T07:39:08Z</time>
      </trkpt>
      <trkpt lat="44.07521" lon="7.24113">
        <ele>1284.94</ele>
        <time>2017-07-28T07:39:21Z</time>
      </trkpt>
      <trkpt lat="44.07525" lon="7.24117">
        <ele>1284.46</ele>
        <time>2017-07-28T07:39:25Z</time>
      </trkpt>
      <trkpt lat="44.07536" lon="7.24127">
        <ele>1283.02</ele>
        <time>2017-07-28T07:39:38Z</time>
      </trkpt>
      <trkpt lat="44.07544" lon="7.24134">
        <ele>1281.57</ele>
        <time>2017-07-28T07:39:50Z</time>
      </trkpt>
      <trkpt lat="44.07551" lon="7.24142">
        <ele>1279.65</ele>
        <time>2017-07-28T07:40:03Z</time>
      </trkpt>
      <trkpt lat="44.07543" lon="7.24146">
        <ele>1277.73</ele>
        <time>2017-07-28T07:40:17Z</time>
      </trkpt>
      <trkpt lat="44.07534" lon="7.24143">
        <ele>1275.33</ele>
        <time>2017-07-28T07:40:28Z</time>
      </trkpt>
      <trkpt lat="44.07521" lon="7.2414">
        <ele>1273.88</ele>
        <time>2017-07-28T07:40:42Z</time>
      </trkpt>
      <trkpt lat="44.07509" lon="7.24131">
        <ele>1272.44</ele>
        <time>2017-07-28T07:40:57Z</time>
      </trkpt>
      <trkpt lat="44.07503" lon="7.24126">
        <ele>1271</ele>
        <time>2017-07-28T07:41:05Z</time>
      </trkpt>
      <trkpt lat="44.0749" lon="7.24119">
        <ele>1270.04</ele>
        <time>2017-07-28T07:41:19Z</time>
      </trkpt>
      <trkpt lat="44.07477" lon="7.24112">
        <ele>1267.64</ele>
        <time>2017-07-28T07:41:32Z</time>
      </trkpt>
      <trkpt lat="44.0747" lon="7.24107">
        <ele>1266.67</ele>
        <time>2017-07-28T07:41:39Z</time>
      </trkpt>
      <trkpt lat="44.07456" lon="7.24104">
        <ele>1264.27</ele>
        <time>2017-07-28T07:41:53Z</time>
      </trkpt>
      <trkpt lat="44.07459" lon="7.24106">
        <ele>1262.83</ele>
        <time>2017-07-28T07:42:05Z</time>
      </trkpt>
      <trkpt lat="44.07466" lon="7.24105">
        <ele>1260.91</ele>
        <time>2017-07-28T07:42:15Z</time>
      </trkpt>
      <trkpt lat="44.0747" lon="7.24118">
        <ele>1258.98</ele>
        <time>2017-07-28T07:42:29Z</time>
      </trkpt>
      <trkpt lat="44.07477" lon="7.24128">
        <ele>1256.58</ele>
        <time>2017-07-28T07:42:42Z</time>
      </trkpt>
      <trkpt lat="44.07482" lon="7.24141">
        <ele>1254.66</ele>
        <time>2017-07-28T07:42:55Z</time>
      </trkpt>
      <trkpt lat="44.07488" lon="7.24156">
        <ele>1252.74</ele>
        <time>2017-07-28T07:43:08Z</time>
      </trkpt>
      <trkpt lat="44.07499" lon="7.24174">
        <ele>1250.33</ele>
        <time>2017-07-28T07:43:22Z</time>
      </trkpt>
      <trkpt lat="44.07511" lon="7.2419">
        <ele>1248.41</ele>
        <time>2017-07-28T07:43:37Z</time>
      </trkpt>
      <trkpt lat="44.07518" lon="7.24207">
        <ele>1246.01</ele>
        <time>2017-07-28T07:43:52Z</time>
      </trkpt>
      <trkpt lat="44.07524" lon="7.24217">
        <ele>1244.08</ele>
        <time>2017-07-28T07:44:05Z</time>
      </trkpt>
      <trkpt lat="44.07537" lon="7.24226">
        <ele>1243.12</ele>
        <time>2017-07-28T07:44:19Z</time>
      </trkpt>
      <trkpt lat="44.07544" lon="7.24233">
        <ele>1240.72</ele>
        <time>2017-07-28T07:44:32Z</time>
      </trkpt>
      <trkpt lat="44.07534" lon="7.2424">
        <ele>1238.32</ele>
        <time>2017-07-28T07:44:46Z</time>
      </trkpt>
      <trkpt lat="44.07521" lon="7.24243">
        <ele>1235.91</ele>
        <time>2017-07-28T07:45:00Z</time>
      </trkpt>
      <trkpt lat="44.07526" lon="7.24249">
        <ele>1233.99</ele>
        <time>2017-07-28T07:45:14Z</time>
      </trkpt>
      <trkpt lat="44.07542" lon="7.24259">
        <ele>1232.07</ele>
        <time>2017-07-28T07:45:30Z</time>
      </trkpt>
      <trkpt lat="44.07546" lon="7.24258">
        <ele>1231.11</ele>
        <time>2017-07-28T07:45:48Z</time>
      </trkpt>
      <trkpt lat="44.07546" lon="7.24266">
        <ele>1230.14</ele>
        <time>2017-07-28T07:46:03Z</time>
      </trkpt>
      <trkpt lat="44.07535" lon="7.24273">
        <ele>1228.22</ele>
        <time>2017-07-28T07:46:17Z</time>
      </trkpt>
      <trkpt lat="44.07524" lon="7.24275">
        <ele>1225.82</ele>
        <time>2017-07-28T07:46:31Z</time>
      </trkpt>
      <trkpt lat="44.07515" lon="7.24275">
        <ele>1224.86</ele>
        <time>2017-07-28T07:46:46Z</time>
      </trkpt>
      <trkpt lat="44.0751" lon="7.24271">
        <ele>1223.42</ele>
        <time>2017-07-28T07:47:03Z</time>
      </trkpt>
      <trkpt lat="44.07498" lon="7.24268">
        <ele>1221.97</ele>
        <time>2017-07-28T07:47:17Z</time>
      </trkpt>
      <trkpt lat="44.07488" lon="7.2426">
        <ele>1221.49</ele>
        <time>2017-07-28T07:47:31Z</time>
      </trkpt>
      <trkpt lat="44.07482" lon="7.24252">
        <ele>1219.57</ele>
        <time>2017-07-28T07:47:44Z</time>
      </trkpt>
      <trkpt lat="44.07477" lon="7.24248">
        <ele>1219.09</ele>
        <time>2017-07-28T07:47:58Z</time>
      </trkpt>
      <trkpt lat="44.07475" lon="7.24243">
        <ele>1218.61</ele>
        <time>2017-07-28T07:48:27Z</time>
      </trkpt>
      <trkpt lat="44.07476" lon="7.24241">
        <ele>1218.61</ele>
        <time>2017-07-28T07:48:54Z</time>
      </trkpt>
      <trkpt lat="44.07472" lon="7.24238">
        <ele>1218.13</ele>
        <time>2017-07-28T07:49:12Z</time>
      </trkpt>
      <trkpt lat="44.07463" lon="7.24231">
        <ele>1215.72</ele>
        <time>2017-07-28T07:49:27Z</time>
      </trkpt>
      <trkpt lat="44.07456" lon="7.24223">
        <ele>1214.76</ele>
        <time>2017-07-28T07:49:39Z</time>
      </trkpt>
      <trkpt lat="44.07448" lon="7.24217">
        <ele>1212.84</ele>
        <time>2017-07-28T07:49:51Z</time>
      </trkpt>
      <trkpt lat="44.07439" lon="7.24213">
        <ele>1210.92</ele>
        <time>2017-07-28T07:50:05Z</time>
      </trkpt>
      <trkpt lat="44.07434" lon="7.24214">
        <ele>1209</ele>
        <time>2017-07-28T07:50:18Z</time>
      </trkpt>
      <trkpt lat="44.0744" lon="7.24223">
        <ele>1206.59</ele>
        <time>2017-07-28T07:50:32Z</time>
      </trkpt>
      <trkpt lat="44.07443" lon="7.24232">
        <ele>1204.19</ele>
        <time>2017-07-28T07:50:47Z</time>
      </trkpt>
      <trkpt lat="44.07434" lon="7.24235">
        <ele>1201.79</ele>
        <time>2017-07-28T07:51:01Z</time>
      </trkpt>
      <trkpt lat="44.07426" lon="7.2423">
        <ele>1200.82</ele>
        <time>2017-07-28T07:51:15Z</time>
      </trkpt>
      <trkpt lat="44.07426" lon="7.24232">
        <ele>1199.86</ele>
        <time>2017-07-28T07:51:29Z</time>
      </trkpt>
      <trkpt lat="44.07429" lon="7.24232">
        <ele>1199.38</ele>
        <time>2017-07-28T07:52:04Z</time>
      </trkpt>
      <trkpt lat="44.07426" lon="7.24241">
        <ele>1198.9</ele>
        <time>2017-07-28T07:52:20Z</time>
      </trkpt>
      <trkpt lat="44.07434" lon="7.2425">
        <ele>1196.02</ele>
        <time>2017-07-28T07:52:37Z</time>
      </trkpt>
      <trkpt lat="44.07439" lon="7.24258">
        <ele>1194.09</ele>
        <time>2017-07-28T07:52:50Z</time>
      </trkpt>
      <trkpt lat="44.07443" lon="7.24264">
        <ele>1191.69</ele>
        <time>2017-07-28T07:53:03Z</time>
      </trkpt>
      <trkpt lat="44.07454" lon="7.24281">
        <ele>1189.77</ele>
        <time>2017-07-28T07:53:19Z</time>
      </trkpt>
      <trkpt lat="44.07459" lon="7.24294">
        <ele>1187.85</ele>
        <time>2017-07-28T07:53:31Z</time>
      </trkpt>
      <trkpt lat="44.07461" lon="7.24312">
        <ele>1186.4</ele>
        <time>2017-07-28T07:53:45Z</time>
      </trkpt>
      <trkpt lat="44.07467" lon="7.24326">
        <ele>1184.96</ele>
        <time>2017-07-28T07:54:00Z</time>
      </trkpt>
      <trkpt lat="44.07475" lon="7.24348">
        <ele>1182.08</ele>
        <time>2017-07-28T07:54:18Z</time>
      </trkpt>
      <trkpt lat="44.07482" lon="7.24361">
        <ele>1180.16</ele>
        <time>2017-07-28T07:54:32Z</time>
      </trkpt>
      <trkpt lat="44.07493" lon="7.24373">
        <ele>1178.23</ele>
        <time>2017-07-28T07:54:46Z</time>
      </trkpt>
      <trkpt lat="44.07504" lon="7.24379">
        <ele>1175.83</ele>
        <time>2017-07-28T07:54:59Z</time>
      </trkpt>
      <trkpt lat="44.07504" lon="7.24397">
        <ele>1173.43</ele>
        <time>2017-07-28T07:55:12Z</time>
      </trkpt>
      <trkpt lat="44.07503" lon="7.24414">
        <ele>1170.06</ele>
        <time>2017-07-28T07:55:26Z</time>
      </trkpt>
      <trkpt lat="44.07499" lon="7.24429">
        <ele>1166.7</ele>
        <time>2017-07-28T07:55:43Z</time>
      </trkpt>
      <trkpt lat="44.07495" lon="7.24443">
        <ele>1164.29</ele>
        <time>2017-07-28T07:55:57Z</time>
      </trkpt>
      <trkpt lat="44.07496" lon="7.24458">
        <ele>1160.93</ele>
        <time>2017-07-28T07:56:12Z</time>
      </trkpt>
      <trkpt lat="44.07486" lon="7.24454">
        <ele>1158.05</ele>
        <time>2017-07-28T07:56:27Z</time>
      </trkpt>
      <trkpt lat="44.07484" lon="7.24467">
        <ele>1155.16</ele>
        <time>2017-07-28T07:56:42Z</time>
      </trkpt>
      <trkpt lat="44.07495" lon="7.24477">
        <ele>1152.76</ele>
        <time>2017-07-28T07:56:57Z</time>
      </trkpt>
      <trkpt lat="44.07503" lon="7.24479">
        <ele>1150.84</ele>
        <time>2017-07-28T07:57:08Z</time>
      </trkpt>
      <trkpt lat="44.0751" lon="7.24482">
        <ele>1147.95</ele>
        <time>2017-07-28T07:57:21Z</time>
      </trkpt>
      <trkpt lat="44.07523" lon="7.2449">
        <ele>1145.55</ele>
        <time>2017-07-28T07:57:36Z</time>
      </trkpt>
      <trkpt lat="44.07536" lon="7.24497">
        <ele>1142.18</ele>
        <time>2017-07-28T07:57:50Z</time>
      </trkpt>
      <trkpt lat="44.07547" lon="7.24501">
        <ele>1139.78</ele>
        <time>2017-07-28T07:58:04Z</time>
      </trkpt>
      <trkpt lat="44.07564" lon="7.24504">
        <ele>1138.34</ele>
        <time>2017-07-28T07:58:17Z</time>
      </trkpt>
      <trkpt lat="44.07573" lon="7.24503">
        <ele>1136.9</ele>
        <time>2017-07-28T07:58:30Z</time>
      </trkpt>
      <trkpt lat="44.07583" lon="7.24506">
        <ele>1134.49</ele>
        <time>2017-07-28T07:58:43Z</time>
      </trkpt>
      <trkpt lat="44.07592" lon="7.24514">
        <ele>1132.09</ele>
        <time>2017-07-28T07:58:57Z</time>
      </trkpt>
      <trkpt lat="44.07606" lon="7.24513">
        <ele>1129.21</ele>
        <time>2017-07-28T07:59:12Z</time>
      </trkpt>
      <trkpt lat="44.07613" lon="7.24517">
        <ele>1127.28</ele>
        <time>2017-07-28T07:59:22Z</time>
      </trkpt>
      <trkpt lat="44.07624" lon="7.24523">
        <ele>1124.88</ele>
        <time>2017-07-28T07:59:36Z</time>
      </trkpt>
      <trkpt lat="44.07629" lon="7.2453">
        <ele>1122.96</ele>
        <time>2017-07-28T07:59:48Z</time>
      </trkpt>
      <trkpt lat="44.07629" lon="7.24535">
        <ele>1120.55</ele>
        <time>2017-07-28T08:00:03Z</time>
      </trkpt>
      <trkpt lat="44.07636" lon="7.24537">
        <ele>1118.15</ele>
        <time>2017-07-28T08:00:16Z</time>
      </trkpt>
      <trkpt lat="44.07644" lon="7.24541">
        <ele>1114.79</ele>
        <time>2017-07-28T08:00:29Z</time>
      </trkpt>
      <trkpt lat="44.07654" lon="7.24547">
        <ele>1112.86</ele>
        <time>2017-07-28T08:00:41Z</time>
      </trkpt>
      <trkpt lat="44.07665" lon="7.24555">
        <ele>1109.98</ele>
        <time>2017-07-28T08:00:53Z</time>
      </trkpt>
      <trkpt lat="44.07666" lon="7.24558">
        <ele>1109.5</ele>
        <time>2017-07-28T08:00:56Z</time>
      </trkpt>
      <trkpt lat="44.07654" lon="7.24563">
        <ele>1106.61</ele>
        <time>2017-07-28T08:01:11Z</time>
      </trkpt>
      <trkpt lat="44.07653" lon="7.24563">
        <ele>1106.61</ele>
        <time>2017-07-28T08:01:12Z</time>
      </trkpt>
      <trkpt lat="44.07651" lon="7.24568">
        <ele>1104.69</ele>
        <time>2017-07-28T08:01:25Z</time>
      </trkpt>
      <trkpt lat="44.07658" lon="7.2457">
        <ele>1102.77</ele>
        <time>2017-07-28T08:01:38Z</time>
      </trkpt>
      <trkpt lat="44.0767" lon="7.24577">
        <ele>1100.37</ele>
        <time>2017-07-28T08:01:53Z</time>
      </trkpt>
      <trkpt lat="44.07675" lon="7.24579">
        <ele>1097.96</ele>
        <time>2017-07-28T08:02:04Z</time>
      </trkpt>
      <trkpt lat="44.07681" lon="7.24586">
        <ele>1096.04</ele>
        <time>2017-07-28T08:02:17Z</time>
      </trkpt>
      <trkpt lat="44.07681" lon="7.24587">
        <ele>1096.04</ele>
        <time>2017-07-28T08:02:38Z</time>
      </trkpt>
      <trkpt lat="44.07689" lon="7.2459">
        <ele>1094.12</ele>
        <time>2017-07-28T08:02:51Z</time>
      </trkpt>
      <trkpt lat="44.07695" lon="7.24595">
        <ele>1089.79</ele>
        <time>2017-07-28T08:03:03Z</time>
      </trkpt>
      <trkpt lat="44.07695" lon="7.24596">
        <ele>1094.6</ele>
        <time>2017-07-28T08:03:04Z</time>
      </trkpt>
      <trkpt lat="44.07697" lon="7.24597">
        <ele>1091.23</ele>
        <time>2017-07-28T08:03:08Z</time>
      </trkpt>
      <trkpt lat="44.07706" lon="7.24595">
        <ele>1089.31</ele>
        <time>2017-07-28T08:03:21Z</time>
      </trkpt>
      <trkpt lat="44.07695" lon="7.24605">
        <ele>1086.43</ele>
        <time>2017-07-28T08:03:37Z</time>
      </trkpt>
      <trkpt lat="44.07697" lon="7.24611">
        <ele>1083.54</ele>
        <time>2017-07-28T08:03:50Z</time>
      </trkpt>
      <trkpt lat="44.07703" lon="7.24612">
        <ele>1081.14</ele>
        <time>2017-07-28T08:04:01Z</time>
      </trkpt>
      <trkpt lat="44.07708" lon="7.24618">
        <ele>1078.74</ele>
        <time>2017-07-28T08:04:12Z</time>
      </trkpt>
      <trkpt lat="44.07718" lon="7.24612">
        <ele>1075.85</ele>
        <time>2017-07-28T08:04:25Z</time>
      </trkpt>
      <trkpt lat="44.07725" lon="7.24618">
        <ele>1072.97</ele>
        <time>2017-07-28T08:04:40Z</time>
      </trkpt>
      <trkpt lat="44.07728" lon="7.2463">
        <ele>1072.01</ele>
        <time>2017-07-28T08:04:54Z</time>
      </trkpt>
      <trkpt lat="44.07723" lon="7.24638">
        <ele>1070.57</ele>
        <time>2017-07-28T08:05:10Z</time>
      </trkpt>
      <trkpt lat="44.07719" lon="7.24645">
        <ele>1069.6</ele>
        <time>2017-07-28T08:05:14Z</time>
      </trkpt>
      <trkpt lat="44.07722" lon="7.24658">
        <ele>1067.2</ele>
        <time>2017-07-28T08:05:26Z</time>
      </trkpt>
      <trkpt lat="44.0773" lon="7.24676">
        <ele>1064.8</ele>
        <time>2017-07-28T08:05:42Z</time>
      </trkpt>
      <trkpt lat="44.07735" lon="7.24691">
        <ele>1060.95</ele>
        <time>2017-07-28T08:05:56Z</time>
      </trkpt>
      <trkpt lat="44.07734" lon="7.24709">
        <ele>1057.59</ele>
        <time>2017-07-28T08:06:10Z</time>
      </trkpt>
      <trkpt lat="44.07734" lon="7.2471">
        <ele>1060.47</ele>
        <time>2017-07-28T08:06:11Z</time>
      </trkpt>
      <trkpt lat="44.07734" lon="7.24719">
        <ele>1057.59</ele>
        <time>2017-07-28T08:06:22Z</time>
      </trkpt>
      <trkpt lat="44.07737" lon="7.24723">
        <ele>1054.22</ele>
        <time>2017-07-28T08:06:37Z</time>
      </trkpt>
      <trkpt lat="44.07746" lon="7.24717">
        <ele>1056.63</ele>
        <time>2017-07-28T08:06:51Z</time>
      </trkpt>
      <trkpt lat="44.07757" lon="7.24712">
        <ele>1054.7</ele>
        <time>2017-07-28T08:07:07Z</time>
      </trkpt>
      <trkpt lat="44.07766" lon="7.24718">
        <ele>1054.22</ele>
        <time>2017-07-28T08:07:22Z</time>
      </trkpt>
      <trkpt lat="44.07769" lon="7.24721">
        <ele>1051.82</ele>
        <time>2017-07-28T08:07:37Z</time>
      </trkpt>
      <trkpt lat="44.07777" lon="7.24726">
        <ele>1050.38</ele>
        <time>2017-07-28T08:07:53Z</time>
      </trkpt>
      <trkpt lat="44.07777" lon="7.24728">
        <ele>1049.9</ele>
        <time>2017-07-28T08:08:08Z</time>
      </trkpt>
      <trkpt lat="44.07782" lon="7.24737">
        <ele>1048.94</ele>
        <time>2017-07-28T08:08:21Z</time>
      </trkpt>
      <trkpt lat="44.07783" lon="7.2474">
        <ele>1048.94</ele>
        <time>2017-07-28T08:08:33Z</time>
      </trkpt>
      <trkpt lat="44.07787" lon="7.24734">
        <ele>1048.94</ele>
        <time>2017-07-28T08:08:46Z</time>
      </trkpt>
      <trkpt lat="44.07792" lon="7.24738">
        <ele>1048.94</ele>
        <time>2017-07-28T08:09:03Z</time>
      </trkpt>
      <trkpt lat="44.07796" lon="7.24742">
        <ele>1047.97</ele>
        <time>2017-07-28T08:09:09Z</time>
      </trkpt>
      <trkpt lat="44.07813" lon="7.24754">
        <ele>1046.05</ele>
        <time>2017-07-28T08:09:27Z</time>
      </trkpt>
      <trkpt lat="44.07819" lon="7.24757">
        <ele>1046.05</ele>
        <time>2017-07-28T08:09:32Z</time>
      </trkpt>
      <trkpt lat="44.07827" lon="7.24762">
        <ele>1045.57</ele>
        <time>2017-07-28T08:09:40Z</time>
      </trkpt>
      <trkpt lat="44.07837" lon="7.24762">
        <ele>1047.49</ele>
        <time>2017-07-28T08:09:54Z</time>
      </trkpt>
      <trkpt lat="44.07845" lon="7.24768">
        <ele>1046.05</ele>
        <time>2017-07-28T08:10:04Z</time>
      </trkpt>
      <trkpt lat="44.07851" lon="7.24785">
        <ele>1043.65</ele>
        <time>2017-07-28T08:10:20Z</time>
      </trkpt>
      <trkpt lat="44.07852" lon="7.24794">
        <ele>1042.69</ele>
        <time>2017-07-28T08:10:28Z</time>
      </trkpt>
      <trkpt lat="44.07863" lon="7.24814">
        <ele>1040.28</ele>
        <time>2017-07-28T08:10:48Z</time>
      </trkpt>
      <trkpt lat="44.07864" lon="7.24816">
        <ele>1039.8</ele>
        <time>2017-07-28T08:10:52Z</time>
      </trkpt>
      <trkpt lat="44.07871" lon="7.24821">
        <ele>1038.84</ele>
        <time>2017-07-28T08:11:05Z</time>
      </trkpt>
      <trkpt lat="44.07879" lon="7.2483">
        <ele>1038.36</ele>
        <time>2017-07-28T08:11:15Z</time>
      </trkpt>
      <trkpt lat="44.07885" lon="7.24853">
        <ele>1037.88</ele>
        <time>2017-07-28T08:11:32Z</time>
      </trkpt>
      <trkpt lat="44.07885" lon="7.24856">
        <ele>1037.88</ele>
        <time>2017-07-28T08:11:34Z</time>
      </trkpt>
      <trkpt lat="44.07879" lon="7.24875">
        <ele>1036.92</ele>
        <time>2017-07-28T08:11:50Z</time>
      </trkpt>
      <trkpt lat="44.07875" lon="7.24884">
        <ele>1036.92</ele>
        <time>2017-07-28T08:11:58Z</time>
      </trkpt>
      <trkpt lat="44.07871" lon="7.249">
        <ele>1036.44</ele>
        <time>2017-07-28T08:12:14Z</time>
      </trkpt>
      <trkpt lat="44.07873" lon="7.24909">
        <ele>1035.96</ele>
        <time>2017-07-28T08:12:21Z</time>
      </trkpt>
      <trkpt lat="44.07882" lon="7.24929">
        <ele>1035.96</ele>
        <time>2017-07-28T08:12:38Z</time>
      </trkpt>
      <trkpt lat="44.07883" lon="7.24933">
        <ele>1035.96</ele>
        <time>2017-07-28T08:12:41Z</time>
      </trkpt>
      <trkpt lat="44.07887" lon="7.24952">
        <ele>1034.04</ele>
        <time>2017-07-28T08:12:57Z</time>
      </trkpt>
      <trkpt lat="44.07888" lon="7.24953">
        <ele>1034.04</ele>
        <time>2017-07-28T08:12:58Z</time>
      </trkpt>
      <trkpt lat="44.07889" lon="7.24968">
        <ele>1032.11</ele>
        <time>2017-07-28T08:13:13Z</time>
      </trkpt>
      <trkpt lat="44.07875" lon="7.24972">
        <ele>1029.71</ele>
        <time>2017-07-28T08:13:30Z</time>
      </trkpt>
      <trkpt lat="44.07862" lon="7.24973">
        <ele>1027.31</ele>
        <time>2017-07-28T08:13:43Z</time>
      </trkpt>
      <trkpt lat="44.07848" lon="7.24976">
        <ele>1026.83</ele>
        <time>2017-07-28T08:13:57Z</time>
      </trkpt>
      <trkpt lat="44.07846" lon="7.24977">
        <ele>1028.75</ele>
        <time>2017-07-28T08:13:59Z</time>
      </trkpt>
      <trkpt lat="44.07846" lon="7.24979">
        <ele>1025.86</ele>
        <time>2017-07-28T08:14:13Z</time>
      </trkpt>
      <trkpt lat="44.07841" lon="7.2498">
        <ele>1025.86</ele>
        <time>2017-07-28T08:14:22Z</time>
      </trkpt>
      <trkpt lat="44.07829" lon="7.24989">
        <ele>1024.9</ele>
        <time>2017-07-28T08:14:37Z</time>
      </trkpt>
      <trkpt lat="44.07815" lon="7.24991">
        <ele>1023.94</ele>
        <time>2017-07-28T08:14:58Z</time>
      </trkpt>
      <trkpt lat="44.07808" lon="7.24992">
        <ele>1021.54</ele>
        <time>2017-07-28T08:15:13Z</time>
      </trkpt>
      <trkpt lat="44.07808" lon="7.24997">
        <ele>1023.94</ele>
        <time>2017-07-28T08:15:27Z</time>
      </trkpt>
      <trkpt lat="44.07808" lon="7.24999">
        <ele>1022.5</ele>
        <time>2017-07-28T08:15:36Z</time>
      </trkpt>
      <trkpt lat="44.07808" lon="7.25008">
        <ele>1022.5</ele>
        <time>2017-07-28T08:15:54Z</time>
      </trkpt>
      <trkpt lat="44.07797" lon="7.25008">
        <ele>1022.5</ele>
        <time>2017-07-28T08:16:10Z</time>
      </trkpt>
      <trkpt lat="44.07783" lon="7.25004">
        <ele>1021.54</ele>
        <time>2017-07-28T08:16:25Z</time>
      </trkpt>
      <trkpt lat="44.07769" lon="7.24993">
        <ele>1020.58</ele>
        <time>2017-07-28T08:16:43Z</time>
      </trkpt>
      <trkpt lat="44.07762" lon="7.24993">
        <ele>1020.1</ele>
        <time>2017-07-28T08:17:03Z</time>
      </trkpt>
      <trkpt lat="44.07754" lon="7.24991">
        <ele>1019.13</ele>
        <time>2017-07-28T08:17:20Z</time>
      </trkpt>
      <trkpt lat="44.07742" lon="7.24991">
        <ele>1018.17</ele>
        <time>2017-07-28T08:17:37Z</time>
      </trkpt>
      <trkpt lat="44.07724" lon="7.24992">
        <ele>1016.25</ele>
        <time>2017-07-28T08:17:58Z</time>
      </trkpt>
      <trkpt lat="44.07718" lon="7.24993">
        <ele>1015.77</ele>
        <time>2017-07-28T08:18:10Z</time>
      </trkpt>
      <trkpt lat="44.07709" lon="7.24993">
        <ele>1012.41</ele>
        <time>2017-07-28T08:18:20Z</time>
      </trkpt>
      <trkpt lat="44.07708" lon="7.24993">
        <ele>1018.17</ele>
        <time>2017-07-28T08:18:21Z</time>
      </trkpt>
      <trkpt lat="44.07707" lon="7.24993">
        <ele>1015.29</ele>
        <time>2017-07-28T08:18:22Z</time>
      </trkpt>
      <trkpt lat="44.0769" lon="7.24994">
        <ele>1013.85</ele>
        <time>2017-07-28T08:18:41Z</time>
      </trkpt>
      <trkpt lat="44.07673" lon="7.24994">
        <ele>1012.41</ele>
        <time>2017-07-28T08:18:58Z</time>
      </trkpt>
      <trkpt lat="44.07654" lon="7.24993">
        <ele>1010.96</ele>
        <time>2017-07-28T08:19:17Z</time>
      </trkpt>
      <trkpt lat="44.07647" lon="7.24992">
        <ele>1010</ele>
        <time>2017-07-28T08:19:24Z</time>
      </trkpt>
      <trkpt lat="44.0763" lon="7.24988">
        <ele>1008.56</ele>
        <time>2017-07-28T08:19:40Z</time>
      </trkpt>
      <trkpt lat="44.07609" lon="7.24983">
        <ele>1005.2</ele>
        <time>2017-07-28T08:19:59Z</time>
      </trkpt>
      <trkpt lat="44.07608" lon="7.24983">
        <ele>1008.08</ele>
        <time>2017-07-28T08:20:00Z</time>
      </trkpt>
      <trkpt lat="44.07594" lon="7.24977">
        <ele>1005.68</ele>
        <time>2017-07-28T08:20:18Z</time>
      </trkpt>
      <trkpt lat="44.07582" lon="7.24975">
        <ele>1004.23</ele>
        <time>2017-07-28T08:20:29Z</time>
      </trkpt>
      <trkpt lat="44.07564" lon="7.24969">
        <ele>1002.79</ele>
        <time>2017-07-28T08:20:45Z</time>
      </trkpt>
      <trkpt lat="44.07546" lon="7.24964">
        <ele>1000.87</ele>
        <time>2017-07-28T08:21:04Z</time>
      </trkpt>
      <trkpt lat="44.0752" lon="7.2496">
        <ele>999.43</ele>
        <time>2017-07-28T08:21:24Z</time>
      </trkpt>
      <trkpt lat="44.07504" lon="7.2496">
        <ele>997.99</ele>
        <time>2017-07-28T08:21:40Z</time>
      </trkpt>
      <trkpt lat="44.07494" lon="7.24961">
        <ele>996.06</ele>
        <time>2017-07-28T08:21:53Z</time>
      </trkpt>
      <trkpt lat="44.07474" lon="7.24963">
        <ele>994.62</ele>
        <time>2017-07-28T08:22:09Z</time>
      </trkpt>
      <trkpt lat="44.07454" lon="7.2497">
        <ele>992.7</ele>
        <time>2017-07-28T08:22:25Z</time>
      </trkpt>
      <trkpt lat="44.0744" lon="7.24987">
        <ele>991.74</ele>
        <time>2017-07-28T08:22:42Z</time>
      </trkpt>
      <trkpt lat="44.07422" lon="7.24999">
        <ele>989.81</ele>
        <time>2017-07-28T08:23:00Z</time>
      </trkpt>
      <trkpt lat="44.07414" lon="7.25001">
        <ele>989.33</ele>
        <time>2017-07-28T08:23:15Z</time>
      </trkpt>
      <trkpt lat="44.0741" lon="7.25001">
        <ele>989.33</ele>
        <time>2017-07-28T08:23:38Z</time>
      </trkpt>
      <trkpt lat="44.07408" lon="7.25001">
        <ele>989.33</ele>
        <time>2017-07-28T08:23:45Z</time>
      </trkpt>
      <trkpt lat="44.07405" lon="7.25006">
        <ele>988.37</ele>
        <time>2017-07-28T08:23:49Z</time>
      </trkpt>
      <trkpt lat="44.0739" lon="7.25019">
        <ele>986.93</ele>
        <time>2017-07-28T08:24:08Z</time>
      </trkpt>
      <trkpt lat="44.07382" lon="7.25024">
        <ele>986.45</ele>
        <time>2017-07-28T08:24:16Z</time>
      </trkpt>
      <trkpt lat="44.07368" lon="7.25037">
        <ele>984.53</ele>
        <time>2017-07-28T08:24:33Z</time>
      </trkpt>
      <trkpt lat="44.07356" lon="7.25057">
        <ele>982.6</ele>
        <time>2017-07-28T08:24:51Z</time>
      </trkpt>
      <trkpt lat="44.07345" lon="7.25078">
        <ele>981.16</ele>
        <time>2017-07-28T08:25:08Z</time>
      </trkpt>
      <trkpt lat="44.07338" lon="7.25101">
        <ele>979.72</ele>
        <time>2017-07-28T08:25:25Z</time>
      </trkpt>
      <trkpt lat="44.07338" lon="7.25105">
        <ele>979.72</ele>
        <time>2017-07-28T08:25:28Z</time>
      </trkpt>
      <trkpt lat="44.07337" lon="7.25112">
        <ele>979.72</ele>
        <time>2017-07-28T08:25:36Z</time>
      </trkpt>
      <trkpt lat="44.07337" lon="7.25116">
        <ele>979.72</ele>
        <time>2017-07-28T08:25:39Z</time>
      </trkpt>
      <trkpt lat="44.07336" lon="7.2512">
        <ele>979.72</ele>
        <time>2017-07-28T08:25:42Z</time>
      </trkpt>
      <trkpt lat="44.07339" lon="7.25136">
        <ele>979.72</ele>
        <time>2017-07-28T08:25:57Z</time>
      </trkpt>
      <trkpt lat="44.07341" lon="7.25144">
        <ele>979.72</ele>
        <time>2017-07-28T08:26:14Z</time>
      </trkpt>
      <trkpt lat="44.07343" lon="7.25155">
        <ele>980.2</ele>
        <time>2017-07-28T08:26:29Z</time>
      </trkpt>
      <trkpt lat="44.07344" lon="7.25154">
        <ele>979.72</ele>
        <time>2017-07-28T08:26:42Z</time>
      </trkpt>
      <trkpt lat="44.07343" lon="7.2516">
        <ele>979.72</ele>
        <time>2017-07-28T08:26:53Z</time>
      </trkpt>
      <trkpt lat="44.07341" lon="7.25164">
        <ele>979.24</ele>
        <time>2017-07-28T08:26:59Z</time>
      </trkpt>
      <trkpt lat="44.07338" lon="7.2519">
        <ele>979.24</ele>
        <time>2017-07-28T08:27:17Z</time>
      </trkpt>
      <trkpt lat="44.07325" lon="7.25201">
        <ele>979.24</ele>
        <time>2017-07-28T08:27:33Z</time>
      </trkpt>
      <trkpt lat="44.07309" lon="7.25205">
        <ele>978.76</ele>
        <time>2017-07-28T08:27:49Z</time>
      </trkpt>
      <trkpt lat="44.0729" lon="7.25219">
        <ele>978.28</ele>
        <time>2017-07-28T08:28:07Z</time>
      </trkpt>
      <trkpt lat="44.07272" lon="7.25238">
        <ele>977.32</ele>
        <time>2017-07-28T08:28:24Z</time>
      </trkpt>
      <trkpt lat="44.07256" lon="7.2525">
        <ele>977.32</ele>
        <time>2017-07-28T08:28:40Z</time>
      </trkpt>
      <trkpt lat="44.07238" lon="7.25268">
        <ele>976.84</ele>
        <time>2017-07-28T08:28:57Z</time>
      </trkpt>
      <trkpt lat="44.07224" lon="7.25283">
        <ele>976.84</ele>
        <time>2017-07-28T08:29:11Z</time>
      </trkpt>
      <trkpt lat="44.07221" lon="7.25287">
        <ele>976.84</ele>
        <time>2017-07-28T08:29:15Z</time>
      </trkpt>
      <trkpt lat="44.07214" lon="7.25294">
        <ele>976.36</ele>
        <time>2017-07-28T08:29:23Z</time>
      </trkpt>
      <trkpt lat="44.07199" lon="7.25311">
        <ele>976.36</ele>
        <time>2017-07-28T08:29:40Z</time>
      </trkpt>
      <trkpt lat="44.07188" lon="7.25324">
        <ele>975.39</ele>
        <time>2017-07-28T08:29:56Z</time>
      </trkpt>
      <trkpt lat="44.07186" lon="7.25331">
        <ele>975.39</ele>
        <time>2017-07-28T08:30:01Z</time>
      </trkpt>
      <trkpt lat="44.07184" lon="7.25334">
        <ele>977.32</ele>
        <time>2017-07-28T08:30:03Z</time>
      </trkpt>
      <trkpt lat="44.07179" lon="7.25348">
        <ele>975.88</ele>
        <time>2017-07-28T08:30:10Z</time>
      </trkpt>
      <trkpt lat="44.07175" lon="7.25354">
        <ele>975.39</ele>
        <time>2017-07-28T08:30:15Z</time>
      </trkpt>
      <trkpt lat="44.07162" lon="7.2537">
        <ele>974.91</ele>
        <time>2017-07-28T08:30:31Z</time>
      </trkpt>
      <trkpt lat="44.07154" lon="7.25394">
        <ele>974.91</ele>
        <time>2017-07-28T08:30:49Z</time>
      </trkpt>
      <trkpt lat="44.07148" lon="7.25403">
        <ele>974.43</ele>
        <time>2017-07-28T08:31:02Z</time>
      </trkpt>
      <trkpt lat="44.07147" lon="7.25405">
        <ele>978.28</ele>
        <time>2017-07-28T08:31:04Z</time>
      </trkpt>
      <trkpt lat="44.07137" lon="7.2542">
        <ele>974.91</ele>
        <time>2017-07-28T08:31:18Z</time>
      </trkpt>
      <trkpt lat="44.07128" lon="7.25438">
        <ele>974.43</ele>
        <time>2017-07-28T08:31:33Z</time>
      </trkpt>
      <trkpt lat="44.07124" lon="7.25443">
        <ele>973.47</ele>
        <time>2017-07-28T08:31:39Z</time>
      </trkpt>
      <trkpt lat="44.07113" lon="7.25463">
        <ele>972.99</ele>
        <time>2017-07-28T08:31:57Z</time>
      </trkpt>
      <trkpt lat="44.07106" lon="7.25483">
        <ele>972.51</ele>
        <time>2017-07-28T08:32:13Z</time>
      </trkpt>
      <trkpt lat="44.07101" lon="7.25495">
        <ele>971.55</ele>
        <time>2017-07-28T08:32:27Z</time>
      </trkpt>
      <trkpt lat="44.07103" lon="7.25493">
        <ele>971.55</ele>
        <time>2017-07-28T08:32:50Z</time>
      </trkpt>
      <trkpt lat="44.071" lon="7.25493">
        <ele>971.55</ele>
        <time>2017-07-28T08:33:13Z</time>
      </trkpt>
      <trkpt lat="44.07098" lon="7.25499">
        <ele>971.07</ele>
        <time>2017-07-28T08:33:28Z</time>
      </trkpt>
      <trkpt lat="44.07091" lon="7.25509">
        <ele>971.07</ele>
        <time>2017-07-28T08:33:41Z</time>
      </trkpt>
      <trkpt lat="44.07082" lon="7.25519">
        <ele>970.59</ele>
        <time>2017-07-28T08:33:54Z</time>
      </trkpt>
      <trkpt lat="44.07075" lon="7.25535">
        <ele>970.11</ele>
        <time>2017-07-28T08:34:10Z</time>
      </trkpt>
      <trkpt lat="44.0707" lon="7.25543">
        <ele>970.11</ele>
        <time>2017-07-28T08:34:21Z</time>
      </trkpt>
      <trkpt lat="44.07062" lon="7.2556">
        <ele>969.63</ele>
        <time>2017-07-28T08:34:34Z</time>
      </trkpt>
      <trkpt lat="44.07058" lon="7.25569">
        <ele>969.15</ele>
        <time>2017-07-28T08:34:49Z</time>
      </trkpt>
      <trkpt lat="44.0705" lon="7.25581">
        <ele>969.15</ele>
        <time>2017-07-28T08:35:02Z</time>
      </trkpt>
      <trkpt lat="44.0704" lon="7.25592">
        <ele>969.15</ele>
        <time>2017-07-28T08:35:18Z</time>
      </trkpt>
      <trkpt lat="44.07037" lon="7.25601">
        <ele>968.67</ele>
        <time>2017-07-28T08:35:29Z</time>
      </trkpt>
      <trkpt lat="44.07032" lon="7.25612">
        <ele>968.67</ele>
        <time>2017-07-28T08:35:47Z</time>
      </trkpt>
      <trkpt lat="44.07028" lon="7.25621">
        <ele>968.67</ele>
        <time>2017-07-28T08:36:02Z</time>
      </trkpt>
      <trkpt lat="44.07026" lon="7.25625">
        <ele>968.18</ele>
        <time>2017-07-28T08:36:27Z</time>
      </trkpt>
      <trkpt lat="44.0702" lon="7.25627">
        <ele>968.18</ele>
        <time>2017-07-28T08:36:44Z</time>
      </trkpt>
      <trkpt lat="44.07018" lon="7.2563">
        <ele>968.18</ele>
        <time>2017-07-28T08:36:57Z</time>
      </trkpt>
      <trkpt lat="44.07011" lon="7.25622">
        <ele>966.74</ele>
        <time>2017-07-28T08:37:07Z</time>
      </trkpt>
      <trkpt lat="44.06998" lon="7.25615">
        <ele>967.22</ele>
        <time>2017-07-28T08:37:22Z</time>
      </trkpt>
      <trkpt lat="44.06995" lon="7.25612">
        <ele>966.74</ele>
        <time>2017-07-28T08:37:35Z</time>
      </trkpt>
      <trkpt lat="44.06988" lon="7.25603">
        <ele>966.74</ele>
        <time>2017-07-28T08:38:03Z</time>
      </trkpt>
      <trkpt lat="44.0699" lon="7.25599">
        <ele>966.74</ele>
        <time>2017-07-28T08:38:28Z</time>
      </trkpt>
      <trkpt lat="44.06992" lon="7.25603">
        <ele>966.74</ele>
        <time>2017-07-28T08:38:45Z</time>
      </trkpt>
      <trkpt lat="44.06994" lon="7.25601">
        <ele>966.26</ele>
        <time>2017-07-28T08:39:03Z</time>
      </trkpt>
      <trkpt lat="44.06994" lon="7.25602">
        <ele>966.26</ele>
        <time>2017-07-28T08:39:28Z</time>
      </trkpt>
      <trkpt lat="44.06995" lon="7.25608">
        <ele>966.26</ele>
        <time>2017-07-28T08:39:40Z</time>
      </trkpt>
      <trkpt lat="44.06991" lon="7.25612">
        <ele>966.26</ele>
        <time>2017-07-28T08:39:50Z</time>
      </trkpt>
      <trkpt lat="44.06993" lon="7.25611">
        <ele>966.26</ele>
        <time>2017-07-28T08:40:11Z</time>
      </trkpt>
      <trkpt lat="44.06995" lon="7.25614">
        <ele>965.78</ele>
        <time>2017-07-28T08:40:37Z</time>
      </trkpt>
      <trkpt lat="44.06994" lon="7.25616">
        <ele>966.26</ele>
        <time>2017-07-28T08:41:08Z</time>
      </trkpt>
      <trkpt lat="44.06996" lon="7.25623">
        <ele>966.26</ele>
        <time>2017-07-28T08:41:35Z</time>
      </trkpt>
      <trkpt lat="44.06994" lon="7.25627">
        <ele>966.26</ele>
        <time>2017-07-28T08:42:05Z</time>
      </trkpt>
      <trkpt lat="44.06996" lon="7.25631">
        <ele>966.26</ele>
        <time>2017-07-28T08:42:32Z</time>
      </trkpt>
      <trkpt lat="44.06997" lon="7.25633">
        <ele>966.26</ele>
        <time>2017-07-28T08:42:54Z</time>
      </trkpt>
      <trkpt lat="44.06995" lon="7.25632">
        <ele>966.74</ele>
        <time>2017-07-28T08:43:15Z</time>
      </trkpt>
      <trkpt lat="44.06998" lon="7.25611">
        <ele>967.7</ele>
        <time>2017-07-28T08:43:30Z</time>
      </trkpt>
      <trkpt lat="44.07002" lon="7.25612">
        <ele>967.7</ele>
        <time>2017-07-28T08:43:45Z</time>
      </trkpt>
      <trkpt lat="44.07004" lon="7.25616">
        <ele>967.7</ele>
        <time>2017-07-28T08:44:08Z</time>
      </trkpt>
      <trkpt lat="44.07005" lon="7.25626">
        <ele>967.7</ele>
        <time>2017-07-28T08:44:24Z</time>
      </trkpt>
      <trkpt lat="44.07004" lon="7.2563">
        <ele>967.7</ele>
        <time>2017-07-28T08:44:37Z</time>
      </trkpt>
      <trkpt lat="44.07003" lon="7.25631">
        <ele>967.7</ele>
        <time>2017-07-28T08:44:50Z</time>
      </trkpt>
      <trkpt lat="44.07005" lon="7.25633">
        <ele>967.7</ele>
        <time>2017-07-28T08:45:07Z</time>
      </trkpt>
      <trkpt lat="44.07008" lon="7.25642">
        <ele>967.22</ele>
        <time>2017-07-28T08:45:21Z</time>
      </trkpt>
      <trkpt lat="44.0701" lon="7.2565">
        <ele>967.22</ele>
        <time>2017-07-28T08:45:35Z</time>
      </trkpt>
      <trkpt lat="44.07008" lon="7.25658">
        <ele>967.22</ele>
        <time>2017-07-28T08:46:00Z</time>
      </trkpt>
      <trkpt lat="44.06998" lon="7.25661">
        <ele>967.22</ele>
        <time>2017-07-28T08:46:15Z</time>
      </trkpt>
      <trkpt lat="44.06987" lon="7.25669">
        <ele>967.22</ele>
        <time>2017-07-28T08:46:29Z</time>
      </trkpt>
      <trkpt lat="44.06982" lon="7.25678">
        <ele>968.18</ele>
        <time>2017-07-28T08:46:43Z</time>
      </trkpt>
      <trkpt lat="44.06981" lon="7.25684">
        <ele>968.18</ele>
        <time>2017-07-28T08:46:56Z</time>
      </trkpt>
      <trkpt lat="44.06981" lon="7.25685">
        <ele>968.18</ele>
        <time>2017-07-28T08:47:15Z</time>
      </trkpt>
      <trkpt lat="44.06983" lon="7.25685">
        <ele>968.18</ele>
        <time>2017-07-28T08:47:39Z</time>
      </trkpt>
      <trkpt lat="44.06982" lon="7.25685">
        <ele>968.18</ele>
        <time>2017-07-28T08:47:40Z</time>
      </trkpt>
      <trkpt lat="44.06981" lon="7.25685">
        <ele>969.15</ele>
        <time>2017-07-28T08:48:00Z</time>
      </trkpt>
      <trkpt lat="44.0698" lon="7.25686">
        <ele>967.7</ele>
        <time>2017-07-28T08:48:21Z</time>
      </trkpt>
      <trkpt lat="44.06979" lon="7.25685">
        <ele>967.7</ele>
        <time>2017-07-28T08:48:41Z</time>
      </trkpt>
      <trkpt lat="44.06982" lon="7.25686">
        <ele>967.7</ele>
        <time>2017-07-28T08:48:58Z</time>
      </trkpt>
      <trkpt lat="44.06983" lon="7.25684">
        <ele>968.18</ele>
        <time>2017-07-28T08:49:22Z</time>
      </trkpt>
      <trkpt lat="44.0698" lon="7.25688">
        <ele>968.18</ele>
        <time>2017-07-28T08:49:39Z</time>
      </trkpt>
      <trkpt lat="44.06983" lon="7.25691">
        <ele>968.18</ele>
        <time>2017-07-28T08:49:52Z</time>
      </trkpt>
      <trkpt lat="44.06985" lon="7.25694">
        <ele>971.07</ele>
        <time>2017-07-28T08:50:03Z</time>
      </trkpt>
      <trkpt lat="44.06988" lon="7.25694">
        <ele>965.78</ele>
        <time>2017-07-28T08:50:10Z</time>
      </trkpt>
      <trkpt lat="44.06988" lon="7.25694">
        <ele>974.43</ele>
        <time>2017-07-28T08:50:11Z</time>
      </trkpt>
      <trkpt lat="44.06989" lon="7.25695">
        <ele>970.11</ele>
        <time>2017-07-28T08:50:12Z</time>
      </trkpt>
      <trkpt lat="44.06993" lon="7.25699">
        <ele>971.55</ele>
        <time>2017-07-28T08:50:25Z</time>
      </trkpt>
      <trkpt lat="44.07004" lon="7.25705">
        <ele>972.99</ele>
        <time>2017-07-28T08:50:42Z</time>
      </trkpt>
      <trkpt lat="44.07004" lon="7.25706">
        <ele>973.47</ele>
        <time>2017-07-28T08:51:05Z</time>
      </trkpt>
      <trkpt lat="44.07009" lon="7.25711">
        <ele>973.95</ele>
        <time>2017-07-28T08:51:32Z</time>
      </trkpt>
      <trkpt lat="44.07026" lon="7.25714">
        <ele>976.36</ele>
        <time>2017-07-28T08:51:50Z</time>
      </trkpt>
      <trkpt lat="44.07035" lon="7.25716">
        <ele>976.84</ele>
        <time>2017-07-28T08:52:05Z</time>
      </trkpt>
      <trkpt lat="44.07037" lon="7.25713">
        <ele>977.32</ele>
        <time>2017-07-28T08:52:36Z</time>
      </trkpt>
      <trkpt lat="44.07047" lon="7.25714">
        <ele>977.8</ele>
        <time>2017-07-28T08:52:54Z</time>
      </trkpt>
      <trkpt lat="44.07054" lon="7.25715">
        <ele>978.76</ele>
        <time>2017-07-28T08:53:16Z</time>
      </trkpt>
      <trkpt lat="44.07062" lon="7.25713">
        <ele>979.72</ele>
        <time>2017-07-28T08:53:28Z</time>
      </trkpt>
      <trkpt lat="44.07068" lon="7.25715">
        <ele>980.2</ele>
        <time>2017-07-28T08:53:39Z</time>
      </trkpt>
      <trkpt lat="44.07085" lon="7.25711">
        <ele>982.12</ele>
        <time>2017-07-28T08:53:58Z</time>
      </trkpt>
      <trkpt lat="44.07096" lon="7.25705">
        <ele>984.05</ele>
        <time>2017-07-28T08:54:11Z</time>
      </trkpt>
      <trkpt lat="44.07107" lon="7.257">
        <ele>985.01</ele>
        <time>2017-07-28T08:54:25Z</time>
      </trkpt>
      <trkpt lat="44.07118" lon="7.25707">
        <ele>986.45</ele>
        <time>2017-07-28T08:54:43Z</time>
      </trkpt>
      <trkpt lat="44.07125" lon="7.25714">
        <ele>986.45</ele>
        <time>2017-07-28T08:54:58Z</time>
      </trkpt>
      <trkpt lat="44.07128" lon="7.25722">
        <ele>987.41</ele>
        <time>2017-07-28T08:55:07Z</time>
      </trkpt>
      <trkpt lat="44.07132" lon="7.25741">
        <ele>988.85</ele>
        <time>2017-07-28T08:55:22Z</time>
      </trkpt>
      <trkpt lat="44.07128" lon="7.25751">
        <ele>988.85</ele>
        <time>2017-07-28T08:55:33Z</time>
      </trkpt>
      <trkpt lat="44.07123" lon="7.25759">
        <ele>987.41</ele>
        <time>2017-07-28T08:55:46Z</time>
      </trkpt>
      <trkpt lat="44.07116" lon="7.25776">
        <ele>986.93</ele>
        <time>2017-07-28T08:56:03Z</time>
      </trkpt>
      <trkpt lat="44.07112" lon="7.25785">
        <ele>986.45</ele>
        <time>2017-07-28T08:56:16Z</time>
      </trkpt>
      <trkpt lat="44.07111" lon="7.258">
        <ele>985.49</ele>
        <time>2017-07-28T08:56:29Z</time>
      </trkpt>
      <trkpt lat="44.0711" lon="7.25823">
        <ele>984.05</ele>
        <time>2017-07-28T08:56:46Z</time>
      </trkpt>
      <trkpt lat="44.07111" lon="7.2584">
        <ele>983.09</ele>
        <time>2017-07-28T08:56:59Z</time>
      </trkpt>
      <trkpt lat="44.0711" lon="7.25843">
        <ele>984.53</ele>
        <time>2017-07-28T08:57:01Z</time>
      </trkpt>
      <trkpt lat="44.07113" lon="7.2586">
        <ele>982.6</ele>
        <time>2017-07-28T08:57:15Z</time>
      </trkpt>
      <trkpt lat="44.07114" lon="7.25864">
        <ele>982.12</ele>
        <time>2017-07-28T08:57:19Z</time>
      </trkpt>
      <trkpt lat="44.07115" lon="7.25873">
        <ele>981.64</ele>
        <time>2017-07-28T08:57:26Z</time>
      </trkpt>
      <trkpt lat="44.07121" lon="7.25891">
        <ele>980.2</ele>
        <time>2017-07-28T08:57:42Z</time>
      </trkpt>
      <trkpt lat="44.07122" lon="7.25899">
        <ele>979.24</ele>
        <time>2017-07-28T08:57:49Z</time>
      </trkpt>
      <trkpt lat="44.07126" lon="7.25911">
        <ele>978.76</ele>
        <time>2017-07-28T08:58:03Z</time>
      </trkpt>
      <trkpt lat="44.07127" lon="7.25916">
        <ele>977.8</ele>
        <time>2017-07-28T08:58:09Z</time>
      </trkpt>
      <trkpt lat="44.07128" lon="7.25918">
        <ele>979.72</ele>
        <time>2017-07-28T08:58:11Z</time>
      </trkpt>
      <trkpt lat="44.07128" lon="7.25923">
        <ele>977.32</ele>
        <time>2017-07-28T08:58:13Z</time>
      </trkpt>
      <trkpt lat="44.07134" lon="7.25943">
        <ele>976.36</ele>
        <time>2017-07-28T08:58:29Z</time>
      </trkpt>
      <trkpt lat="44.07139" lon="7.25948">
        <ele>975.88</ele>
        <time>2017-07-28T08:58:44Z</time>
      </trkpt>
      <trkpt lat="44.07138" lon="7.25946">
        <ele>974.91</ele>
        <time>2017-07-28T08:59:08Z</time>
      </trkpt>
      <trkpt lat="44.07135" lon="7.2596">
        <ele>975.39</ele>
        <time>2017-07-28T08:59:40Z</time>
      </trkpt>
      <trkpt lat="44.07131" lon="7.25973">
        <ele>975.39</ele>
        <time>2017-07-28T08:59:54Z</time>
      </trkpt>
      <trkpt lat="44.07131" lon="7.25974">
        <ele>975.39</ele>
        <time>2017-07-28T08:59:55Z</time>
      </trkpt>
      <trkpt lat="44.07119" lon="7.25988">
        <ele>975.39</ele>
        <time>2017-07-28T09:00:10Z</time>
      </trkpt>
      <trkpt lat="44.07112" lon="7.2599">
        <ele>976.84</ele>
        <time>2017-07-28T09:00:18Z</time>
      </trkpt>
      <trkpt lat="44.0711" lon="7.25991">
        <ele>976.84</ele>
        <time>2017-07-28T09:00:20Z</time>
      </trkpt>
      <trkpt lat="44.07099" lon="7.25994">
        <ele>977.32</ele>
        <time>2017-07-28T09:00:33Z</time>
      </trkpt>
      <trkpt lat="44.07098" lon="7.25994">
        <ele>977.32</ele>
        <time>2017-07-28T09:00:50Z</time>
      </trkpt>
      <trkpt lat="44.07087" lon="7.25981">
        <ele>978.28</ele>
        <time>2017-07-28T09:01:05Z</time>
      </trkpt>
      <trkpt lat="44.07077" lon="7.2597">
        <ele>978.28</ele>
        <time>2017-07-28T09:01:19Z</time>
      </trkpt>
      <trkpt lat="44.07066" lon="7.25957">
        <ele>978.76</ele>
        <time>2017-07-28T09:01:31Z</time>
      </trkpt>
      <trkpt lat="44.07049" lon="7.25946">
        <ele>979.24</ele>
        <time>2017-07-28T09:01:46Z</time>
      </trkpt>
      <trkpt lat="44.07046" lon="7.25942">
        <ele>979.24</ele>
        <time>2017-07-28T09:01:49Z</time>
      </trkpt>
      <trkpt lat="44.07042" lon="7.25937">
        <ele>979.72</ele>
        <time>2017-07-28T09:01:53Z</time>
      </trkpt>
      <trkpt lat="44.07034" lon="7.25928">
        <ele>979.72</ele>
        <time>2017-07-28T09:02:03Z</time>
      </trkpt>
      <trkpt lat="44.07017" lon="7.25924">
        <ele>981.64</ele>
        <time>2017-07-28T09:02:18Z</time>
      </trkpt>
      <trkpt lat="44.07002" lon="7.25926">
        <ele>982.12</ele>
        <time>2017-07-28T09:02:33Z</time>
      </trkpt>
      <trkpt lat="44.06983" lon="7.25931">
        <ele>983.09</ele>
        <time>2017-07-28T09:02:50Z</time>
      </trkpt>
      <trkpt lat="44.06973" lon="7.25922">
        <ele>983.57</ele>
        <time>2017-07-28T09:03:03Z</time>
      </trkpt>
      <trkpt lat="44.06962" lon="7.25916">
        <ele>984.53</ele>
        <time>2017-07-28T09:03:16Z</time>
      </trkpt>
      <trkpt lat="44.06943" lon="7.25914">
        <ele>984.53</ele>
        <time>2017-07-28T09:03:34Z</time>
      </trkpt>
      <trkpt lat="44.06927" lon="7.25909">
        <ele>985.01</ele>
        <time>2017-07-28T09:03:48Z</time>
      </trkpt>
      <trkpt lat="44.06904" lon="7.25902">
        <ele>985.49</ele>
        <time>2017-07-28T09:04:07Z</time>
      </trkpt>
      <trkpt lat="44.06889" lon="7.25902">
        <ele>985.97</ele>
        <time>2017-07-28T09:04:23Z</time>
      </trkpt>
      <trkpt lat="44.0687" lon="7.25909">
        <ele>986.45</ele>
        <time>2017-07-28T09:04:40Z</time>
      </trkpt>
      <trkpt lat="44.06853" lon="7.2591">
        <ele>986.93</ele>
        <time>2017-07-28T09:04:56Z</time>
      </trkpt>
      <trkpt lat="44.06841" lon="7.25912">
        <ele>986.93</ele>
        <time>2017-07-28T09:05:09Z</time>
      </trkpt>
      <trkpt lat="44.06826" lon="7.25915">
        <ele>987.89</ele>
        <time>2017-07-28T09:05:24Z</time>
      </trkpt>
      <trkpt lat="44.06808" lon="7.25918">
        <ele>987.89</ele>
        <time>2017-07-28T09:05:39Z</time>
      </trkpt>
      <trkpt lat="44.06796" lon="7.25924">
        <ele>988.37</ele>
        <time>2017-07-28T09:05:52Z</time>
      </trkpt>
      <trkpt lat="44.06788" lon="7.25941">
        <ele>989.33</ele>
        <time>2017-07-28T09:06:08Z</time>
      </trkpt>
      <trkpt lat="44.06775" lon="7.25957">
        <ele>989.81</ele>
        <time>2017-07-28T09:06:23Z</time>
      </trkpt>
      <trkpt lat="44.06767" lon="7.25951">
        <ele>990.78</ele>
        <time>2017-07-28T09:06:36Z</time>
      </trkpt>
      <trkpt lat="44.0675" lon="7.25941">
        <ele>990.78</ele>
        <time>2017-07-28T09:06:52Z</time>
      </trkpt>
      <trkpt lat="44.06734" lon="7.25938">
        <ele>992.22</ele>
        <time>2017-07-28T09:07:08Z</time>
      </trkpt>
      <trkpt lat="44.06726" lon="7.25936">
        <ele>988.85</ele>
        <time>2017-07-28T09:07:20Z</time>
      </trkpt>
      <trkpt lat="44.06725" lon="7.25936">
        <ele>993.66</ele>
        <time>2017-07-28T09:07:21Z</time>
      </trkpt>
      <trkpt lat="44.06708" lon="7.25935">
        <ele>991.74</ele>
        <time>2017-07-28T09:07:35Z</time>
      </trkpt>
      <trkpt lat="44.06694" lon="7.25936">
        <ele>991.74</ele>
        <time>2017-07-28T09:07:48Z</time>
      </trkpt>
      <trkpt lat="44.06681" lon="7.25934">
        <ele>993.18</ele>
        <time>2017-07-28T09:08:00Z</time>
      </trkpt>
      <trkpt lat="44.06665" lon="7.25934">
        <ele>993.66</ele>
        <time>2017-07-28T09:08:15Z</time>
      </trkpt>
      <trkpt lat="44.0665" lon="7.25936">
        <ele>994.14</ele>
        <time>2017-07-28T09:08:29Z</time>
      </trkpt>
      <trkpt lat="44.06632" lon="7.25937">
        <ele>994.14</ele>
        <time>2017-07-28T09:08:45Z</time>
      </trkpt>
      <trkpt lat="44.06613" lon="7.25938">
        <ele>993.66</ele>
        <time>2017-07-28T09:09:01Z</time>
      </trkpt>
      <trkpt lat="44.06591" lon="7.25936">
        <ele>993.66</ele>
        <time>2017-07-28T09:09:19Z</time>
      </trkpt>
      <trkpt lat="44.06588" lon="7.25936">
        <ele>993.66</ele>
        <time>2017-07-28T09:09:22Z</time>
      </trkpt>
      <trkpt lat="44.0657" lon="7.25939">
        <ele>994.14</ele>
        <time>2017-07-28T09:09:38Z</time>
      </trkpt>
      <trkpt lat="44.06569" lon="7.25939">
        <ele>994.14</ele>
        <time>2017-07-28T09:09:39Z</time>
      </trkpt>
      <trkpt lat="44.06564" lon="7.25941">
        <ele>994.14</ele>
        <time>2017-07-28T09:09:44Z</time>
      </trkpt>
      <trkpt lat="44.06548" lon="7.25945">
        <ele>994.14</ele>
        <time>2017-07-28T09:10:00Z</time>
      </trkpt>
      <trkpt lat="44.06536" lon="7.25947">
        <ele>994.14</ele>
        <time>2017-07-28T09:10:13Z</time>
      </trkpt>
      <trkpt lat="44.06518" lon="7.25946">
        <ele>994.62</ele>
        <time>2017-07-28T09:10:29Z</time>
      </trkpt>
      <trkpt lat="44.06504" lon="7.25948">
        <ele>994.62</ele>
        <time>2017-07-28T09:10:43Z</time>
      </trkpt>
      <trkpt lat="44.06489" lon="7.25948">
        <ele>995.1</ele>
        <time>2017-07-28T09:10:57Z</time>
      </trkpt>
      <trkpt lat="44.06473" lon="7.25949">
        <ele>995.58</ele>
        <time>2017-07-28T09:11:11Z</time>
      </trkpt>
      <trkpt lat="44.06456" lon="7.25952">
        <ele>996.06</ele>
        <time>2017-07-28T09:11:27Z</time>
      </trkpt>
      <trkpt lat="44.06451" lon="7.25953">
        <ele>996.06</ele>
        <time>2017-07-28T09:11:40Z</time>
      </trkpt>
      <trkpt lat="44.06442" lon="7.25956">
        <ele>996.06</ele>
        <time>2017-07-28T09:11:53Z</time>
      </trkpt>
      <trkpt lat="44.06428" lon="7.25962">
        <ele>996.06</ele>
        <time>2017-07-28T09:12:07Z</time>
      </trkpt>
      <trkpt lat="44.06422" lon="7.25962">
        <ele>996.54</ele>
        <time>2017-07-28T09:12:14Z</time>
      </trkpt>
      <trkpt lat="44.06419" lon="7.25965">
        <ele>996.54</ele>
        <time>2017-07-28T09:12:17Z</time>
      </trkpt>
      <trkpt lat="44.06404" lon="7.25967">
        <ele>996.54</ele>
        <time>2017-07-28T09:12:31Z</time>
      </trkpt>
      <trkpt lat="44.06394" lon="7.25968">
        <ele>996.54</ele>
        <time>2017-07-28T09:12:41Z</time>
      </trkpt>
      <trkpt lat="44.0639" lon="7.25969">
        <ele>996.54</ele>
        <time>2017-07-28T09:12:46Z</time>
      </trkpt>
      <trkpt lat="44.06374" lon="7.25974">
        <ele>997.02</ele>
        <time>2017-07-28T09:13:00Z</time>
      </trkpt>
      <trkpt lat="44.0636" lon="7.25976">
        <ele>996.54</ele>
        <time>2017-07-28T09:13:14Z</time>
      </trkpt>
      <trkpt lat="44.06343" lon="7.25985">
        <ele>997.02</ele>
        <time>2017-07-28T09:13:30Z</time>
      </trkpt>
      <trkpt lat="44.06334" lon="7.25991">
        <ele>997.02</ele>
        <time>2017-07-28T09:13:40Z</time>
      </trkpt>
      <trkpt lat="44.0632" lon="7.26003">
        <ele>997.02</ele>
        <time>2017-07-28T09:13:58Z</time>
      </trkpt>
      <trkpt lat="44.06318" lon="7.26004">
        <ele>997.02</ele>
        <time>2017-07-28T09:14:25Z</time>
      </trkpt>
      <trkpt lat="44.06317" lon="7.26004">
        <ele>997.02</ele>
        <time>2017-07-28T09:14:54Z</time>
      </trkpt>
      <trkpt lat="44.06313" lon="7.26002">
        <ele>997.02</ele>
        <time>2017-07-28T09:15:21Z</time>
      </trkpt>
      <trkpt lat="44.06314" lon="7.25998">
        <ele>997.02</ele>
        <time>2017-07-28T09:15:43Z</time>
      </trkpt>
      <trkpt lat="44.06314" lon="7.25998">
        <ele>997.02</ele>
        <time>2017-07-28T09:16:10Z</time>
      </trkpt>
      <trkpt lat="44.06314" lon="7.25999">
        <ele>997.51</ele>
        <time>2017-07-28T09:16:38Z</time>
      </trkpt>
      <trkpt lat="44.06313" lon="7.25999">
        <ele>997.51</ele>
        <time>2017-07-28T09:17:01Z</time>
      </trkpt>
      <trkpt lat="44.06312" lon="7.25999">
        <ele>997.51</ele>
        <time>2017-07-28T09:17:27Z</time>
      </trkpt>
      <trkpt lat="44.06312" lon="7.25997">
        <ele>997.51</ele>
        <time>2017-07-28T09:17:50Z</time>
      </trkpt>
      <trkpt lat="44.0631" lon="7.26005">
        <ele>997.51</ele>
        <time>2017-07-28T09:18:06Z</time>
      </trkpt>
      <trkpt lat="44.06305" lon="7.26011">
        <ele>997.51</ele>
        <time>2017-07-28T09:18:16Z</time>
      </trkpt>
      <trkpt lat="44.06296" lon="7.26023">
        <ele>998.47</ele>
        <time>2017-07-28T09:18:31Z</time>
      </trkpt>
      <trkpt lat="44.06295" lon="7.26027">
        <ele>998.47</ele>
        <time>2017-07-28T09:18:45Z</time>
      </trkpt>
      <trkpt lat="44.06295" lon="7.2603">
        <ele>998.47</ele>
        <time>2017-07-28T09:19:14Z</time>
      </trkpt>
      <trkpt lat="44.06296" lon="7.26025">
        <ele>998.47</ele>
        <time>2017-07-28T09:19:41Z</time>
      </trkpt>
      <trkpt lat="44.06294" lon="7.2603">
        <ele>998.47</ele>
        <time>2017-07-28T09:20:06Z</time>
      </trkpt>
      <trkpt lat="44.06293" lon="7.26024">
        <ele>998.47</ele>
        <time>2017-07-28T09:20:31Z</time>
      </trkpt>
      <trkpt lat="44.06293" lon="7.26024">
        <ele>998.47</ele>
        <time>2017-07-28T09:20:59Z</time>
      </trkpt>
      <trkpt lat="44.06294" lon="7.26021">
        <ele>998.47</ele>
        <time>2017-07-28T09:21:25Z</time>
      </trkpt>
      <trkpt lat="44.06291" lon="7.26025">
        <ele>998.47</ele>
        <time>2017-07-28T09:21:42Z</time>
      </trkpt>
      <trkpt lat="44.06293" lon="7.26027">
        <ele>998.47</ele>
        <time>2017-07-28T09:22:08Z</time>
      </trkpt>
      <trkpt lat="44.06296" lon="7.26026">
        <ele>998.47</ele>
        <time>2017-07-28T09:22:38Z</time>
      </trkpt>
      <trkpt lat="44.06296" lon="7.26025">
        <ele>998.47</ele>
        <time>2017-07-28T09:22:56Z</time>
      </trkpt>
      <trkpt lat="44.06291" lon="7.26026">
        <ele>998.47</ele>
        <time>2017-07-28T09:23:18Z</time>
      </trkpt>
      <trkpt lat="44.06282" lon="7.26035">
        <ele>998.95</ele>
        <time>2017-07-28T09:23:33Z</time>
      </trkpt>
      <trkpt lat="44.06276" lon="7.26054">
        <ele>999.43</ele>
        <time>2017-07-28T09:23:48Z</time>
      </trkpt>
      <trkpt lat="44.06281" lon="7.26063">
        <ele>999.43</ele>
        <time>2017-07-28T09:24:00Z</time>
      </trkpt>
      <trkpt lat="44.06289" lon="7.26074">
        <ele>997.99</ele>
        <time>2017-07-28T09:24:11Z</time>
      </trkpt>
      <trkpt lat="44.0629" lon="7.26076">
        <ele>997.99</ele>
        <time>2017-07-28T09:24:13Z</time>
      </trkpt>
      <trkpt lat="44.06293" lon="7.26084">
        <ele>997.51</ele>
        <time>2017-07-28T09:24:19Z</time>
      </trkpt>
      <trkpt lat="44.06302" lon="7.26108">
        <ele>997.02</ele>
        <time>2017-07-28T09:24:33Z</time>
      </trkpt>
      <trkpt lat="44.06303" lon="7.26126">
        <ele>996.06</ele>
        <time>2017-07-28T09:24:47Z</time>
      </trkpt>
      <trkpt lat="44.06307" lon="7.26145">
        <ele>995.1</ele>
        <time>2017-07-28T09:25:00Z</time>
      </trkpt>
      <trkpt lat="44.06308" lon="7.26165">
        <ele>994.14</ele>
        <time>2017-07-28T09:25:17Z</time>
      </trkpt>
      <trkpt lat="44.06296" lon="7.26174">
        <ele>993.66</ele>
        <time>2017-07-28T09:25:31Z</time>
      </trkpt>
      <trkpt lat="44.06279" lon="7.26179">
        <ele>993.18</ele>
        <time>2017-07-28T09:25:44Z</time>
      </trkpt>
      <trkpt lat="44.06259" lon="7.26175">
        <ele>993.18</ele>
        <time>2017-07-28T09:25:58Z</time>
      </trkpt>
      <trkpt lat="44.06248" lon="7.26175">
        <ele>993.18</ele>
        <time>2017-07-28T09:26:06Z</time>
      </trkpt>
      <trkpt lat="44.06229" lon="7.26172">
        <ele>993.18</ele>
        <time>2017-07-28T09:26:23Z</time>
      </trkpt>
      <trkpt lat="44.06214" lon="7.26168">
        <ele>993.18</ele>
        <time>2017-07-28T09:26:36Z</time>
      </trkpt>
      <trkpt lat="44.062" lon="7.26158">
        <ele>993.18</ele>
        <time>2017-07-28T09:26:49Z</time>
      </trkpt>
      <trkpt lat="44.06187" lon="7.26149">
        <ele>992.7</ele>
        <time>2017-07-28T09:27:04Z</time>
      </trkpt>
      <trkpt lat="44.06171" lon="7.26151">
        <ele>992.7</ele>
        <time>2017-07-28T09:27:20Z</time>
      </trkpt>
      <trkpt lat="44.06155" lon="7.2615">
        <ele>993.66</ele>
        <time>2017-07-28T09:27:35Z</time>
      </trkpt>
      <trkpt lat="44.06142" lon="7.26145">
        <ele>994.14</ele>
        <time>2017-07-28T09:27:49Z</time>
      </trkpt>
      <trkpt lat="44.06135" lon="7.26149">
        <ele>993.18</ele>
        <time>2017-07-28T09:28:03Z</time>
      </trkpt>
      <trkpt lat="44.06122" lon="7.26162">
        <ele>993.18</ele>
        <time>2017-07-28T09:28:20Z</time>
      </trkpt>
      <trkpt lat="44.06114" lon="7.26166">
        <ele>993.18</ele>
        <time>2017-07-28T09:28:32Z</time>
      </trkpt>
      <trkpt lat="44.06104" lon="7.26182">
        <ele>992.22</ele>
        <time>2017-07-28T09:28:48Z</time>
      </trkpt>
      <trkpt lat="44.06094" lon="7.26194">
        <ele>992.22</ele>
        <time>2017-07-28T09:29:03Z</time>
      </trkpt>
      <trkpt lat="44.06082" lon="7.26213">
        <ele>991.74</ele>
        <time>2017-07-28T09:29:21Z</time>
      </trkpt>
      <trkpt lat="44.0608" lon="7.26216">
        <ele>993.18</ele>
        <time>2017-07-28T09:29:25Z</time>
      </trkpt>
      <trkpt lat="44.06069" lon="7.26225">
        <ele>993.18</ele>
        <time>2017-07-28T09:29:39Z</time>
      </trkpt>
      <trkpt lat="44.06055" lon="7.26242">
        <ele>993.18</ele>
        <time>2017-07-28T09:29:55Z</time>
      </trkpt>
      <trkpt lat="44.06042" lon="7.26256">
        <ele>994.14</ele>
        <time>2017-07-28T09:30:10Z</time>
      </trkpt>
      <trkpt lat="44.06028" lon="7.26272">
        <ele>994.62</ele>
        <time>2017-07-28T09:30:26Z</time>
      </trkpt>
      <trkpt lat="44.06017" lon="7.26282">
        <ele>995.58</ele>
        <time>2017-07-28T09:30:44Z</time>
      </trkpt>
      <trkpt lat="44.06007" lon="7.26298">
        <ele>996.54</ele>
        <time>2017-07-28T09:31:00Z</time>
      </trkpt>
      <trkpt lat="44.05998" lon="7.26315">
        <ele>997.51</ele>
        <time>2017-07-28T09:31:16Z</time>
      </trkpt>
      <trkpt lat="44.05993" lon="7.26333">
        <ele>998.47</ele>
        <time>2017-07-28T09:31:30Z</time>
      </trkpt>
      <trkpt lat="44.05975" lon="7.26343">
        <ele>998.95</ele>
        <time>2017-07-28T09:31:49Z</time>
      </trkpt>
      <trkpt lat="44.05962" lon="7.26346">
        <ele>999.43</ele>
        <time>2017-07-28T09:32:03Z</time>
      </trkpt>
      <trkpt lat="44.05954" lon="7.26364">
        <ele>1000.39</ele>
        <time>2017-07-28T09:32:19Z</time>
      </trkpt>
      <trkpt lat="44.05939" lon="7.26375">
        <ele>1000.87</ele>
        <time>2017-07-28T09:32:35Z</time>
      </trkpt>
      <trkpt lat="44.05925" lon="7.26386">
        <ele>1001.83</ele>
        <time>2017-07-28T09:32:50Z</time>
      </trkpt>
      <trkpt lat="44.05911" lon="7.26402">
        <ele>1002.79</ele>
        <time>2017-07-28T09:33:07Z</time>
      </trkpt>
      <trkpt lat="44.05898" lon="7.26414">
        <ele>1003.27</ele>
        <time>2017-07-28T09:33:21Z</time>
      </trkpt>
      <trkpt lat="44.05885" lon="7.2643">
        <ele>1004.23</ele>
        <time>2017-07-28T09:33:39Z</time>
      </trkpt>
      <trkpt lat="44.05883" lon="7.26437">
        <ele>1004.23</ele>
        <time>2017-07-28T09:33:44Z</time>
      </trkpt>
      <trkpt lat="44.05882" lon="7.26444">
        <ele>1005.2</ele>
        <time>2017-07-28T09:33:49Z</time>
      </trkpt>
      <trkpt lat="44.05884" lon="7.26463">
        <ele>1005.68</ele>
        <time>2017-07-28T09:34:05Z</time>
      </trkpt>
      <trkpt lat="44.05888" lon="7.26481">
        <ele>1006.64</ele>
        <time>2017-07-28T09:34:19Z</time>
      </trkpt>
      <trkpt lat="44.05898" lon="7.26504">
        <ele>1007.12</ele>
        <time>2017-07-28T09:34:35Z</time>
      </trkpt>
      <trkpt lat="44.05902" lon="7.26522">
        <ele>1008.08</ele>
        <time>2017-07-28T09:34:52Z</time>
      </trkpt>
      <trkpt lat="44.05896" lon="7.26532">
        <ele>1008.56</ele>
        <time>2017-07-28T09:34:58Z</time>
      </trkpt>
      <trkpt lat="44.05886" lon="7.26537">
        <ele>1008.56</ele>
        <time>2017-07-28T09:35:06Z</time>
      </trkpt>
      <trkpt lat="44.05867" lon="7.26534">
        <ele>1009.04</ele>
        <time>2017-07-28T09:35:22Z</time>
      </trkpt>
      <trkpt lat="44.05851" lon="7.26533">
        <ele>1009.52</ele>
        <time>2017-07-28T09:35:37Z</time>
      </trkpt>
      <trkpt lat="44.05834" lon="7.26537">
        <ele>1010.48</ele>
        <time>2017-07-28T09:35:53Z</time>
      </trkpt>
      <trkpt lat="44.0582" lon="7.26542">
        <ele>1010.96</ele>
        <time>2017-07-28T09:36:07Z</time>
      </trkpt>
      <trkpt lat="44.05808" lon="7.26546">
        <ele>1011.93</ele>
        <time>2017-07-28T09:36:20Z</time>
      </trkpt>
      <trkpt lat="44.05791" lon="7.26551">
        <ele>1012.89</ele>
        <time>2017-07-28T09:36:34Z</time>
      </trkpt>
      <trkpt lat="44.05779" lon="7.26558">
        <ele>1013.37</ele>
        <time>2017-07-28T09:36:47Z</time>
      </trkpt>
      <trkpt lat="44.05765" lon="7.26573">
        <ele>1013.37</ele>
        <time>2017-07-28T09:37:04Z</time>
      </trkpt>
      <trkpt lat="44.05756" lon="7.26596">
        <ele>1013.85</ele>
        <time>2017-07-28T09:37:19Z</time>
      </trkpt>
      <trkpt lat="44.05755" lon="7.26607">
        <ele>1014.33</ele>
        <time>2017-07-28T09:37:26Z</time>
      </trkpt>
      <trkpt lat="44.05756" lon="7.26612">
        <ele>1014.33</ele>
        <time>2017-07-28T09:37:29Z</time>
      </trkpt>
      <trkpt lat="44.05756" lon="7.26624">
        <ele>1015.29</ele>
        <time>2017-07-28T09:37:43Z</time>
      </trkpt>
      <trkpt lat="44.05753" lon="7.26623">
        <ele>1015.77</ele>
        <time>2017-07-28T09:37:58Z</time>
      </trkpt>
      <trkpt lat="44.05753" lon="7.26625">
        <ele>1015.77</ele>
        <time>2017-07-28T09:38:15Z</time>
      </trkpt>
      <trkpt lat="44.05755" lon="7.26628">
        <ele>1015.77</ele>
        <time>2017-07-28T09:38:47Z</time>
      </trkpt>
      <trkpt lat="44.05756" lon="7.26628">
        <ele>1015.77</ele>
        <time>2017-07-28T09:38:48Z</time>
      </trkpt>
      <trkpt lat="44.05768" lon="7.26645">
        <ele>1015.77</ele>
        <time>2017-07-28T09:39:05Z</time>
      </trkpt>
      <trkpt lat="44.05782" lon="7.2666">
        <ele>1015.77</ele>
        <time>2017-07-28T09:39:21Z</time>
      </trkpt>
      <trkpt lat="44.05794" lon="7.26673">
        <ele>1015.77</ele>
        <time>2017-07-28T09:39:35Z</time>
      </trkpt>
      <trkpt lat="44.058" lon="7.2669">
        <ele>1015.77</ele>
        <time>2017-07-28T09:39:47Z</time>
      </trkpt>
      <trkpt lat="44.05804" lon="7.2671">
        <ele>1017.21</ele>
        <time>2017-07-28T09:40:01Z</time>
      </trkpt>
      <trkpt lat="44.05813" lon="7.26723">
        <ele>1018.17</ele>
        <time>2017-07-28T09:40:16Z</time>
      </trkpt>
      <trkpt lat="44.05817" lon="7.26743">
        <ele>1017.69</ele>
        <time>2017-07-28T09:40:31Z</time>
      </trkpt>
      <trkpt lat="44.05823" lon="7.26767">
        <ele>1018.17</ele>
        <time>2017-07-28T09:40:47Z</time>
      </trkpt>
      <trkpt lat="44.05827" lon="7.26785">
        <ele>1018.65</ele>
        <time>2017-07-28T09:40:59Z</time>
      </trkpt>
      <trkpt lat="44.05828" lon="7.2679">
        <ele>1019.62</ele>
        <time>2017-07-28T09:41:03Z</time>
      </trkpt>
      <trkpt lat="44.0583" lon="7.26802">
        <ele>1020.1</ele>
        <time>2017-07-28T09:41:12Z</time>
      </trkpt>
      <trkpt lat="44.05835" lon="7.26823">
        <ele>1020.58</ele>
        <time>2017-07-28T09:41:27Z</time>
      </trkpt>
      <trkpt lat="44.05842" lon="7.26841">
        <ele>1021.54</ele>
        <time>2017-07-28T09:41:43Z</time>
      </trkpt>
      <trkpt lat="44.0585" lon="7.26863">
        <ele>1022.98</ele>
        <time>2017-07-28T09:41:58Z</time>
      </trkpt>
      <trkpt lat="44.05857" lon="7.26885">
        <ele>1023.94</ele>
        <time>2017-07-28T09:42:12Z</time>
      </trkpt>
      <trkpt lat="44.05857" lon="7.26899">
        <ele>1023.94</ele>
        <time>2017-07-28T09:42:21Z</time>
      </trkpt>
      <trkpt lat="44.05859" lon="7.2692">
        <ele>1024.42</ele>
        <time>2017-07-28T09:42:36Z</time>
      </trkpt>
      <trkpt lat="44.05861" lon="7.26929">
        <ele>1024.9</ele>
        <time>2017-07-28T09:42:48Z</time>
      </trkpt>
      <trkpt lat="44.05864" lon="7.26935">
        <ele>1024.9</ele>
        <time>2017-07-28T09:42:58Z</time>
      </trkpt>
      <trkpt lat="44.0588" lon="7.2695">
        <ele>1025.38</ele>
        <time>2017-07-28T09:43:16Z</time>
      </trkpt>
      <trkpt lat="44.05881" lon="7.26966">
        <ele>1025.86</ele>
        <time>2017-07-28T09:43:29Z</time>
      </trkpt>
      <trkpt lat="44.05873" lon="7.26984">
        <ele>1025.86</ele>
        <time>2017-07-28T09:43:43Z</time>
      </trkpt>
      <trkpt lat="44.05856" lon="7.26999">
        <ele>1026.34</ele>
        <time>2017-07-28T09:43:59Z</time>
      </trkpt>
      <trkpt lat="44.05844" lon="7.27007">
        <ele>1026.83</ele>
        <time>2017-07-28T09:44:10Z</time>
      </trkpt>
      <trkpt lat="44.05839" lon="7.27011">
        <ele>1027.31</ele>
        <time>2017-07-28T09:44:26Z</time>
      </trkpt>
      <trkpt lat="44.05834" lon="7.2701">
        <ele>1027.31</ele>
        <time>2017-07-28T09:44:39Z</time>
      </trkpt>
      <trkpt lat="44.0583" lon="7.27007">
        <ele>1027.31</ele>
        <time>2017-07-28T09:45:08Z</time>
      </trkpt>
      <trkpt lat="44.05829" lon="7.27001">
        <ele>1027.79</ele>
        <time>2017-07-28T09:45:38Z</time>
      </trkpt>
      <trkpt lat="44.05817" lon="7.26997">
        <ele>1028.27</ele>
        <time>2017-07-28T09:45:51Z</time>
      </trkpt>
      <trkpt lat="44.058" lon="7.26995">
        <ele>1029.23</ele>
        <time>2017-07-28T09:46:09Z</time>
      </trkpt>
      <trkpt lat="44.05782" lon="7.2699">
        <ele>1029.23</ele>
        <time>2017-07-28T09:46:26Z</time>
      </trkpt>
      <trkpt lat="44.05767" lon="7.26987">
        <ele>1029.71</ele>
        <time>2017-07-28T09:46:42Z</time>
      </trkpt>
      <trkpt lat="44.05749" lon="7.26991">
        <ele>1030.67</ele>
        <time>2017-07-28T09:46:58Z</time>
      </trkpt>
      <trkpt lat="44.0573" lon="7.26995">
        <ele>1031.63</ele>
        <time>2017-07-28T09:47:14Z</time>
      </trkpt>
      <trkpt lat="44.05714" lon="7.26997">
        <ele>1032.59</ele>
        <time>2017-07-28T09:47:29Z</time>
      </trkpt>
      <trkpt lat="44.05706" lon="7.27001">
        <ele>1033.07</ele>
        <time>2017-07-28T09:47:45Z</time>
      </trkpt>
      <trkpt lat="44.05699" lon="7.27003">
        <ele>1033.55</ele>
        <time>2017-07-28T09:48:00Z</time>
      </trkpt>
      <trkpt lat="44.05684" lon="7.27002">
        <ele>1034.04</ele>
        <time>2017-07-28T09:48:16Z</time>
      </trkpt>
      <trkpt lat="44.05677" lon="7.27002">
        <ele>1034.52</ele>
        <time>2017-07-28T09:48:31Z</time>
      </trkpt>
      <trkpt lat="44.05677" lon="7.27008">
        <ele>1034.52</ele>
        <time>2017-07-28T09:48:50Z</time>
      </trkpt>
      <trkpt lat="44.05671" lon="7.27006">
        <ele>1035</ele>
        <time>2017-07-28T09:49:13Z</time>
      </trkpt>
      <trkpt lat="44.05672" lon="7.27004">
        <ele>1035</ele>
        <time>2017-07-28T09:49:36Z</time>
      </trkpt>
      <trkpt lat="44.05659" lon="7.27004">
        <ele>1035.96</ele>
        <time>2017-07-28T09:49:49Z</time>
      </trkpt>
      <trkpt lat="44.05646" lon="7.27008">
        <ele>1036.44</ele>
        <time>2017-07-28T09:50:02Z</time>
      </trkpt>
      <trkpt lat="44.05629" lon="7.27013">
        <ele>1036.92</ele>
        <time>2017-07-28T09:50:18Z</time>
      </trkpt>
      <trkpt lat="44.05615" lon="7.27019">
        <ele>1037.4</ele>
        <time>2017-07-28T09:50:32Z</time>
      </trkpt>
      <trkpt lat="44.05597" lon="7.27027">
        <ele>1038.36</ele>
        <time>2017-07-28T09:50:49Z</time>
      </trkpt>
      <trkpt lat="44.05581" lon="7.27046">
        <ele>1036.92</ele>
        <time>2017-07-28T09:51:08Z</time>
      </trkpt>
      <trkpt lat="44.05573" lon="7.27062">
        <ele>1037.4</ele>
        <time>2017-07-28T09:51:22Z</time>
      </trkpt>
      <trkpt lat="44.05559" lon="7.27086">
        <ele>1036.92</ele>
        <time>2017-07-28T09:51:41Z</time>
      </trkpt>
      <trkpt lat="44.0555" lon="7.27104">
        <ele>1036.44</ele>
        <time>2017-07-28T09:51:56Z</time>
      </trkpt>
      <trkpt lat="44.05539" lon="7.27125">
        <ele>1036.44</ele>
        <time>2017-07-28T09:52:13Z</time>
      </trkpt>
      <trkpt lat="44.05532" lon="7.2714">
        <ele>1035.48</ele>
        <time>2017-07-28T09:52:31Z</time>
      </trkpt>
      <trkpt lat="44.05529" lon="7.27146">
        <ele>1035.48</ele>
        <time>2017-07-28T09:52:59Z</time>
      </trkpt>
      <trkpt lat="44.05518" lon="7.27163">
        <ele>1035.48</ele>
        <time>2017-07-28T09:53:15Z</time>
      </trkpt>
      <trkpt lat="44.05508" lon="7.27182">
        <ele>1035.48</ele>
        <time>2017-07-28T09:53:32Z</time>
      </trkpt>
      <trkpt lat="44.055" lon="7.27201">
        <ele>1035</ele>
        <time>2017-07-28T09:53:46Z</time>
      </trkpt>
      <trkpt lat="44.05486" lon="7.27221">
        <ele>1035</ele>
        <time>2017-07-28T09:54:04Z</time>
      </trkpt>
      <trkpt lat="44.05471" lon="7.27237">
        <ele>1035</ele>
        <time>2017-07-28T09:54:20Z</time>
      </trkpt>
      <trkpt lat="44.05458" lon="7.27253">
        <ele>1034.52</ele>
        <time>2017-07-28T09:54:35Z</time>
      </trkpt>
      <trkpt lat="44.05449" lon="7.27265">
        <ele>1034.52</ele>
        <time>2017-07-28T09:54:46Z</time>
      </trkpt>
      <trkpt lat="44.05445" lon="7.27283">
        <ele>1035</ele>
        <time>2017-07-28T09:54:57Z</time>
      </trkpt>
      <trkpt lat="44.05441" lon="7.27308">
        <ele>1034.52</ele>
        <time>2017-07-28T09:55:13Z</time>
      </trkpt>
      <trkpt lat="44.05438" lon="7.27332">
        <ele>1034.52</ele>
        <time>2017-07-28T09:55:28Z</time>
      </trkpt>
      <trkpt lat="44.05439" lon="7.27353">
        <ele>1034.52</ele>
        <time>2017-07-28T09:55:41Z</time>
      </trkpt>
      <trkpt lat="44.05439" lon="7.27375">
        <ele>1034.52</ele>
        <time>2017-07-28T09:55:56Z</time>
      </trkpt>
      <trkpt lat="44.05439" lon="7.27387">
        <ele>1034.52</ele>
        <time>2017-07-28T09:56:05Z</time>
      </trkpt>
      <trkpt lat="44.0544" lon="7.27414">
        <ele>1034.52</ele>
        <time>2017-07-28T09:56:22Z</time>
      </trkpt>
      <trkpt lat="44.05439" lon="7.27437">
        <ele>1035.48</ele>
        <time>2017-07-28T09:56:36Z</time>
      </trkpt>
      <trkpt lat="44.05431" lon="7.27456">
        <ele>1035.48</ele>
        <time>2017-07-28T09:56:47Z</time>
      </trkpt>
      <trkpt lat="44.05427" lon="7.27459">
        <ele>1035.48</ele>
        <time>2017-07-28T09:56:50Z</time>
      </trkpt>
      <trkpt lat="44.05417" lon="7.27472">
        <ele>1035.48</ele>
        <time>2017-07-28T09:57:05Z</time>
      </trkpt>
      <trkpt lat="44.05411" lon="7.27481">
        <ele>1035.48</ele>
        <time>2017-07-28T09:57:15Z</time>
      </trkpt>
      <trkpt lat="44.05401" lon="7.2749">
        <ele>1035.48</ele>
        <time>2017-07-28T09:57:27Z</time>
      </trkpt>
      <trkpt lat="44.05385" lon="7.27494">
        <ele>1034.04</ele>
        <time>2017-07-28T09:57:41Z</time>
      </trkpt>
      <trkpt lat="44.0537" lon="7.27504">
        <ele>1034.04</ele>
        <time>2017-07-28T09:57:55Z</time>
      </trkpt>
      <trkpt lat="44.05359" lon="7.27514">
        <ele>1034.04</ele>
        <time>2017-07-28T09:58:10Z</time>
      </trkpt>
      <trkpt lat="44.05348" lon="7.27526">
        <ele>1035.48</ele>
        <time>2017-07-28T09:58:23Z</time>
      </trkpt>
      <trkpt lat="44.0534" lon="7.27537">
        <ele>1035.48</ele>
        <time>2017-07-28T09:58:32Z</time>
      </trkpt>
      <trkpt lat="44.05327" lon="7.27544">
        <ele>1035.48</ele>
        <time>2017-07-28T09:58:46Z</time>
      </trkpt>
      <trkpt lat="44.05314" lon="7.27549">
        <ele>1035.96</ele>
        <time>2017-07-28T09:58:59Z</time>
      </trkpt>
      <trkpt lat="44.05302" lon="7.27569">
        <ele>1035.96</ele>
        <time>2017-07-28T09:59:16Z</time>
      </trkpt>
      <trkpt lat="44.05293" lon="7.27589">
        <ele>1035.96</ele>
        <time>2017-07-28T09:59:31Z</time>
      </trkpt>
      <trkpt lat="44.0529" lon="7.27613">
        <ele>1035.96</ele>
        <time>2017-07-28T09:59:47Z</time>
      </trkpt>
      <trkpt lat="44.05291" lon="7.27623">
        <ele>1034.52</ele>
        <time>2017-07-28T09:59:54Z</time>
      </trkpt>
      <trkpt lat="44.05292" lon="7.27624">
        <ele>1034.52</ele>
        <time>2017-07-28T09:59:55Z</time>
      </trkpt>
      <trkpt lat="44.05301" lon="7.27646">
        <ele>1034.52</ele>
        <time>2017-07-28T10:00:12Z</time>
      </trkpt>
      <trkpt lat="44.05304" lon="7.27661">
        <ele>1034.52</ele>
        <time>2017-07-28T10:00:22Z</time>
      </trkpt>
      <trkpt lat="44.05308" lon="7.27685">
        <ele>1034.52</ele>
        <time>2017-07-28T10:00:38Z</time>
      </trkpt>
      <trkpt lat="44.05314" lon="7.27693">
        <ele>1034.52</ele>
        <time>2017-07-28T10:00:45Z</time>
      </trkpt>
      <trkpt lat="44.05324" lon="7.27703">
        <ele>1034.52</ele>
        <time>2017-07-28T10:01:00Z</time>
      </trkpt>
      <trkpt lat="44.05337" lon="7.27723">
        <ele>1035.96</ele>
        <time>2017-07-28T10:01:19Z</time>
      </trkpt>
      <trkpt lat="44.05343" lon="7.2774">
        <ele>1037.4</ele>
        <time>2017-07-28T10:01:33Z</time>
      </trkpt>
      <trkpt lat="44.0535" lon="7.2776">
        <ele>1037.88</ele>
        <time>2017-07-28T10:01:48Z</time>
      </trkpt>
      <trkpt lat="44.0536" lon="7.27779">
        <ele>1038.84</ele>
        <time>2017-07-28T10:02:04Z</time>
      </trkpt>
      <trkpt lat="44.05367" lon="7.27802">
        <ele>1039.8</ele>
        <time>2017-07-28T10:02:20Z</time>
      </trkpt>
      <trkpt lat="44.0538" lon="7.27819">
        <ele>1040.76</ele>
        <time>2017-07-28T10:02:36Z</time>
      </trkpt>
      <trkpt lat="44.05392" lon="7.27833">
        <ele>1040.76</ele>
        <time>2017-07-28T10:02:51Z</time>
      </trkpt>
      <trkpt lat="44.05402" lon="7.27842">
        <ele>1040.28</ele>
        <time>2017-07-28T10:03:01Z</time>
      </trkpt>
      <trkpt lat="44.05417" lon="7.27843">
        <ele>1040.28</ele>
        <time>2017-07-28T10:03:15Z</time>
      </trkpt>
      <trkpt lat="44.0542" lon="7.27862">
        <ele>1040.28</ele>
        <time>2017-07-28T10:03:30Z</time>
      </trkpt>
      <trkpt lat="44.05426" lon="7.27892">
        <ele>1041.73</ele>
        <time>2017-07-28T10:03:48Z</time>
      </trkpt>
      <trkpt lat="44.05428" lon="7.27914">
        <ele>1042.21</ele>
        <time>2017-07-28T10:04:02Z</time>
      </trkpt>
      <trkpt lat="44.0543" lon="7.27924">
        <ele>1042.69</ele>
        <time>2017-07-28T10:04:10Z</time>
      </trkpt>
      <trkpt lat="44.05432" lon="7.27934">
        <ele>1042.69</ele>
        <time>2017-07-28T10:04:15Z</time>
      </trkpt>
      <trkpt lat="44.05438" lon="7.27954">
        <ele>1043.65</ele>
        <time>2017-07-28T10:04:29Z</time>
      </trkpt>
      <trkpt lat="44.05445" lon="7.27977">
        <ele>1044.13</ele>
        <time>2017-07-28T10:04:46Z</time>
      </trkpt>
      <trkpt lat="44.05451" lon="7.28001">
        <ele>1045.09</ele>
        <time>2017-07-28T10:05:03Z</time>
      </trkpt>
      <trkpt lat="44.05459" lon="7.28018">
        <ele>1046.05</ele>
        <time>2017-07-28T10:05:18Z</time>
      </trkpt>
      <trkpt lat="44.0546" lon="7.28019">
        <ele>1046.05</ele>
        <time>2017-07-28T10:05:20Z</time>
      </trkpt>
      <trkpt lat="44.05472" lon="7.28029">
        <ele>1046.53</ele>
        <time>2017-07-28T10:05:32Z</time>
      </trkpt>
      <trkpt lat="44.05485" lon="7.28046">
        <ele>1047.01</ele>
        <time>2017-07-28T10:05:50Z</time>
      </trkpt>
      <trkpt lat="44.05484" lon="7.28049">
        <ele>1047.01</ele>
        <time>2017-07-28T10:05:52Z</time>
      </trkpt>
      <trkpt lat="44.05481" lon="7.2806">
        <ele>1047.49</ele>
        <time>2017-07-28T10:06:00Z</time>
      </trkpt>
      <trkpt lat="44.05479" lon="7.28076">
        <ele>1047.97</ele>
        <time>2017-07-28T10:06:14Z</time>
      </trkpt>
      <trkpt lat="44.05484" lon="7.2809">
        <ele>1047.97</ele>
        <time>2017-07-28T10:06:27Z</time>
      </trkpt>
      <trkpt lat="44.05493" lon="7.28115">
        <ele>1048.45</ele>
        <time>2017-07-28T10:06:42Z</time>
      </trkpt>
      <trkpt lat="44.05487" lon="7.28137">
        <ele>1048.94</ele>
        <time>2017-07-28T10:06:55Z</time>
      </trkpt>
      <trkpt lat="44.05473" lon="7.2814">
        <ele>1049.9</ele>
        <time>2017-07-28T10:07:11Z</time>
      </trkpt>
      <trkpt lat="44.05457" lon="7.28139">
        <ele>1049.42</ele>
        <time>2017-07-28T10:07:26Z</time>
      </trkpt>
      <trkpt lat="44.05447" lon="7.28137">
        <ele>1049.42</ele>
        <time>2017-07-28T10:07:43Z</time>
      </trkpt>
      <trkpt lat="44.05439" lon="7.28129">
        <ele>1049.42</ele>
        <time>2017-07-28T10:07:53Z</time>
      </trkpt>
      <trkpt lat="44.05427" lon="7.28117">
        <ele>1049.9</ele>
        <time>2017-07-28T10:08:09Z</time>
      </trkpt>
      <trkpt lat="44.05426" lon="7.28115">
        <ele>1046.53</ele>
        <time>2017-07-28T10:08:11Z</time>
      </trkpt>
      <trkpt lat="44.05425" lon="7.28115">
        <ele>1050.86</ele>
        <time>2017-07-28T10:08:12Z</time>
      </trkpt>
      <trkpt lat="44.0541" lon="7.28114">
        <ele>1049.42</ele>
        <time>2017-07-28T10:08:26Z</time>
      </trkpt>
      <trkpt lat="44.05394" lon="7.2811">
        <ele>1049.42</ele>
        <time>2017-07-28T10:08:41Z</time>
      </trkpt>
      <trkpt lat="44.05377" lon="7.28107">
        <ele>1049.9</ele>
        <time>2017-07-28T10:08:55Z</time>
      </trkpt>
      <trkpt lat="44.05354" lon="7.28106">
        <ele>1051.34</ele>
        <time>2017-07-28T10:09:13Z</time>
      </trkpt>
      <trkpt lat="44.05336" lon="7.28107">
        <ele>1052.3</ele>
        <time>2017-07-28T10:09:28Z</time>
      </trkpt>
      <trkpt lat="44.05327" lon="7.28109">
        <ele>1052.3</ele>
        <time>2017-07-28T10:09:36Z</time>
      </trkpt>
      <trkpt lat="44.05321" lon="7.2811">
        <ele>1052.3</ele>
        <time>2017-07-28T10:09:42Z</time>
      </trkpt>
      <trkpt lat="44.05308" lon="7.28116">
        <ele>1052.3</ele>
        <time>2017-07-28T10:09:56Z</time>
      </trkpt>
      <trkpt lat="44.0529" lon="7.28129">
        <ele>1052.78</ele>
        <time>2017-07-28T10:10:12Z</time>
      </trkpt>
      <trkpt lat="44.05278" lon="7.28133">
        <ele>1052.78</ele>
        <time>2017-07-28T10:10:25Z</time>
      </trkpt>
      <trkpt lat="44.05263" lon="7.28124">
        <ele>1051.34</ele>
        <time>2017-07-28T10:10:39Z</time>
      </trkpt>
      <trkpt lat="44.05252" lon="7.2812">
        <ele>1051.34</ele>
        <time>2017-07-28T10:10:51Z</time>
      </trkpt>
      <trkpt lat="44.05235" lon="7.28116">
        <ele>1050.86</ele>
        <time>2017-07-28T10:11:06Z</time>
      </trkpt>
      <trkpt lat="44.05221" lon="7.28117">
        <ele>1050.38</ele>
        <time>2017-07-28T10:11:18Z</time>
      </trkpt>
      <trkpt lat="44.05216" lon="7.28119">
        <ele>1049.9</ele>
        <time>2017-07-28T10:11:22Z</time>
      </trkpt>
      <trkpt lat="44.05211" lon="7.28123">
        <ele>1049.9</ele>
        <time>2017-07-28T10:11:27Z</time>
      </trkpt>
      <trkpt lat="44.05196" lon="7.28126">
        <ele>1049.42</ele>
        <time>2017-07-28T10:11:41Z</time>
      </trkpt>
      <trkpt lat="44.05182" lon="7.28121">
        <ele>1049.42</ele>
        <time>2017-07-28T10:11:56Z</time>
      </trkpt>
      <trkpt lat="44.05166" lon="7.28118">
        <ele>1049.42</ele>
        <time>2017-07-28T10:12:11Z</time>
      </trkpt>
      <trkpt lat="44.0515" lon="7.28114">
        <ele>1050.38</ele>
        <time>2017-07-28T10:12:26Z</time>
      </trkpt>
      <trkpt lat="44.05141" lon="7.28116">
        <ele>1050.38</ele>
        <time>2017-07-28T10:12:44Z</time>
      </trkpt>
      <trkpt lat="44.05139" lon="7.28119">
        <ele>1050.38</ele>
        <time>2017-07-28T10:13:06Z</time>
      </trkpt>
      <trkpt lat="44.05134" lon="7.28115">
        <ele>1050.86</ele>
        <time>2017-07-28T10:13:14Z</time>
      </trkpt>
      <trkpt lat="44.05118" lon="7.2811">
        <ele>1049.9</ele>
        <time>2017-07-28T10:13:29Z</time>
      </trkpt>
      <trkpt lat="44.05104" lon="7.28101">
        <ele>1049.9</ele>
        <time>2017-07-28T10:13:44Z</time>
      </trkpt>
      <trkpt lat="44.0509" lon="7.28095">
        <ele>1049.9</ele>
        <time>2017-07-28T10:13:57Z</time>
      </trkpt>
      <trkpt lat="44.05076" lon="7.28091">
        <ele>1049.9</ele>
        <time>2017-07-28T10:14:10Z</time>
      </trkpt>
      <trkpt lat="44.05069" lon="7.28091">
        <ele>1049.9</ele>
        <time>2017-07-28T10:14:15Z</time>
      </trkpt>
      <trkpt lat="44.05054" lon="7.28091">
        <ele>1049.9</ele>
        <time>2017-07-28T10:14:30Z</time>
      </trkpt>
      <trkpt lat="44.05051" lon="7.28091">
        <ele>1049.9</ele>
        <time>2017-07-28T10:14:33Z</time>
      </trkpt>
      <trkpt lat="44.05038" lon="7.28096">
        <ele>1049.9</ele>
        <time>2017-07-28T10:14:47Z</time>
      </trkpt>
      <trkpt lat="44.05031" lon="7.281">
        <ele>1049.9</ele>
        <time>2017-07-28T10:14:55Z</time>
      </trkpt>
      <trkpt lat="44.05015" lon="7.28113">
        <ele>1051.82</ele>
        <time>2017-07-28T10:15:11Z</time>
      </trkpt>
      <trkpt lat="44.05005" lon="7.28121">
        <ele>1052.3</ele>
        <time>2017-07-28T10:15:20Z</time>
      </trkpt>
      <trkpt lat="44.0499" lon="7.28139">
        <ele>1053.74</ele>
        <time>2017-07-28T10:15:40Z</time>
      </trkpt>
      <trkpt lat="44.04981" lon="7.28153">
        <ele>1054.7</ele>
        <time>2017-07-28T10:15:55Z</time>
      </trkpt>
      <trkpt lat="44.04978" lon="7.28161">
        <ele>1055.67</ele>
        <time>2017-07-28T10:16:11Z</time>
      </trkpt>
      <trkpt lat="44.04978" lon="7.28177">
        <ele>1054.7</ele>
        <time>2017-07-28T10:16:25Z</time>
      </trkpt>
      <trkpt lat="44.04981" lon="7.28195">
        <ele>1052.78</ele>
        <time>2017-07-28T10:16:42Z</time>
      </trkpt>
      <trkpt lat="44.04987" lon="7.28211">
        <ele>1052.3</ele>
        <time>2017-07-28T10:16:56Z</time>
      </trkpt>
      <trkpt lat="44.04995" lon="7.28224">
        <ele>1051.82</ele>
        <time>2017-07-28T10:17:09Z</time>
      </trkpt>
      <trkpt lat="44.05002" lon="7.2824">
        <ele>1051.82</ele>
        <time>2017-07-28T10:17:19Z</time>
      </trkpt>
      <trkpt lat="44.05009" lon="7.28261">
        <ele>1051.82</ele>
        <time>2017-07-28T10:17:33Z</time>
      </trkpt>
      <trkpt lat="44.05014" lon="7.28286">
        <ele>1051.82</ele>
        <time>2017-07-28T10:17:51Z</time>
      </trkpt>
      <trkpt lat="44.05012" lon="7.28308">
        <ele>1051.82</ele>
        <time>2017-07-28T10:18:05Z</time>
      </trkpt>
      <trkpt lat="44.0501" lon="7.28325">
        <ele>1051.82</ele>
        <time>2017-07-28T10:18:17Z</time>
      </trkpt>
      <trkpt lat="44.05013" lon="7.28343">
        <ele>1051.34</ele>
        <time>2017-07-28T10:18:33Z</time>
      </trkpt>
      <trkpt lat="44.05014" lon="7.28358">
        <ele>1051.34</ele>
        <time>2017-07-28T10:18:42Z</time>
      </trkpt>
      <trkpt lat="44.05014" lon="7.28369">
        <ele>1051.34</ele>
        <time>2017-07-28T10:18:50Z</time>
      </trkpt>
      <trkpt lat="44.05009" lon="7.28398">
        <ele>1051.34</ele>
        <time>2017-07-28T10:19:07Z</time>
      </trkpt>
      <trkpt lat="44.04998" lon="7.28422">
        <ele>1050.86</ele>
        <time>2017-07-28T10:19:23Z</time>
      </trkpt>
      <trkpt lat="44.04991" lon="7.28445">
        <ele>1050.86</ele>
        <time>2017-07-28T10:19:38Z</time>
      </trkpt>
      <trkpt lat="44.04977" lon="7.28468">
        <ele>1050.86</ele>
        <time>2017-07-28T10:19:55Z</time>
      </trkpt>
      <trkpt lat="44.04974" lon="7.28477">
        <ele>1050.86</ele>
        <time>2017-07-28T10:20:00Z</time>
      </trkpt>
      <trkpt lat="44.04977" lon="7.28505">
        <ele>1050.86</ele>
        <time>2017-07-28T10:20:17Z</time>
      </trkpt>
      <trkpt lat="44.04996" lon="7.28522">
        <ele>1050.86</ele>
        <time>2017-07-28T10:20:35Z</time>
      </trkpt>
      <trkpt lat="44.05002" lon="7.28527">
        <ele>1052.3</ele>
        <time>2017-07-28T10:20:41Z</time>
      </trkpt>
      <trkpt lat="44.05006" lon="7.28528">
        <ele>1052.3</ele>
        <time>2017-07-28T10:20:44Z</time>
      </trkpt>
      <trkpt lat="44.05014" lon="7.28531">
        <ele>1052.78</ele>
        <time>2017-07-28T10:20:52Z</time>
      </trkpt>
      <trkpt lat="44.05031" lon="7.28541">
        <ele>1054.22</ele>
        <time>2017-07-28T10:21:09Z</time>
      </trkpt>
      <trkpt lat="44.05047" lon="7.2855">
        <ele>1055.18</ele>
        <time>2017-07-28T10:21:24Z</time>
      </trkpt>
      <trkpt lat="44.05062" lon="7.28565">
        <ele>1055.67</ele>
        <time>2017-07-28T10:21:40Z</time>
      </trkpt>
      <trkpt lat="44.05073" lon="7.28574">
        <ele>1056.15</ele>
        <time>2017-07-28T10:21:53Z</time>
      </trkpt>
      <trkpt lat="44.05081" lon="7.2859">
        <ele>1056.63</ele>
        <time>2017-07-28T10:22:08Z</time>
      </trkpt>
      <trkpt lat="44.05083" lon="7.28617">
        <ele>1057.59</ele>
        <time>2017-07-28T10:22:26Z</time>
      </trkpt>
      <trkpt lat="44.05084" lon="7.28636">
        <ele>1058.07</ele>
        <time>2017-07-28T10:22:39Z</time>
      </trkpt>
      <trkpt lat="44.05087" lon="7.28654">
        <ele>1058.55</ele>
        <time>2017-07-28T10:22:51Z</time>
      </trkpt>
      <trkpt lat="44.05088" lon="7.2867">
        <ele>1059.99</ele>
        <time>2017-07-28T10:23:04Z</time>
      </trkpt>
      <trkpt lat="44.0509" lon="7.28681">
        <ele>1059.99</ele>
        <time>2017-07-28T10:23:12Z</time>
      </trkpt>
      <trkpt lat="44.05092" lon="7.28703">
        <ele>1060.47</ele>
        <time>2017-07-28T10:23:28Z</time>
      </trkpt>
      <trkpt lat="44.05096" lon="7.28721">
        <ele>1061.91</ele>
        <time>2017-07-28T10:23:43Z</time>
      </trkpt>
      <trkpt lat="44.05105" lon="7.28735">
        <ele>1062.87</ele>
        <time>2017-07-28T10:23:54Z</time>
      </trkpt>
      <trkpt lat="44.05113" lon="7.2874">
        <ele>1062.87</ele>
        <time>2017-07-28T10:24:02Z</time>
      </trkpt>
      <trkpt lat="44.05131" lon="7.28747">
        <ele>1063.84</ele>
        <time>2017-07-28T10:24:19Z</time>
      </trkpt>
      <trkpt lat="44.05146" lon="7.2877">
        <ele>1064.8</ele>
        <time>2017-07-28T10:24:39Z</time>
      </trkpt>
      <trkpt lat="44.05144" lon="7.28779">
        <ele>1064.8</ele>
        <time>2017-07-28T10:24:46Z</time>
      </trkpt>
      <trkpt lat="44.0513" lon="7.2879">
        <ele>1065.28</ele>
        <time>2017-07-28T10:25:00Z</time>
      </trkpt>
      <trkpt lat="44.05117" lon="7.28802">
        <ele>1066.72</ele>
        <time>2017-07-28T10:25:14Z</time>
      </trkpt>
      <trkpt lat="44.05102" lon="7.28816">
        <ele>1067.2</ele>
        <time>2017-07-28T10:25:31Z</time>
      </trkpt>
      <trkpt lat="44.05087" lon="7.28827">
        <ele>1067.68</ele>
        <time>2017-07-28T10:25:47Z</time>
      </trkpt>
      <trkpt lat="44.05074" lon="7.28839">
        <ele>1067.68</ele>
        <time>2017-07-28T10:26:03Z</time>
      </trkpt>
      <trkpt lat="44.05058" lon="7.28845">
        <ele>1068.16</ele>
        <time>2017-07-28T10:26:16Z</time>
      </trkpt>
      <trkpt lat="44.05054" lon="7.28847">
        <ele>1068.64</ele>
        <time>2017-07-28T10:26:22Z</time>
      </trkpt>
      <trkpt lat="44.05042" lon="7.28849">
        <ele>1069.6</ele>
        <time>2017-07-28T10:26:34Z</time>
      </trkpt>
      <trkpt lat="44.05028" lon="7.2885">
        <ele>1070.08</ele>
        <time>2017-07-28T10:26:48Z</time>
      </trkpt>
      <trkpt lat="44.05019" lon="7.28848">
        <ele>1070.57</ele>
        <time>2017-07-28T10:26:56Z</time>
      </trkpt>
      <trkpt lat="44.05006" lon="7.28841">
        <ele>1071.53</ele>
        <time>2017-07-28T10:27:11Z</time>
      </trkpt>
      <trkpt lat="44.0499" lon="7.28843">
        <ele>1072.01</ele>
        <time>2017-07-28T10:27:25Z</time>
      </trkpt>
      <trkpt lat="44.0498" lon="7.28846">
        <ele>1072.49</ele>
        <time>2017-07-28T10:27:32Z</time>
      </trkpt>
      <trkpt lat="44.04968" lon="7.28851">
        <ele>1072.97</ele>
        <time>2017-07-28T10:27:48Z</time>
      </trkpt>
      <trkpt lat="44.04952" lon="7.28851">
        <ele>1073.45</ele>
        <time>2017-07-28T10:28:05Z</time>
      </trkpt>
      <trkpt lat="44.04936" lon="7.28846">
        <ele>1074.41</ele>
        <time>2017-07-28T10:28:20Z</time>
      </trkpt>
      <trkpt lat="44.04927" lon="7.28842">
        <ele>1074.41</ele>
        <time>2017-07-28T10:28:28Z</time>
      </trkpt>
      <trkpt lat="44.04915" lon="7.28839">
        <ele>1072.97</ele>
        <time>2017-07-28T10:28:42Z</time>
      </trkpt>
      <trkpt lat="44.04904" lon="7.28842">
        <ele>1072.49</ele>
        <time>2017-07-28T10:28:59Z</time>
      </trkpt>
      <trkpt lat="44.04903" lon="7.28841">
        <ele>1072.49</ele>
        <time>2017-07-28T10:29:16Z</time>
      </trkpt>
      <trkpt lat="44.04902" lon="7.28844">
        <ele>1072.49</ele>
        <time>2017-07-28T10:29:35Z</time>
      </trkpt>
      <trkpt lat="44.04901" lon="7.28842">
        <ele>1072.49</ele>
        <time>2017-07-28T10:29:54Z</time>
      </trkpt>
      <trkpt lat="44.04898" lon="7.28843">
        <ele>1072.49</ele>
        <time>2017-07-28T10:30:18Z</time>
      </trkpt>
      <trkpt lat="44.049" lon="7.28842">
        <ele>1072.97</ele>
        <time>2017-07-28T10:30:41Z</time>
      </trkpt>
      <trkpt lat="44.04897" lon="7.28839">
        <ele>1072.97</ele>
        <time>2017-07-28T10:31:08Z</time>
      </trkpt>
      <trkpt lat="44.04902" lon="7.2884">
        <ele>1072.97</ele>
        <time>2017-07-28T10:31:31Z</time>
      </trkpt>
      <trkpt lat="44.04902" lon="7.28842">
        <ele>1072.97</ele>
        <time>2017-07-28T10:31:54Z</time>
      </trkpt>
      <trkpt lat="44.04899" lon="7.28845">
        <ele>1072.97</ele>
        <time>2017-07-28T10:32:18Z</time>
      </trkpt>
      <trkpt lat="44.04903" lon="7.28842">
        <ele>1073.45</ele>
        <time>2017-07-28T10:32:41Z</time>
      </trkpt>
      <trkpt lat="44.04904" lon="7.28844">
        <ele>1073.45</ele>
        <time>2017-07-28T10:33:02Z</time>
      </trkpt>
      <trkpt lat="44.04904" lon="7.28843">
        <ele>1074.89</ele>
        <time>2017-07-28T10:33:10Z</time>
      </trkpt>
      <trkpt lat="44.04906" lon="7.28843">
        <ele>1074.89</ele>
        <time>2017-07-28T10:33:40Z</time>
      </trkpt>
      <trkpt lat="44.04904" lon="7.28842">
        <ele>1074.89</ele>
        <time>2017-07-28T10:34:01Z</time>
      </trkpt>
      <trkpt lat="44.04904" lon="7.28839">
        <ele>1074.89</ele>
        <time>2017-07-28T10:34:20Z</time>
      </trkpt>
      <trkpt lat="44.04897" lon="7.28846">
        <ele>1073.93</ele>
        <time>2017-07-28T10:34:49Z</time>
      </trkpt>
      <trkpt lat="44.0489" lon="7.28851">
        <ele>1073.45</ele>
        <time>2017-07-28T10:35:02Z</time>
      </trkpt>
      <trkpt lat="44.04883" lon="7.28853">
        <ele>1073.45</ele>
        <time>2017-07-28T10:35:16Z</time>
      </trkpt>
      <trkpt lat="44.04875" lon="7.28856">
        <ele>1073.45</ele>
        <time>2017-07-28T10:35:26Z</time>
      </trkpt>
      <trkpt lat="44.04858" lon="7.28864">
        <ele>1073.45</ele>
        <time>2017-07-28T10:35:44Z</time>
      </trkpt>
      <trkpt lat="44.04846" lon="7.2886">
        <ele>1073.45</ele>
        <time>2017-07-28T10:36:01Z</time>
      </trkpt>
      <trkpt lat="44.04833" lon="7.28854">
        <ele>1074.89</ele>
        <time>2017-07-28T10:36:15Z</time>
      </trkpt>
      <trkpt lat="44.0482" lon="7.2886">
        <ele>1075.85</ele>
        <time>2017-07-28T10:36:32Z</time>
      </trkpt>
      <trkpt lat="44.04818" lon="7.28861">
        <ele>1075.85</ele>
        <time>2017-07-28T10:36:34Z</time>
      </trkpt>
      <trkpt lat="44.04803" lon="7.28869">
        <ele>1075.85</ele>
        <time>2017-07-28T10:36:50Z</time>
      </trkpt>
      <trkpt lat="44.04789" lon="7.28882">
        <ele>1075.85</ele>
        <time>2017-07-28T10:37:08Z</time>
      </trkpt>
      <trkpt lat="44.04785" lon="7.28885">
        <ele>1074.89</ele>
        <time>2017-07-28T10:37:13Z</time>
      </trkpt>
      <trkpt lat="44.04779" lon="7.28892">
        <ele>1074.89</ele>
        <time>2017-07-28T10:37:27Z</time>
      </trkpt>
      <trkpt lat="44.0478" lon="7.2889">
        <ele>1074.89</ele>
        <time>2017-07-28T10:37:44Z</time>
      </trkpt>
      <trkpt lat="44.0478" lon="7.28889">
        <ele>1074.89</ele>
        <time>2017-07-28T10:38:04Z</time>
      </trkpt>
      <trkpt lat="44.04784" lon="7.28896">
        <ele>1074.89</ele>
        <time>2017-07-28T10:38:24Z</time>
      </trkpt>
      <trkpt lat="44.04785" lon="7.28898">
        <ele>1076.33</ele>
        <time>2017-07-28T10:38:27Z</time>
      </trkpt>
      <trkpt lat="44.04789" lon="7.28905">
        <ele>1076.81</ele>
        <time>2017-07-28T10:38:42Z</time>
      </trkpt>
      <trkpt lat="44.04799" lon="7.28907">
        <ele>1077.78</ele>
        <time>2017-07-28T10:38:57Z</time>
      </trkpt>
      <trkpt lat="44.04811" lon="7.28912">
        <ele>1078.26</ele>
        <time>2017-07-28T10:39:13Z</time>
      </trkpt>
      <trkpt lat="44.04821" lon="7.28919">
        <ele>1078.26</ele>
        <time>2017-07-28T10:39:27Z</time>
      </trkpt>
      <trkpt lat="44.04825" lon="7.2892">
        <ele>1078.26</ele>
        <time>2017-07-28T10:39:33Z</time>
      </trkpt>
      <trkpt lat="44.04841" lon="7.28921">
        <ele>1078.74</ele>
        <time>2017-07-28T10:39:50Z</time>
      </trkpt>
      <trkpt lat="44.04854" lon="7.28923">
        <ele>1079.7</ele>
        <time>2017-07-28T10:40:05Z</time>
      </trkpt>
      <trkpt lat="44.04855" lon="7.28923">
        <ele>1079.7</ele>
        <time>2017-07-28T10:40:06Z</time>
      </trkpt>
      <trkpt lat="44.04868" lon="7.28921">
        <ele>1081.62</ele>
        <time>2017-07-28T10:40:23Z</time>
      </trkpt>
      <trkpt lat="44.04873" lon="7.28926">
        <ele>1083.06</ele>
        <time>2017-07-28T10:40:37Z</time>
      </trkpt>
      <trkpt lat="44.04872" lon="7.28928">
        <ele>1083.06</ele>
        <time>2017-07-28T10:40:50Z</time>
      </trkpt>
      <trkpt lat="44.04873" lon="7.28928">
        <ele>1082.58</ele>
        <time>2017-07-28T10:41:10Z</time>
      </trkpt>
      <trkpt lat="44.04874" lon="7.28929">
        <ele>1082.58</ele>
        <time>2017-07-28T10:41:27Z</time>
      </trkpt>
      <trkpt lat="44.04874" lon="7.28929">
        <ele>1082.58</ele>
        <time>2017-07-28T10:41:53Z</time>
      </trkpt>
      <trkpt lat="44.04874" lon="7.28927">
        <ele>1082.58</ele>
        <time>2017-07-28T10:42:19Z</time>
      </trkpt>
      <trkpt lat="44.04875" lon="7.28928">
        <ele>1083.06</ele>
        <time>2017-07-28T10:42:51Z</time>
      </trkpt>
      <trkpt lat="44.04874" lon="7.28931">
        <ele>1083.06</ele>
        <time>2017-07-28T10:43:16Z</time>
      </trkpt>
      <trkpt lat="44.04877" lon="7.28935">
        <ele>1084.5</ele>
        <time>2017-07-28T10:43:47Z</time>
      </trkpt>
      <trkpt lat="44.0488" lon="7.28938">
        <ele>1084.5</ele>
        <time>2017-07-28T10:44:05Z</time>
      </trkpt>
      <trkpt lat="44.04888" lon="7.28943">
        <ele>1086.91</ele>
        <time>2017-07-28T10:44:18Z</time>
      </trkpt>
      <trkpt lat="44.04894" lon="7.28944">
        <ele>1088.35</ele>
        <time>2017-07-28T10:44:30Z</time>
      </trkpt>
      <trkpt lat="44.04898" lon="7.28954">
        <ele>1090.27</ele>
        <time>2017-07-28T10:44:43Z</time>
      </trkpt>
      <trkpt lat="44.04905" lon="7.28962">
        <ele>1092.2</ele>
        <time>2017-07-28T10:44:58Z</time>
      </trkpt>
      <trkpt lat="44.04909" lon="7.28965">
        <ele>1093.64</ele>
        <time>2017-07-28T10:45:11Z</time>
      </trkpt>
      <trkpt lat="44.04912" lon="7.28974">
        <ele>1095.08</ele>
        <time>2017-07-28T10:45:27Z</time>
      </trkpt>
      <trkpt lat="44.04916" lon="7.28981">
        <ele>1097</ele>
        <time>2017-07-28T10:45:41Z</time>
      </trkpt>
      <trkpt lat="44.04921" lon="7.28986">
        <ele>1099.4</ele>
        <time>2017-07-28T10:45:56Z</time>
      </trkpt>
      <trkpt lat="44.04927" lon="7.28979">
        <ele>1101.33</ele>
        <time>2017-07-28T10:46:11Z</time>
      </trkpt>
      <trkpt lat="44.0493" lon="7.28978">
        <ele>1104.21</ele>
        <time>2017-07-28T10:46:28Z</time>
      </trkpt>
      <trkpt lat="44.04931" lon="7.28982">
        <ele>1104.21</ele>
        <time>2017-07-28T10:46:44Z</time>
      </trkpt>
      <trkpt lat="44.04934" lon="7.28983">
        <ele>1104.69</ele>
        <time>2017-07-28T10:47:06Z</time>
      </trkpt>
      <trkpt lat="44.04936" lon="7.28982">
        <ele>1105.65</ele>
        <time>2017-07-28T10:47:12Z</time>
      </trkpt>
      <trkpt lat="44.04939" lon="7.28988">
        <ele>1107.1</ele>
        <time>2017-07-28T10:47:29Z</time>
      </trkpt>
      <trkpt lat="44.0494" lon="7.28998">
        <ele>1108.54</ele>
        <time>2017-07-28T10:47:46Z</time>
      </trkpt>
      <trkpt lat="44.04942" lon="7.28997">
        <ele>1110.94</ele>
        <time>2017-07-28T10:48:02Z</time>
      </trkpt>
      <trkpt lat="44.04949" lon="7.28992">
        <ele>1113.34</ele>
        <time>2017-07-28T10:48:18Z</time>
      </trkpt>
      <trkpt lat="44.04956" lon="7.28989">
        <ele>1115.75</ele>
        <time>2017-07-28T10:48:33Z</time>
      </trkpt>
      <trkpt lat="44.04961" lon="7.28985">
        <ele>1118.15</ele>
        <time>2017-07-28T10:48:47Z</time>
      </trkpt>
      <trkpt lat="44.04961" lon="7.28989">
        <ele>1119.59</ele>
        <time>2017-07-28T10:49:00Z</time>
      </trkpt>
      <trkpt lat="44.04965" lon="7.28999">
        <ele>1122</ele>
        <time>2017-07-28T10:49:15Z</time>
      </trkpt>
      <trkpt lat="44.0497" lon="7.29003">
        <ele>1122.48</ele>
        <time>2017-07-28T10:49:33Z</time>
      </trkpt>
      <trkpt lat="44.04973" lon="7.29011">
        <ele>1125.36</ele>
        <time>2017-07-28T10:49:49Z</time>
      </trkpt>
      <trkpt lat="44.04973" lon="7.29015">
        <ele>1126.8</ele>
        <time>2017-07-28T10:50:02Z</time>
      </trkpt>
      <trkpt lat="44.0497" lon="7.29014">
        <ele>1126.8</ele>
        <time>2017-07-28T10:50:24Z</time>
      </trkpt>
      <trkpt lat="44.04972" lon="7.29014">
        <ele>1126.8</ele>
        <time>2017-07-28T10:50:50Z</time>
      </trkpt>
      <trkpt lat="44.04975" lon="7.29013">
        <ele>1128.24</ele>
        <time>2017-07-28T10:51:04Z</time>
      </trkpt>
      <trkpt lat="44.0498" lon="7.2901">
        <ele>1129.69</ele>
        <time>2017-07-28T10:51:17Z</time>
      </trkpt>
      <trkpt lat="44.04987" lon="7.29011">
        <ele>1132.09</ele>
        <time>2017-07-28T10:51:33Z</time>
      </trkpt>
      <trkpt lat="44.04995" lon="7.29008">
        <ele>1134.49</ele>
        <time>2017-07-28T10:51:49Z</time>
      </trkpt>
      <trkpt lat="44.04998" lon="7.29016">
        <ele>1137.86</ele>
        <time>2017-07-28T10:52:02Z</time>
      </trkpt>
      <trkpt lat="44.04998" lon="7.29026">
        <ele>1139.78</ele>
        <time>2017-07-28T10:52:19Z</time>
      </trkpt>
      <trkpt lat="44.05" lon="7.29024">
        <ele>1139.78</ele>
        <time>2017-07-28T10:52:36Z</time>
      </trkpt>
      <trkpt lat="44.05" lon="7.29024">
        <ele>1139.78</ele>
        <time>2017-07-28T10:52:55Z</time>
      </trkpt>
      <trkpt lat="44.04999" lon="7.29022">
        <ele>1139.78</ele>
        <time>2017-07-28T10:53:19Z</time>
      </trkpt>
      <trkpt lat="44.04999" lon="7.29022">
        <ele>1141.7</ele>
        <time>2017-07-28T10:53:21Z</time>
      </trkpt>
      <trkpt lat="44.05002" lon="7.29025">
        <ele>1141.7</ele>
        <time>2017-07-28T10:53:33Z</time>
      </trkpt>
      <trkpt lat="44.05009" lon="7.29018">
        <ele>1144.11</ele>
        <time>2017-07-28T10:53:49Z</time>
      </trkpt>
      <trkpt lat="44.05014" lon="7.29018">
        <ele>1146.99</ele>
        <time>2017-07-28T10:54:05Z</time>
      </trkpt>
      <trkpt lat="44.0502" lon="7.29017">
        <ele>1149.39</ele>
        <time>2017-07-28T10:54:20Z</time>
      </trkpt>
      <trkpt lat="44.05025" lon="7.29021">
        <ele>1150.84</ele>
        <time>2017-07-28T10:54:34Z</time>
      </trkpt>
      <trkpt lat="44.0503" lon="7.29022">
        <ele>1152.76</ele>
        <time>2017-07-28T10:54:49Z</time>
      </trkpt>
      <trkpt lat="44.05033" lon="7.2902">
        <ele>1154.68</ele>
        <time>2017-07-28T10:55:01Z</time>
      </trkpt>
      <trkpt lat="44.05037" lon="7.29021">
        <ele>1156.6</ele>
        <time>2017-07-28T10:55:14Z</time>
      </trkpt>
      <trkpt lat="44.05039" lon="7.29019">
        <ele>1156.6</ele>
        <time>2017-07-28T10:55:38Z</time>
      </trkpt>
      <trkpt lat="44.05041" lon="7.29022">
        <ele>1157.08</ele>
        <time>2017-07-28T10:56:05Z</time>
      </trkpt>
      <trkpt lat="44.05044" lon="7.29022">
        <ele>1159.49</ele>
        <time>2017-07-28T10:56:18Z</time>
      </trkpt>
      <trkpt lat="44.05044" lon="7.29024">
        <ele>1160.45</ele>
        <time>2017-07-28T10:56:32Z</time>
      </trkpt>
      <trkpt lat="44.05047" lon="7.29025">
        <ele>1161.41</ele>
        <time>2017-07-28T10:56:52Z</time>
      </trkpt>
      <trkpt lat="44.05053" lon="7.29027">
        <ele>1162.85</ele>
        <time>2017-07-28T10:57:06Z</time>
      </trkpt>
      <trkpt lat="44.05059" lon="7.29028">
        <ele>1165.74</ele>
        <time>2017-07-28T10:57:23Z</time>
      </trkpt>
      <trkpt lat="44.05062" lon="7.29032">
        <ele>1167.66</ele>
        <time>2017-07-28T10:57:36Z</time>
      </trkpt>
      <trkpt lat="44.05068" lon="7.29032">
        <ele>1169.58</ele>
        <time>2017-07-28T10:57:49Z</time>
      </trkpt>
      <trkpt lat="44.05073" lon="7.29035">
        <ele>1171.98</ele>
        <time>2017-07-28T10:58:06Z</time>
      </trkpt>
      <trkpt lat="44.05076" lon="7.29035">
        <ele>1174.87</ele>
        <time>2017-07-28T10:58:20Z</time>
      </trkpt>
      <trkpt lat="44.05081" lon="7.29037">
        <ele>1175.83</ele>
        <time>2017-07-28T10:58:35Z</time>
      </trkpt>
      <trkpt lat="44.05083" lon="7.29038">
        <ele>1176.31</ele>
        <time>2017-07-28T10:58:58Z</time>
      </trkpt>
      <trkpt lat="44.05084" lon="7.29038">
        <ele>1176.79</ele>
        <time>2017-07-28T10:59:38Z</time>
      </trkpt>
      <trkpt lat="44.05087" lon="7.29037">
        <ele>1178.71</ele>
        <time>2017-07-28T11:00:00Z</time>
      </trkpt>
      <trkpt lat="44.05092" lon="7.29036">
        <ele>1180.64</ele>
        <time>2017-07-28T11:00:13Z</time>
      </trkpt>
      <trkpt lat="44.05096" lon="7.29036">
        <ele>1182.56</ele>
        <time>2017-07-28T11:00:30Z</time>
      </trkpt>
      <trkpt lat="44.05099" lon="7.29035">
        <ele>1184.96</ele>
        <time>2017-07-28T11:00:42Z</time>
      </trkpt>
      <trkpt lat="44.05103" lon="7.29039">
        <ele>1185.92</ele>
        <time>2017-07-28T11:00:54Z</time>
      </trkpt>
      <trkpt lat="44.05105" lon="7.29043">
        <ele>1187.85</ele>
        <time>2017-07-28T11:01:07Z</time>
      </trkpt>
      <trkpt lat="44.05101" lon="7.29051">
        <ele>1189.77</ele>
        <time>2017-07-28T11:01:21Z</time>
      </trkpt>
      <trkpt lat="44.05095" lon="7.29062">
        <ele>1192.17</ele>
        <time>2017-07-28T11:01:39Z</time>
      </trkpt>
      <trkpt lat="44.05092" lon="7.29068">
        <ele>1193.13</ele>
        <time>2017-07-28T11:01:54Z</time>
      </trkpt>
      <trkpt lat="44.05093" lon="7.29067">
        <ele>1194.09</ele>
        <time>2017-07-28T11:02:18Z</time>
      </trkpt>
      <trkpt lat="44.05093" lon="7.29068">
        <ele>1190.73</ele>
        <time>2017-07-28T11:02:24Z</time>
      </trkpt>
      <trkpt lat="44.05093" lon="7.29068">
        <ele>1195.06</ele>
        <time>2017-07-28T11:02:25Z</time>
      </trkpt>
      <trkpt lat="44.05091" lon="7.29071">
        <ele>1194.58</ele>
        <time>2017-07-28T11:02:35Z</time>
      </trkpt>
      <trkpt lat="44.05094" lon="7.29079">
        <ele>1197.46</ele>
        <time>2017-07-28T11:02:52Z</time>
      </trkpt>
      <trkpt lat="44.0509" lon="7.29086">
        <ele>1199.38</ele>
        <time>2017-07-28T11:03:08Z</time>
      </trkpt>
      <trkpt lat="44.05088" lon="7.29093">
        <ele>1202.27</ele>
        <time>2017-07-28T11:03:20Z</time>
      </trkpt>
      <trkpt lat="44.05083" lon="7.29096">
        <ele>1202.75</ele>
        <time>2017-07-28T11:03:34Z</time>
      </trkpt>
      <trkpt lat="44.05083" lon="7.29094">
        <ele>1202.75</ele>
        <time>2017-07-28T11:03:51Z</time>
      </trkpt>
      <trkpt lat="44.05085" lon="7.29093">
        <ele>1202.75</ele>
        <time>2017-07-28T11:04:06Z</time>
      </trkpt>
      <trkpt lat="44.05088" lon="7.2909">
        <ele>1201.79</ele>
        <time>2017-07-28T11:04:29Z</time>
      </trkpt>
      <trkpt lat="44.05088" lon="7.2909">
        <ele>1201.79</ele>
        <time>2017-07-28T11:04:30Z</time>
      </trkpt>
      <trkpt lat="44.05089" lon="7.29091">
        <ele>1202.75</ele>
        <time>2017-07-28T11:04:55Z</time>
      </trkpt>
      <trkpt lat="44.05088" lon="7.29092">
        <ele>1202.75</ele>
        <time>2017-07-28T11:05:17Z</time>
      </trkpt>
      <trkpt lat="44.05089" lon="7.29092">
        <ele>1201.3</ele>
        <time>2017-07-28T11:05:35Z</time>
      </trkpt>
      <trkpt lat="44.05089" lon="7.29091">
        <ele>1201.3</ele>
        <time>2017-07-28T11:06:06Z</time>
      </trkpt>
      <trkpt lat="44.05089" lon="7.29091">
        <ele>1201.3</ele>
        <time>2017-07-28T11:06:48Z</time>
      </trkpt>
      <trkpt lat="44.05089" lon="7.29091">
        <ele>1201.79</ele>
        <time>2017-07-28T11:07:16Z</time>
      </trkpt>
      <trkpt lat="44.05088" lon="7.2909">
        <ele>1201.79</ele>
        <time>2017-07-28T11:07:57Z</time>
      </trkpt>
      <trkpt lat="44.05087" lon="7.29091">
        <ele>1202.27</ele>
        <time>2017-07-28T11:08:32Z</time>
      </trkpt>
      <trkpt lat="44.05087" lon="7.29093">
        <ele>1202.27</ele>
        <time>2017-07-28T11:09:04Z</time>
      </trkpt>
      <trkpt lat="44.05088" lon="7.29093">
        <ele>1202.75</ele>
        <time>2017-07-28T11:09:41Z</time>
      </trkpt>
      <trkpt lat="44.05089" lon="7.29091">
        <ele>1202.75</ele>
        <time>2017-07-28T11:10:14Z</time>
      </trkpt>
      <trkpt lat="44.0509" lon="7.29091">
        <ele>1202.75</ele>
        <time>2017-07-28T11:10:50Z</time>
      </trkpt>
      <trkpt lat="44.0509" lon="7.29091">
        <ele>1204.19</ele>
        <time>2017-07-28T11:11:24Z</time>
      </trkpt>
      <trkpt lat="44.0509" lon="7.29091">
        <ele>1204.19</ele>
        <time>2017-07-28T11:12:01Z</time>
      </trkpt>
      <trkpt lat="44.05091" lon="7.2909">
        <ele>1204.67</ele>
        <time>2017-07-28T11:12:33Z</time>
      </trkpt>
      <trkpt lat="44.0509" lon="7.2909">
        <ele>1204.67</ele>
        <time>2017-07-28T11:13:03Z</time>
      </trkpt>
      <trkpt lat="44.0509" lon="7.29092">
        <ele>1204.67</ele>
        <time>2017-07-28T11:13:34Z</time>
      </trkpt>
      <trkpt lat="44.0509" lon="7.29093">
        <ele>1204.67</ele>
        <time>2017-07-28T11:14:00Z</time>
      </trkpt>
      <trkpt lat="44.05089" lon="7.29094">
        <ele>1204.67</ele>
        <time>2017-07-28T11:14:28Z</time>
      </trkpt>
      <trkpt lat="44.05089" lon="7.29093">
        <ele>1205.15</ele>
        <time>2017-07-28T11:14:53Z</time>
      </trkpt>
      <trkpt lat="44.05087" lon="7.2909">
        <ele>1205.15</ele>
        <time>2017-07-28T11:15:15Z</time>
      </trkpt>
      <trkpt lat="44.05088" lon="7.29091">
        <ele>1205.15</ele>
        <time>2017-07-28T11:15:42Z</time>
      </trkpt>
      <trkpt lat="44.05088" lon="7.29092">
        <ele>1205.15</ele>
        <time>2017-07-28T11:16:07Z</time>
      </trkpt>
      <trkpt lat="44.05088" lon="7.29092">
        <ele>1205.15</ele>
        <time>2017-07-28T11:16:35Z</time>
      </trkpt>
      <trkpt lat="44.05088" lon="7.29091">
        <ele>1205.63</ele>
        <time>2017-07-28T11:17:00Z</time>
      </trkpt>
      <trkpt lat="44.05089" lon="7.2909">
        <ele>1205.63</ele>
        <time>2017-07-28T11:17:24Z</time>
      </trkpt>
      <trkpt lat="44.05089" lon="7.29091">
        <ele>1205.63</ele>
        <time>2017-07-28T11:17:53Z</time>
      </trkpt>
      <trkpt lat="44.05089" lon="7.29091">
        <ele>1205.63</ele>
        <time>2017-07-28T11:18:25Z</time>
      </trkpt>
      <trkpt lat="44.05088" lon="7.29092">
        <ele>1204.67</ele>
        <time>2017-07-28T11:18:57Z</time>
      </trkpt>
      <trkpt lat="44.05088" lon="7.29092">
        <ele>1204.67</ele>
        <time>2017-07-28T11:19:25Z</time>
      </trkpt>
      <trkpt lat="44.05088" lon="7.29094">
        <ele>1204.67</ele>
        <time>2017-07-28T11:19:55Z</time>
      </trkpt>
      <trkpt lat="44.05089" lon="7.29093">
        <ele>1205.15</ele>
        <time>2017-07-28T11:20:29Z</time>
      </trkpt>
      <trkpt lat="44.05088" lon="7.29093">
        <ele>1205.15</ele>
        <time>2017-07-28T11:21:06Z</time>
      </trkpt>
      <trkpt lat="44.05088" lon="7.29093">
        <ele>1205.15</ele>
        <time>2017-07-28T11:21:38Z</time>
      </trkpt>
      <trkpt lat="44.05087" lon="7.29092">
        <ele>1205.15</ele>
        <time>2017-07-28T11:22:11Z</time>
      </trkpt>
      <trkpt lat="44.05088" lon="7.29093">
        <ele>1205.15</ele>
        <time>2017-07-28T11:22:46Z</time>
      </trkpt>
      <trkpt lat="44.05089" lon="7.29093">
        <ele>1205.15</ele>
        <time>2017-07-28T11:23:17Z</time>
      </trkpt>
      <trkpt lat="44.05088" lon="7.29093">
        <ele>1205.15</ele>
        <time>2017-07-28T11:23:47Z</time>
      </trkpt>
      <trkpt lat="44.05089" lon="7.29093">
        <ele>1205.15</ele>
        <time>2017-07-28T11:24:28Z</time>
      </trkpt>
      <trkpt lat="44.05089" lon="7.29091">
        <ele>1205.15</ele>
        <time>2017-07-28T11:25:01Z</time>
      </trkpt>
      <trkpt lat="44.05086" lon="7.29091">
        <ele>1205.63</ele>
        <time>2017-07-28T11:25:29Z</time>
      </trkpt>
      <trkpt lat="44.05088" lon="7.29092">
        <ele>1205.63</ele>
        <time>2017-07-28T11:26:16Z</time>
      </trkpt>
      <trkpt lat="44.05088" lon="7.29094">
        <ele>1206.11</ele>
        <time>2017-07-28T11:27:00Z</time>
      </trkpt>
      <trkpt lat="44.05086" lon="7.29095">
        <ele>1206.11</ele>
        <time>2017-07-28T11:27:48Z</time>
      </trkpt>
      <trkpt lat="44.05088" lon="7.29095">
        <ele>1206.11</ele>
        <time>2017-07-28T11:28:18Z</time>
      </trkpt>
      <trkpt lat="44.05089" lon="7.29092">
        <ele>1206.11</ele>
        <time>2017-07-28T11:28:58Z</time>
      </trkpt>
      <trkpt lat="44.05088" lon="7.29093">
        <ele>1206.59</ele>
        <time>2017-07-28T11:29:41Z</time>
      </trkpt>
      <trkpt lat="44.05088" lon="7.29092">
        <ele>1206.59</ele>
        <time>2017-07-28T11:30:23Z</time>
      </trkpt>
      <trkpt lat="44.05088" lon="7.29091">
        <ele>1206.59</ele>
        <time>2017-07-28T11:31:07Z</time>
      </trkpt>
      <trkpt lat="44.05088" lon="7.29091">
        <ele>1206.59</ele>
        <time>2017-07-28T11:31:48Z</time>
      </trkpt>
      <trkpt lat="44.05089" lon="7.29092">
        <ele>1206.59</ele>
        <time>2017-07-28T11:32:33Z</time>
      </trkpt>
      <trkpt lat="44.05088" lon="7.29092">
        <ele>1206.59</ele>
        <time>2017-07-28T11:33:12Z</time>
      </trkpt>
      <trkpt lat="44.05088" lon="7.29093">
        <ele>1206.59</ele>
        <time>2017-07-28T11:33:55Z</time>
      </trkpt>
      <trkpt lat="44.05089" lon="7.29092">
        <ele>1206.59</ele>
        <time>2017-07-28T11:34:32Z</time>
      </trkpt>
      <trkpt lat="44.05088" lon="7.29092">
        <ele>1206.59</ele>
        <time>2017-07-28T11:35:27Z</time>
      </trkpt>
      <trkpt lat="44.05088" lon="7.29095">
        <ele>1207.07</ele>
        <time>2017-07-28T11:36:04Z</time>
      </trkpt>
      <trkpt lat="44.05086" lon="7.29092">
        <ele>1207.07</ele>
        <time>2017-07-28T11:36:44Z</time>
      </trkpt>
      <trkpt lat="44.05089" lon="7.29092">
        <ele>1207.07</ele>
        <time>2017-07-28T11:37:28Z</time>
      </trkpt>
      <trkpt lat="44.0509" lon="7.2909">
        <ele>1207.07</ele>
        <time>2017-07-28T11:38:08Z</time>
      </trkpt>
      <trkpt lat="44.0509" lon="7.29091">
        <ele>1207.07</ele>
        <time>2017-07-28T11:38:51Z</time>
      </trkpt>
      <trkpt lat="44.05091" lon="7.29092">
        <ele>1207.07</ele>
        <time>2017-07-28T11:39:36Z</time>
      </trkpt>
      <trkpt lat="44.05089" lon="7.29093">
        <ele>1207.07</ele>
        <time>2017-07-28T11:40:24Z</time>
      </trkpt>
      <trkpt lat="44.0509" lon="7.29093">
        <ele>1207.07</ele>
        <time>2017-07-28T11:41:09Z</time>
      </trkpt>
      <trkpt lat="44.05088" lon="7.29091">
        <ele>1207.07</ele>
        <time>2017-07-28T11:41:53Z</time>
      </trkpt>
      <trkpt lat="44.05087" lon="7.29093">
        <ele>1207.07</ele>
        <time>2017-07-28T11:42:43Z</time>
      </trkpt>
      <trkpt lat="44.05088" lon="7.29093">
        <ele>1207.07</ele>
        <time>2017-07-28T11:43:34Z</time>
      </trkpt>
      <trkpt lat="44.0509" lon="7.2909">
        <ele>1207.07</ele>
        <time>2017-07-28T11:44:29Z</time>
      </trkpt>
      <trkpt lat="44.05089" lon="7.2909">
        <ele>1207.07</ele>
        <time>2017-07-28T11:45:21Z</time>
      </trkpt>
      <trkpt lat="44.05089" lon="7.29093">
        <ele>1208.03</ele>
        <time>2017-07-28T11:46:10Z</time>
      </trkpt>
      <trkpt lat="44.05088" lon="7.29092">
        <ele>1208.03</ele>
        <time>2017-07-28T11:46:40Z</time>
      </trkpt>
      <trkpt lat="44.05088" lon="7.29091">
        <ele>1208.03</ele>
        <time>2017-07-28T11:47:26Z</time>
      </trkpt>
      <trkpt lat="44.05089" lon="7.29091">
        <ele>1208.03</ele>
        <time>2017-07-28T11:48:12Z</time>
      </trkpt>
      <trkpt lat="44.05088" lon="7.29089">
        <ele>1208.03</ele>
        <time>2017-07-28T11:48:44Z</time>
      </trkpt>
      <trkpt lat="44.05086" lon="7.2909">
        <ele>1208.03</ele>
        <time>2017-07-28T11:49:23Z</time>
      </trkpt>
      <trkpt lat="44.05087" lon="7.29091">
        <ele>1208.03</ele>
        <time>2017-07-28T11:50:09Z</time>
      </trkpt>
      <trkpt lat="44.05088" lon="7.29091">
        <ele>1208.03</ele>
        <time>2017-07-28T11:50:55Z</time>
      </trkpt>
      <trkpt lat="44.05087" lon="7.29089">
        <ele>1207.55</ele>
        <time>2017-07-28T11:51:30Z</time>
      </trkpt>
      <trkpt lat="44.05088" lon="7.29091">
        <ele>1207.55</ele>
        <time>2017-07-28T11:52:02Z</time>
      </trkpt>
      <trkpt lat="44.05089" lon="7.29091">
        <ele>1207.55</ele>
        <time>2017-07-28T11:52:36Z</time>
      </trkpt>
      <trkpt lat="44.05089" lon="7.29091">
        <ele>1208.03</ele>
        <time>2017-07-28T11:53:25Z</time>
      </trkpt>
      <trkpt lat="44.05091" lon="7.29091">
        <ele>1208.03</ele>
        <time>2017-07-28T11:54:07Z</time>
      </trkpt>
      <trkpt lat="44.0509" lon="7.29089">
        <ele>1208.03</ele>
        <time>2017-07-28T11:54:52Z</time>
      </trkpt>
      <trkpt lat="44.05088" lon="7.29089">
        <ele>1208.03</ele>
        <time>2017-07-28T11:55:42Z</time>
      </trkpt>
      <trkpt lat="44.05087" lon="7.2909">
        <ele>1208.03</ele>
        <time>2017-07-28T11:56:29Z</time>
      </trkpt>
      <trkpt lat="44.05086" lon="7.29091">
        <ele>1208.03</ele>
        <time>2017-07-28T11:57:20Z</time>
      </trkpt>
      <trkpt lat="44.05087" lon="7.29089">
        <ele>1208.03</ele>
        <time>2017-07-28T11:58:11Z</time>
      </trkpt>
      <trkpt lat="44.05087" lon="7.29088">
        <ele>1208.03</ele>
        <time>2017-07-28T11:58:59Z</time>
      </trkpt>
      <trkpt lat="44.05088" lon="7.2909">
        <ele>1208.03</ele>
        <time>2017-07-28T11:59:41Z</time>
      </trkpt>
      <trkpt lat="44.05088" lon="7.29089">
        <ele>1208.51</ele>
        <time>2017-07-28T12:00:20Z</time>
      </trkpt>
      <trkpt lat="44.05086" lon="7.29089">
        <ele>1208.51</ele>
        <time>2017-07-28T12:01:04Z</time>
      </trkpt>
      <trkpt lat="44.05085" lon="7.2909">
        <ele>1208.51</ele>
        <time>2017-07-28T12:01:54Z</time>
      </trkpt>
      <trkpt lat="44.05087" lon="7.29089">
        <ele>1208.51</ele>
        <time>2017-07-28T12:02:40Z</time>
      </trkpt>
      <trkpt lat="44.05087" lon="7.2909">
        <ele>1208.51</ele>
        <time>2017-07-28T12:03:30Z</time>
      </trkpt>
      <trkpt lat="44.05087" lon="7.29092">
        <ele>1208.51</ele>
        <time>2017-07-28T12:04:17Z</time>
      </trkpt>
      <trkpt lat="44.05088" lon="7.29092">
        <ele>1209</ele>
        <time>2017-07-28T12:04:57Z</time>
      </trkpt>
      <trkpt lat="44.05087" lon="7.29093">
        <ele>1209.48</ele>
        <time>2017-07-28T12:05:20Z</time>
      </trkpt>
      <trkpt lat="44.05087" lon="7.29093">
        <ele>1209.48</ele>
        <time>2017-07-28T12:05:42Z</time>
      </trkpt>
      <trkpt lat="44.05086" lon="7.29094">
        <ele>1209.96</ele>
        <time>2017-07-28T12:06:10Z</time>
      </trkpt>
      <trkpt lat="44.05091" lon="7.29093">
        <ele>1209.96</ele>
        <time>2017-07-28T12:06:24Z</time>
      </trkpt>
      <trkpt lat="44.05094" lon="7.29091">
        <ele>1209.96</ele>
        <time>2017-07-28T12:06:47Z</time>
      </trkpt>
      <trkpt lat="44.051" lon="7.29089">
        <ele>1212.84</ele>
        <time>2017-07-28T12:06:59Z</time>
      </trkpt>
      <trkpt lat="44.0511" lon="7.29081">
        <ele>1213.8</ele>
        <time>2017-07-28T12:07:17Z</time>
      </trkpt>
      <trkpt lat="44.05117" lon="7.29074">
        <ele>1214.76</ele>
        <time>2017-07-28T12:07:31Z</time>
      </trkpt>
      <trkpt lat="44.05125" lon="7.29068">
        <ele>1215.72</ele>
        <time>2017-07-28T12:07:44Z</time>
      </trkpt>
      <trkpt lat="44.05133" lon="7.2906">
        <ele>1216.69</ele>
        <time>2017-07-28T12:07:57Z</time>
      </trkpt>
      <trkpt lat="44.05142" lon="7.29054">
        <ele>1218.61</ele>
        <time>2017-07-28T12:08:13Z</time>
      </trkpt>
      <trkpt lat="44.05151" lon="7.29049">
        <ele>1219.09</ele>
        <time>2017-07-28T12:08:25Z</time>
      </trkpt>
      <trkpt lat="44.05158" lon="7.29041">
        <ele>1220.05</ele>
        <time>2017-07-28T12:08:42Z</time>
      </trkpt>
      <trkpt lat="44.05165" lon="7.2904">
        <ele>1221.49</ele>
        <time>2017-07-28T12:08:56Z</time>
      </trkpt>
      <trkpt lat="44.05172" lon="7.29039">
        <ele>1222.45</ele>
        <time>2017-07-28T12:09:10Z</time>
      </trkpt>
      <trkpt lat="44.05182" lon="7.29034">
        <ele>1221.97</ele>
        <time>2017-07-28T12:09:24Z</time>
      </trkpt>
      <trkpt lat="44.05193" lon="7.29028">
        <ele>1223.42</ele>
        <time>2017-07-28T12:09:38Z</time>
      </trkpt>
      <trkpt lat="44.05202" lon="7.29029">
        <ele>1224.86</ele>
        <time>2017-07-28T12:09:50Z</time>
      </trkpt>
      <trkpt lat="44.05209" lon="7.29039">
        <ele>1225.34</ele>
        <time>2017-07-28T12:10:03Z</time>
      </trkpt>
      <trkpt lat="44.05217" lon="7.29048">
        <ele>1227.26</ele>
        <time>2017-07-28T12:10:17Z</time>
      </trkpt>
      <trkpt lat="44.05223" lon="7.29059">
        <ele>1228.7</ele>
        <time>2017-07-28T12:10:32Z</time>
      </trkpt>
      <trkpt lat="44.05229" lon="7.29069">
        <ele>1229.66</ele>
        <time>2017-07-28T12:10:48Z</time>
      </trkpt>
      <trkpt lat="44.05234" lon="7.29075">
        <ele>1232.07</ele>
        <time>2017-07-28T12:11:03Z</time>
      </trkpt>
      <trkpt lat="44.05245" lon="7.29082">
        <ele>1232.07</ele>
        <time>2017-07-28T12:11:18Z</time>
      </trkpt>
      <trkpt lat="44.05253" lon="7.29088">
        <ele>1233.51</ele>
        <time>2017-07-28T12:11:32Z</time>
      </trkpt>
      <trkpt lat="44.0526" lon="7.29093">
        <ele>1234.47</ele>
        <time>2017-07-28T12:11:45Z</time>
      </trkpt>
      <trkpt lat="44.05269" lon="7.29095">
        <ele>1235.91</ele>
        <time>2017-07-28T12:11:59Z</time>
      </trkpt>
      <trkpt lat="44.05276" lon="7.29092">
        <ele>1237.35</ele>
        <time>2017-07-28T12:12:12Z</time>
      </trkpt>
      <trkpt lat="44.05278" lon="7.29097">
        <ele>1239.28</ele>
        <time>2017-07-28T12:12:26Z</time>
      </trkpt>
      <trkpt lat="44.05283" lon="7.29104">
        <ele>1241.2</ele>
        <time>2017-07-28T12:12:41Z</time>
      </trkpt>
      <trkpt lat="44.05291" lon="7.29109">
        <ele>1242.64</ele>
        <time>2017-07-28T12:12:55Z</time>
      </trkpt>
      <trkpt lat="44.05298" lon="7.2912">
        <ele>1244.56</ele>
        <time>2017-07-28T12:13:12Z</time>
      </trkpt>
      <trkpt lat="44.053" lon="7.29127">
        <ele>1246.01</ele>
        <time>2017-07-28T12:13:25Z</time>
      </trkpt>
      <trkpt lat="44.05306" lon="7.29131">
        <ele>1246.97</ele>
        <time>2017-07-28T12:13:37Z</time>
      </trkpt>
      <trkpt lat="44.05312" lon="7.29139">
        <ele>1247.45</ele>
        <time>2017-07-28T12:13:51Z</time>
      </trkpt>
      <trkpt lat="44.05316" lon="7.29153">
        <ele>1247.45</ele>
        <time>2017-07-28T12:14:06Z</time>
      </trkpt>
      <trkpt lat="44.05324" lon="7.29166">
        <ele>1248.41</ele>
        <time>2017-07-28T12:14:21Z</time>
      </trkpt>
      <trkpt lat="44.0533" lon="7.2917">
        <ele>1249.85</ele>
        <time>2017-07-28T12:14:35Z</time>
      </trkpt>
      <trkpt lat="44.05337" lon="7.29174">
        <ele>1250.33</ele>
        <time>2017-07-28T12:14:45Z</time>
      </trkpt>
      <trkpt lat="44.05343" lon="7.29184">
        <ele>1251.77</ele>
        <time>2017-07-28T12:14:59Z</time>
      </trkpt>
      <trkpt lat="44.05351" lon="7.2919">
        <ele>1253.22</ele>
        <time>2017-07-28T12:15:13Z</time>
      </trkpt>
      <trkpt lat="44.0536" lon="7.29193">
        <ele>1253.22</ele>
        <time>2017-07-28T12:15:26Z</time>
      </trkpt>
      <trkpt lat="44.05367" lon="7.29198">
        <ele>1254.18</ele>
        <time>2017-07-28T12:15:39Z</time>
      </trkpt>
      <trkpt lat="44.05376" lon="7.29195">
        <ele>1255.14</ele>
        <time>2017-07-28T12:15:53Z</time>
      </trkpt>
      <trkpt lat="44.05385" lon="7.29195">
        <ele>1255.14</ele>
        <time>2017-07-28T12:16:07Z</time>
      </trkpt>
      <trkpt lat="44.05397" lon="7.29192">
        <ele>1255.62</ele>
        <time>2017-07-28T12:16:23Z</time>
      </trkpt>
      <trkpt lat="44.05403" lon="7.29188">
        <ele>1254.66</ele>
        <time>2017-07-28T12:16:31Z</time>
      </trkpt>
      <trkpt lat="44.05411" lon="7.29183">
        <ele>1253.22</ele>
        <time>2017-07-28T12:16:50Z</time>
      </trkpt>
      <trkpt lat="44.05411" lon="7.29182">
        <ele>1253.22</ele>
        <time>2017-07-28T12:17:07Z</time>
      </trkpt>
      <trkpt lat="44.05407" lon="7.2918">
        <ele>1253.7</ele>
        <time>2017-07-28T12:17:27Z</time>
      </trkpt>
      <trkpt lat="44.05404" lon="7.29183">
        <ele>1254.66</ele>
        <time>2017-07-28T12:17:45Z</time>
      </trkpt>
      <trkpt lat="44.05403" lon="7.29183">
        <ele>1254.66</ele>
        <time>2017-07-28T12:17:46Z</time>
      </trkpt>
      <trkpt lat="44.05401" lon="7.29186">
        <ele>1258.98</ele>
        <time>2017-07-28T12:17:55Z</time>
      </trkpt>
      <trkpt lat="44.05396" lon="7.29189">
        <ele>1256.58</ele>
        <time>2017-07-28T12:18:11Z</time>
      </trkpt>
      <trkpt lat="44.05394" lon="7.2919">
        <ele>1258.02</ele>
        <time>2017-07-28T12:18:17Z</time>
      </trkpt>
      <trkpt lat="44.05385" lon="7.29196">
        <ele>1260.43</ele>
        <time>2017-07-28T12:18:33Z</time>
      </trkpt>
      <trkpt lat="44.05375" lon="7.29202">
        <ele>1261.87</ele>
        <time>2017-07-28T12:18:50Z</time>
      </trkpt>
      <trkpt lat="44.05368" lon="7.29204">
        <ele>1263.31</ele>
        <time>2017-07-28T12:19:04Z</time>
      </trkpt>
      <trkpt lat="44.05358" lon="7.29203">
        <ele>1265.71</ele>
        <time>2017-07-28T12:19:20Z</time>
      </trkpt>
      <trkpt lat="44.0535" lon="7.29205">
        <ele>1267.16</ele>
        <time>2017-07-28T12:19:34Z</time>
      </trkpt>
      <trkpt lat="44.05344" lon="7.29204">
        <ele>1271</ele>
        <time>2017-07-28T12:19:49Z</time>
      </trkpt>
      <trkpt lat="44.05342" lon="7.29205">
        <ele>1271.48</ele>
        <time>2017-07-28T12:20:00Z</time>
      </trkpt>
      <trkpt lat="44.05333" lon="7.29205">
        <ele>1271.96</ele>
        <time>2017-07-28T12:20:17Z</time>
      </trkpt>
      <trkpt lat="44.05322" lon="7.29206">
        <ele>1275.33</ele>
        <time>2017-07-28T12:20:35Z</time>
      </trkpt>
      <trkpt lat="44.05313" lon="7.29204">
        <ele>1277.73</ele>
        <time>2017-07-28T12:20:51Z</time>
      </trkpt>
      <trkpt lat="44.05303" lon="7.29201">
        <ele>1278.69</ele>
        <time>2017-07-28T12:21:06Z</time>
      </trkpt>
      <trkpt lat="44.05295" lon="7.29202">
        <ele>1281.57</ele>
        <time>2017-07-28T12:21:20Z</time>
      </trkpt>
      <trkpt lat="44.05288" lon="7.292">
        <ele>1283.5</ele>
        <time>2017-07-28T12:21:36Z</time>
      </trkpt>
      <trkpt lat="44.05282" lon="7.29199">
        <ele>1286.38</ele>
        <time>2017-07-28T12:21:53Z</time>
      </trkpt>
      <trkpt lat="44.05274" lon="7.29198">
        <ele>1288.3</ele>
        <time>2017-07-28T12:22:08Z</time>
      </trkpt>
      <trkpt lat="44.05264" lon="7.292">
        <ele>1290.23</ele>
        <time>2017-07-28T12:22:24Z</time>
      </trkpt>
      <trkpt lat="44.05258" lon="7.29199">
        <ele>1290.71</ele>
        <time>2017-07-28T12:22:40Z</time>
      </trkpt>
      <trkpt lat="44.05264" lon="7.29203">
        <ele>1290.71</ele>
        <time>2017-07-28T12:22:55Z</time>
      </trkpt>
      <trkpt lat="44.05273" lon="7.29219">
        <ele>1292.63</ele>
        <time>2017-07-28T12:23:13Z</time>
      </trkpt>
      <trkpt lat="44.05278" lon="7.29224">
        <ele>1294.55</ele>
        <time>2017-07-28T12:23:29Z</time>
      </trkpt>
      <trkpt lat="44.0528" lon="7.29231">
        <ele>1296.48</ele>
        <time>2017-07-28T12:23:42Z</time>
      </trkpt>
      <trkpt lat="44.05282" lon="7.29242">
        <ele>1298.88</ele>
        <time>2017-07-28T12:23:58Z</time>
      </trkpt>
      <trkpt lat="44.05283" lon="7.29253">
        <ele>1300.8</ele>
        <time>2017-07-28T12:24:13Z</time>
      </trkpt>
      <trkpt lat="44.05289" lon="7.2926">
        <ele>1303.2</ele>
        <time>2017-07-28T12:24:30Z</time>
      </trkpt>
      <trkpt lat="44.05295" lon="7.29268">
        <ele>1305.13</ele>
        <time>2017-07-28T12:24:46Z</time>
      </trkpt>
      <trkpt lat="44.05295" lon="7.29275">
        <ele>1306.57</ele>
        <time>2017-07-28T12:24:59Z</time>
      </trkpt>
      <trkpt lat="44.05298" lon="7.29279">
        <ele>1308.49</ele>
        <time>2017-07-28T12:25:14Z</time>
      </trkpt>
      <trkpt lat="44.05301" lon="7.29285">
        <ele>1310.9</ele>
        <time>2017-07-28T12:25:28Z</time>
      </trkpt>
      <trkpt lat="44.05308" lon="7.29287">
        <ele>1313.3</ele>
        <time>2017-07-28T12:25:46Z</time>
      </trkpt>
      <trkpt lat="44.05309" lon="7.29296">
        <ele>1314.74</ele>
        <time>2017-07-28T12:26:00Z</time>
      </trkpt>
      <trkpt lat="44.05315" lon="7.29299">
        <ele>1316.66</ele>
        <time>2017-07-28T12:26:15Z</time>
      </trkpt>
      <trkpt lat="44.05321" lon="7.293">
        <ele>1318.1</ele>
        <time>2017-07-28T12:26:30Z</time>
      </trkpt>
      <trkpt lat="44.05324" lon="7.293">
        <ele>1319.07</ele>
        <time>2017-07-28T12:26:52Z</time>
      </trkpt>
      <trkpt lat="44.05331" lon="7.293">
        <ele>1320.03</ele>
        <time>2017-07-28T12:27:07Z</time>
      </trkpt>
      <trkpt lat="44.05334" lon="7.29302">
        <ele>1320.99</ele>
        <time>2017-07-28T12:27:23Z</time>
      </trkpt>
      <trkpt lat="44.05337" lon="7.29305">
        <ele>1320.99</ele>
        <time>2017-07-28T12:27:37Z</time>
      </trkpt>
      <trkpt lat="44.05348" lon="7.29307">
        <ele>1322.91</ele>
        <time>2017-07-28T12:27:52Z</time>
      </trkpt>
      <trkpt lat="44.05356" lon="7.29314">
        <ele>1324.35</ele>
        <time>2017-07-28T12:28:08Z</time>
      </trkpt>
      <trkpt lat="44.05366" lon="7.2932">
        <ele>1326.76</ele>
        <time>2017-07-28T12:28:26Z</time>
      </trkpt>
      <trkpt lat="44.05376" lon="7.29324">
        <ele>1329.16</ele>
        <time>2017-07-28T12:28:43Z</time>
      </trkpt>
      <trkpt lat="44.05381" lon="7.29328">
        <ele>1330.6</ele>
        <time>2017-07-28T12:28:57Z</time>
      </trkpt>
      <trkpt lat="44.05389" lon="7.29331">
        <ele>1333.01</ele>
        <time>2017-07-28T12:29:14Z</time>
      </trkpt>
      <trkpt lat="44.05395" lon="7.29333">
        <ele>1334.93</ele>
        <time>2017-07-28T12:29:28Z</time>
      </trkpt>
      <trkpt lat="44.05401" lon="7.29332">
        <ele>1336.85</ele>
        <time>2017-07-28T12:29:44Z</time>
      </trkpt>
      <trkpt lat="44.05406" lon="7.29332">
        <ele>1338.29</ele>
        <time>2017-07-28T12:30:00Z</time>
      </trkpt>
      <trkpt lat="44.05407" lon="7.2934">
        <ele>1340.22</ele>
        <time>2017-07-28T12:30:20Z</time>
      </trkpt>
      <trkpt lat="44.05404" lon="7.29345">
        <ele>1342.14</ele>
        <time>2017-07-28T12:30:36Z</time>
      </trkpt>
      <trkpt lat="44.05399" lon="7.29348">
        <ele>1343.58</ele>
        <time>2017-07-28T12:30:50Z</time>
      </trkpt>
      <trkpt lat="44.05393" lon="7.29356">
        <ele>1345.5</ele>
        <time>2017-07-28T12:31:07Z</time>
      </trkpt>
      <trkpt lat="44.05388" lon="7.29365">
        <ele>1347.43</ele>
        <time>2017-07-28T12:31:21Z</time>
      </trkpt>
      <trkpt lat="44.05381" lon="7.29371">
        <ele>1349.83</ele>
        <time>2017-07-28T12:31:38Z</time>
      </trkpt>
      <trkpt lat="44.05377" lon="7.29375">
        <ele>1350.79</ele>
        <time>2017-07-28T12:31:56Z</time>
      </trkpt>
      <trkpt lat="44.05377" lon="7.29377">
        <ele>1350.79</ele>
        <time>2017-07-28T12:32:16Z</time>
      </trkpt>
      <trkpt lat="44.05377" lon="7.29379">
        <ele>1350.79</ele>
        <time>2017-07-28T12:32:37Z</time>
      </trkpt>
      <trkpt lat="44.05373" lon="7.29375">
        <ele>1349.83</ele>
        <time>2017-07-28T12:32:51Z</time>
      </trkpt>
      <trkpt lat="44.05369" lon="7.29373">
        <ele>1347.91</ele>
        <time>2017-07-28T12:33:03Z</time>
      </trkpt>
      <trkpt lat="44.05361" lon="7.29376">
        <ele>1345.5</ele>
        <time>2017-07-28T12:33:15Z</time>
      </trkpt>
      <trkpt lat="44.05359" lon="7.29378">
        <ele>1344.54</ele>
        <time>2017-07-28T12:33:32Z</time>
      </trkpt>
      <trkpt lat="44.0536" lon="7.29389">
        <ele>1343.1</ele>
        <time>2017-07-28T12:33:47Z</time>
      </trkpt>
      <trkpt lat="44.05359" lon="7.29399">
        <ele>1340.22</ele>
        <time>2017-07-28T12:34:02Z</time>
      </trkpt>
      <trkpt lat="44.05355" lon="7.29404">
        <ele>1337.81</ele>
        <time>2017-07-28T12:34:16Z</time>
      </trkpt>
      <trkpt lat="44.0535" lon="7.29412">
        <ele>1334.93</ele>
        <time>2017-07-28T12:34:30Z</time>
      </trkpt>
      <trkpt lat="44.05347" lon="7.29428">
        <ele>1332.04</ele>
        <time>2017-07-28T12:34:45Z</time>
      </trkpt>
      <trkpt lat="44.05343" lon="7.29437">
        <ele>1329.64</ele>
        <time>2017-07-28T12:34:59Z</time>
      </trkpt>
      <trkpt lat="44.05341" lon="7.29442">
        <ele>1328.2</ele>
        <time>2017-07-28T12:35:11Z</time>
      </trkpt>
      <trkpt lat="44.05335" lon="7.29443">
        <ele>1324.83</ele>
        <time>2017-07-28T12:35:25Z</time>
      </trkpt>
      <trkpt lat="44.05333" lon="7.29432">
        <ele>1323.39</ele>
        <time>2017-07-28T12:35:37Z</time>
      </trkpt>
      <trkpt lat="44.0533" lon="7.29422">
        <ele>1321.47</ele>
        <time>2017-07-28T12:35:50Z</time>
      </trkpt>
      <trkpt lat="44.05324" lon="7.29412">
        <ele>1319.07</ele>
        <time>2017-07-28T12:36:07Z</time>
      </trkpt>
      <trkpt lat="44.05324" lon="7.29419">
        <ele>1318.1</ele>
        <time>2017-07-28T12:36:26Z</time>
      </trkpt>
      <trkpt lat="44.05324" lon="7.29429">
        <ele>1316.18</ele>
        <time>2017-07-28T12:36:40Z</time>
      </trkpt>
      <trkpt lat="44.05321" lon="7.2943">
        <ele>1313.3</ele>
        <time>2017-07-28T12:36:56Z</time>
      </trkpt>
      <trkpt lat="44.05318" lon="7.2943">
        <ele>1311.38</ele>
        <time>2017-07-28T12:37:09Z</time>
      </trkpt>
      <trkpt lat="44.05316" lon="7.29442">
        <ele>1309.45</ele>
        <time>2017-07-28T12:37:23Z</time>
      </trkpt>
      <trkpt lat="44.05313" lon="7.29455">
        <ele>1306.57</ele>
        <time>2017-07-28T12:37:38Z</time>
      </trkpt>
      <trkpt lat="44.0531" lon="7.29455">
        <ele>1305.13</ele>
        <time>2017-07-28T12:37:51Z</time>
      </trkpt>
      <trkpt lat="44.05307" lon="7.29458">
        <ele>1303.2</ele>
        <time>2017-07-28T12:38:04Z</time>
      </trkpt>
      <trkpt lat="44.05305" lon="7.29468">
        <ele>1300.8</ele>
        <time>2017-07-28T12:38:18Z</time>
      </trkpt>
      <trkpt lat="44.05302" lon="7.29473">
        <ele>1299.36</ele>
        <time>2017-07-28T12:38:36Z</time>
      </trkpt>
      <trkpt lat="44.05298" lon="7.29486">
        <ele>1296.48</ele>
        <time>2017-07-28T12:38:52Z</time>
      </trkpt>
      <trkpt lat="44.05295" lon="7.2949">
        <ele>1294.07</ele>
        <time>2017-07-28T12:39:07Z</time>
      </trkpt>
      <trkpt lat="44.05289" lon="7.2948">
        <ele>1291.67</ele>
        <time>2017-07-28T12:39:23Z</time>
      </trkpt>
      <trkpt lat="44.05287" lon="7.29486">
        <ele>1289.75</ele>
        <time>2017-07-28T12:39:36Z</time>
      </trkpt>
      <trkpt lat="44.05283" lon="7.2949">
        <ele>1287.34</ele>
        <time>2017-07-28T12:39:50Z</time>
      </trkpt>
      <trkpt lat="44.05279" lon="7.29498">
        <ele>1284.94</ele>
        <time>2017-07-28T12:40:05Z</time>
      </trkpt>
      <trkpt lat="44.05277" lon="7.29504">
        <ele>1282.06</ele>
        <time>2017-07-28T12:40:19Z</time>
      </trkpt>
      <trkpt lat="44.05274" lon="7.29509">
        <ele>1279.17</ele>
        <time>2017-07-28T12:40:33Z</time>
      </trkpt>
      <trkpt lat="44.0527" lon="7.29517">
        <ele>1276.29</ele>
        <time>2017-07-28T12:40:48Z</time>
      </trkpt>
      <trkpt lat="44.05266" lon="7.29509">
        <ele>1274.36</ele>
        <time>2017-07-28T12:41:01Z</time>
      </trkpt>
      <trkpt lat="44.05262" lon="7.29518">
        <ele>1271.96</ele>
        <time>2017-07-28T12:41:14Z</time>
      </trkpt>
      <trkpt lat="44.05259" lon="7.29525">
        <ele>1268.6</ele>
        <time>2017-07-28T12:41:27Z</time>
      </trkpt>
      <trkpt lat="44.05253" lon="7.29525">
        <ele>1266.67</ele>
        <time>2017-07-28T12:41:43Z</time>
      </trkpt>
      <trkpt lat="44.05249" lon="7.29515">
        <ele>1263.79</ele>
        <time>2017-07-28T12:41:57Z</time>
      </trkpt>
      <trkpt lat="44.05244" lon="7.29514">
        <ele>1261.87</ele>
        <time>2017-07-28T12:42:10Z</time>
      </trkpt>
      <trkpt lat="44.05243" lon="7.29523">
        <ele>1258.98</ele>
        <time>2017-07-28T12:42:26Z</time>
      </trkpt>
      <trkpt lat="44.0524" lon="7.29531">
        <ele>1256.1</ele>
        <time>2017-07-28T12:42:39Z</time>
      </trkpt>
      <trkpt lat="44.05236" lon="7.29544">
        <ele>1253.22</ele>
        <time>2017-07-28T12:42:54Z</time>
      </trkpt>
      <trkpt lat="44.0523" lon="7.2954">
        <ele>1250.33</ele>
        <time>2017-07-28T12:43:10Z</time>
      </trkpt>
      <trkpt lat="44.05228" lon="7.2955">
        <ele>1246.97</ele>
        <time>2017-07-28T12:43:27Z</time>
      </trkpt>
      <trkpt lat="44.05227" lon="7.29554">
        <ele>1244.08</ele>
        <time>2017-07-28T12:43:41Z</time>
      </trkpt>
      <trkpt lat="44.05223" lon="7.2956">
        <ele>1242.16</ele>
        <time>2017-07-28T12:43:54Z</time>
      </trkpt>
      <trkpt lat="44.05218" lon="7.29553">
        <ele>1239.28</ele>
        <time>2017-07-28T12:44:08Z</time>
      </trkpt>
      <trkpt lat="44.05215" lon="7.29556">
        <ele>1236.87</ele>
        <time>2017-07-28T12:44:19Z</time>
      </trkpt>
      <trkpt lat="44.05209" lon="7.2956">
        <ele>1233.99</ele>
        <time>2017-07-28T12:44:34Z</time>
      </trkpt>
      <trkpt lat="44.05204" lon="7.29561">
        <ele>1231.11</ele>
        <time>2017-07-28T12:44:49Z</time>
      </trkpt>
      <trkpt lat="44.05204" lon="7.29568">
        <ele>1228.7</ele>
        <time>2017-07-28T12:45:01Z</time>
      </trkpt>
      <trkpt lat="44.052" lon="7.29572">
        <ele>1227.74</ele>
        <time>2017-07-28T12:45:14Z</time>
      </trkpt>
      <trkpt lat="44.05199" lon="7.29572">
        <ele>1226.78</ele>
        <time>2017-07-28T12:45:37Z</time>
      </trkpt>
      <trkpt lat="44.05199" lon="7.29572">
        <ele>1225.82</ele>
        <time>2017-07-28T12:45:59Z</time>
      </trkpt>
      <trkpt lat="44.05199" lon="7.29572">
        <ele>1227.74</ele>
        <time>2017-07-28T12:46:01Z</time>
      </trkpt>
      <trkpt lat="44.05193" lon="7.29569">
        <ele>1224.86</ele>
        <time>2017-07-28T12:46:22Z</time>
      </trkpt>
      <trkpt lat="44.05189" lon="7.2957">
        <ele>1222.45</ele>
        <time>2017-07-28T12:46:37Z</time>
      </trkpt>
      <trkpt lat="44.05186" lon="7.29577">
        <ele>1220.05</ele>
        <time>2017-07-28T12:46:49Z</time>
      </trkpt>
      <trkpt lat="44.05181" lon="7.29577">
        <ele>1216.69</ele>
        <time>2017-07-28T12:47:02Z</time>
      </trkpt>
      <trkpt lat="44.05175" lon="7.29579">
        <ele>1214.28</ele>
        <time>2017-07-28T12:47:16Z</time>
      </trkpt>
      <trkpt lat="44.05172" lon="7.2959">
        <ele>1211.4</ele>
        <time>2017-07-28T12:47:29Z</time>
      </trkpt>
      <trkpt lat="44.0517" lon="7.29598">
        <ele>1209.48</ele>
        <time>2017-07-28T12:47:42Z</time>
      </trkpt>
      <trkpt lat="44.0517" lon="7.296">
        <ele>1209.48</ele>
        <time>2017-07-28T12:48:01Z</time>
      </trkpt>
      <trkpt lat="44.05172" lon="7.29611">
        <ele>1207.07</ele>
        <time>2017-07-28T12:48:13Z</time>
      </trkpt>
      <trkpt lat="44.05175" lon="7.2962">
        <ele>1204.19</ele>
        <time>2017-07-28T12:48:26Z</time>
      </trkpt>
      <trkpt lat="44.05175" lon="7.29627">
        <ele>1201.3</ele>
        <time>2017-07-28T12:48:42Z</time>
      </trkpt>
      <trkpt lat="44.05181" lon="7.29637">
        <ele>1198.42</ele>
        <time>2017-07-28T12:48:57Z</time>
      </trkpt>
      <trkpt lat="44.0519" lon="7.29647">
        <ele>1196.02</ele>
        <time>2017-07-28T12:49:13Z</time>
      </trkpt>
      <trkpt lat="44.05187" lon="7.2965">
        <ele>1194.09</ele>
        <time>2017-07-28T12:49:30Z</time>
      </trkpt>
      <trkpt lat="44.05179" lon="7.29649">
        <ele>1192.17</ele>
        <time>2017-07-28T12:49:43Z</time>
      </trkpt>
      <trkpt lat="44.05174" lon="7.2965">
        <ele>1190.25</ele>
        <time>2017-07-28T12:49:55Z</time>
      </trkpt>
      <trkpt lat="44.0517" lon="7.29652">
        <ele>1187.85</ele>
        <time>2017-07-28T12:50:09Z</time>
      </trkpt>
      <trkpt lat="44.05177" lon="7.2966">
        <ele>1184.48</ele>
        <time>2017-07-28T12:50:24Z</time>
      </trkpt>
      <trkpt lat="44.05181" lon="7.29668">
        <ele>1181.6</ele>
        <time>2017-07-28T12:50:37Z</time>
      </trkpt>
      <trkpt lat="44.05176" lon="7.2967">
        <ele>1179.67</ele>
        <time>2017-07-28T12:50:48Z</time>
      </trkpt>
      <trkpt lat="44.05173" lon="7.29672">
        <ele>1177.75</ele>
        <time>2017-07-28T12:51:01Z</time>
      </trkpt>
      <trkpt lat="44.0518" lon="7.29678">
        <ele>1174.39</ele>
        <time>2017-07-28T12:51:15Z</time>
      </trkpt>
      <trkpt lat="44.05174" lon="7.29682">
        <ele>1171.5</ele>
        <time>2017-07-28T12:51:30Z</time>
      </trkpt>
      <trkpt lat="44.05171" lon="7.29686">
        <ele>1169.58</ele>
        <time>2017-07-28T12:51:44Z</time>
      </trkpt>
      <trkpt lat="44.0518" lon="7.29693">
        <ele>1166.7</ele>
        <time>2017-07-28T12:52:00Z</time>
      </trkpt>
      <trkpt lat="44.05189" lon="7.29696">
        <ele>1165.26</ele>
        <time>2017-07-28T12:52:17Z</time>
      </trkpt>
      <trkpt lat="44.05189" lon="7.29695">
        <ele>1163.81</ele>
        <time>2017-07-28T12:52:44Z</time>
      </trkpt>
      <trkpt lat="44.05193" lon="7.29697">
        <ele>1162.37</ele>
        <time>2017-07-28T12:53:01Z</time>
      </trkpt>
      <trkpt lat="44.0519" lon="7.29699">
        <ele>1162.37</ele>
        <time>2017-07-28T12:53:22Z</time>
      </trkpt>
      <trkpt lat="44.05191" lon="7.29699">
        <ele>1162.37</ele>
        <time>2017-07-28T12:53:43Z</time>
      </trkpt>
      <trkpt lat="44.05191" lon="7.297">
        <ele>1162.37</ele>
        <time>2017-07-28T12:54:13Z</time>
      </trkpt>
      <trkpt lat="44.05193" lon="7.29708">
        <ele>1160.45</ele>
        <time>2017-07-28T12:54:30Z</time>
      </trkpt>
      <trkpt lat="44.05187" lon="7.2971">
        <ele>1159.01</ele>
        <time>2017-07-28T12:54:46Z</time>
      </trkpt>
      <trkpt lat="44.05187" lon="7.29712">
        <ele>1158.53</ele>
        <time>2017-07-28T12:55:07Z</time>
      </trkpt>
      <trkpt lat="44.05184" lon="7.2971">
        <ele>1158.53</ele>
        <time>2017-07-28T12:55:27Z</time>
      </trkpt>
      <trkpt lat="44.05182" lon="7.29709">
        <ele>1158.05</ele>
        <time>2017-07-28T12:55:50Z</time>
      </trkpt>
      <trkpt lat="44.05183" lon="7.2971">
        <ele>1157.56</ele>
        <time>2017-07-28T12:56:11Z</time>
      </trkpt>
      <trkpt lat="44.05181" lon="7.29713">
        <ele>1155.64</ele>
        <time>2017-07-28T12:56:26Z</time>
      </trkpt>
      <trkpt lat="44.05188" lon="7.29719">
        <ele>1152.28</ele>
        <time>2017-07-28T12:56:43Z</time>
      </trkpt>
      <trkpt lat="44.05186" lon="7.29726">
        <ele>1148.91</ele>
        <time>2017-07-28T12:56:59Z</time>
      </trkpt>
      <trkpt lat="44.05177" lon="7.29729">
        <ele>1146.03</ele>
        <time>2017-07-28T12:57:14Z</time>
      </trkpt>
      <trkpt lat="44.0517" lon="7.29734">
        <ele>1142.66</ele>
        <time>2017-07-28T12:57:27Z</time>
      </trkpt>
      <trkpt lat="44.0516" lon="7.29736">
        <ele>1140.26</ele>
        <time>2017-07-28T12:57:42Z</time>
      </trkpt>
      <trkpt lat="44.0515" lon="7.29735">
        <ele>1137.38</ele>
        <time>2017-07-28T12:57:57Z</time>
      </trkpt>
      <trkpt lat="44.05141" lon="7.29734">
        <ele>1135.45</ele>
        <time>2017-07-28T12:58:11Z</time>
      </trkpt>
      <trkpt lat="44.05135" lon="7.29735">
        <ele>1132.57</ele>
        <time>2017-07-28T12:58:24Z</time>
      </trkpt>
      <trkpt lat="44.05143" lon="7.29744">
        <ele>1130.17</ele>
        <time>2017-07-28T12:58:39Z</time>
      </trkpt>
      <trkpt lat="44.05149" lon="7.29752">
        <ele>1127.76</ele>
        <time>2017-07-28T12:58:54Z</time>
      </trkpt>
      <trkpt lat="44.0515" lon="7.29759">
        <ele>1124.88</ele>
        <time>2017-07-28T12:59:10Z</time>
      </trkpt>
      <trkpt lat="44.05161" lon="7.29765">
        <ele>1122.48</ele>
        <time>2017-07-28T12:59:23Z</time>
      </trkpt>
      <trkpt lat="44.05156" lon="7.29773">
        <ele>1120.55</ele>
        <time>2017-07-28T12:59:36Z</time>
      </trkpt>
      <trkpt lat="44.05148" lon="7.29776">
        <ele>1117.19</ele>
        <time>2017-07-28T12:59:47Z</time>
      </trkpt>
      <trkpt lat="44.05146" lon="7.29782">
        <ele>1114.79</ele>
        <time>2017-07-28T13:00:00Z</time>
      </trkpt>
      <trkpt lat="44.05141" lon="7.29783">
        <ele>1112.38</ele>
        <time>2017-07-28T13:00:14Z</time>
      </trkpt>
      <trkpt lat="44.05131" lon="7.29783">
        <ele>1109.02</ele>
        <time>2017-07-28T13:00:27Z</time>
      </trkpt>
      <trkpt lat="44.05122" lon="7.29779">
        <ele>1106.13</ele>
        <time>2017-07-28T13:00:41Z</time>
      </trkpt>
      <trkpt lat="44.05126" lon="7.2979">
        <ele>1102.77</ele>
        <time>2017-07-28T13:00:57Z</time>
      </trkpt>
      <trkpt lat="44.05122" lon="7.29795">
        <ele>1100.37</ele>
        <time>2017-07-28T13:01:11Z</time>
      </trkpt>
      <trkpt lat="44.05123" lon="7.29803">
        <ele>1097.48</ele>
        <time>2017-07-28T13:01:24Z</time>
      </trkpt>
      <trkpt lat="44.05118" lon="7.29807">
        <ele>1094.6</ele>
        <time>2017-07-28T13:01:37Z</time>
      </trkpt>
      <trkpt lat="44.05121" lon="7.29827">
        <ele>1092.2</ele>
        <time>2017-07-28T13:01:52Z</time>
      </trkpt>
      <trkpt lat="44.0512" lon="7.29838">
        <ele>1089.31</ele>
        <time>2017-07-28T13:02:05Z</time>
      </trkpt>
      <trkpt lat="44.05128" lon="7.2984">
        <ele>1086.91</ele>
        <time>2017-07-28T13:02:17Z</time>
      </trkpt>
      <trkpt lat="44.05141" lon="7.29847">
        <ele>1084.02</ele>
        <time>2017-07-28T13:02:32Z</time>
      </trkpt>
      <trkpt lat="44.05148" lon="7.29855">
        <ele>1081.14</ele>
        <time>2017-07-28T13:02:46Z</time>
      </trkpt>
      <trkpt lat="44.0515" lon="7.29859">
        <ele>1077.78</ele>
        <time>2017-07-28T13:02:57Z</time>
      </trkpt>
      <trkpt lat="44.05156" lon="7.29864">
        <ele>1074.89</ele>
        <time>2017-07-28T13:03:12Z</time>
      </trkpt>
      <trkpt lat="44.0516" lon="7.29867">
        <ele>1072.01</ele>
        <time>2017-07-28T13:03:29Z</time>
      </trkpt>
      <trkpt lat="44.05157" lon="7.29879">
        <ele>1069.12</ele>
        <time>2017-07-28T13:03:41Z</time>
      </trkpt>
      <trkpt lat="44.05151" lon="7.29885">
        <ele>1066.24</ele>
        <time>2017-07-28T13:03:54Z</time>
      </trkpt>
      <trkpt lat="44.05154" lon="7.2989">
        <ele>1064.32</ele>
        <time>2017-07-28T13:04:08Z</time>
      </trkpt>
      <trkpt lat="44.05145" lon="7.29893">
        <ele>1061.43</ele>
        <time>2017-07-28T13:04:21Z</time>
      </trkpt>
      <trkpt lat="44.05137" lon="7.29893">
        <ele>1059.03</ele>
        <time>2017-07-28T13:04:33Z</time>
      </trkpt>
      <trkpt lat="44.05145" lon="7.29904">
        <ele>1056.63</ele>
        <time>2017-07-28T13:04:49Z</time>
      </trkpt>
      <trkpt lat="44.05148" lon="7.29908">
        <ele>1053.74</ele>
        <time>2017-07-28T13:05:03Z</time>
      </trkpt>
      <trkpt lat="44.05138" lon="7.29904">
        <ele>1052.3</ele>
        <time>2017-07-28T13:05:16Z</time>
      </trkpt>
      <trkpt lat="44.05129" lon="7.29903">
        <ele>1049.9</ele>
        <time>2017-07-28T13:05:27Z</time>
      </trkpt>
      <trkpt lat="44.05127" lon="7.29905">
        <ele>1047.49</ele>
        <time>2017-07-28T13:05:40Z</time>
      </trkpt>
      <trkpt lat="44.05128" lon="7.29911">
        <ele>1045.09</ele>
        <time>2017-07-28T13:05:53Z</time>
      </trkpt>
      <trkpt lat="44.0513" lon="7.29923">
        <ele>1042.21</ele>
        <time>2017-07-28T13:06:05Z</time>
      </trkpt>
      <trkpt lat="44.05125" lon="7.29927">
        <ele>1038.84</ele>
        <time>2017-07-28T13:06:17Z</time>
      </trkpt>
      <trkpt lat="44.05128" lon="7.29928">
        <ele>1038.84</ele>
        <time>2017-07-28T13:06:41Z</time>
      </trkpt>
      <trkpt lat="44.05131" lon="7.29936">
        <ele>1037.4</ele>
        <time>2017-07-28T13:07:02Z</time>
      </trkpt>
      <trkpt lat="44.05132" lon="7.29945">
        <ele>1037.4</ele>
        <time>2017-07-28T13:07:18Z</time>
      </trkpt>
      <trkpt lat="44.05128" lon="7.29952">
        <ele>1036.92</ele>
        <time>2017-07-28T13:07:34Z</time>
      </trkpt>
      <trkpt lat="44.05122" lon="7.29954">
        <ele>1038.84</ele>
        <time>2017-07-28T13:07:50Z</time>
      </trkpt>
      <trkpt lat="44.05118" lon="7.29951">
        <ele>1041.25</ele>
        <time>2017-07-28T13:08:06Z</time>
      </trkpt>
      <trkpt lat="44.05112" lon="7.29942">
        <ele>1042.21</ele>
        <time>2017-07-28T13:08:21Z</time>
      </trkpt>
      <trkpt lat="44.05113" lon="7.29945">
        <ele>1042.21</ele>
        <time>2017-07-28T13:08:41Z</time>
      </trkpt>
      <trkpt lat="44.05107" lon="7.29944">
        <ele>1043.65</ele>
        <time>2017-07-28T13:08:55Z</time>
      </trkpt>
      <trkpt lat="44.05095" lon="7.29949">
        <ele>1044.61</ele>
        <time>2017-07-28T13:09:10Z</time>
      </trkpt>
      <trkpt lat="44.0509" lon="7.29967">
        <ele>1044.61</ele>
        <time>2017-07-28T13:09:27Z</time>
      </trkpt>
      <trkpt lat="44.05081" lon="7.29974">
        <ele>1044.61</ele>
        <time>2017-07-28T13:09:42Z</time>
      </trkpt>
      <trkpt lat="44.05072" lon="7.29982">
        <ele>1044.61</ele>
        <time>2017-07-28T13:09:56Z</time>
      </trkpt>
      <trkpt lat="44.05064" lon="7.29987">
        <ele>1044.61</ele>
        <time>2017-07-28T13:10:07Z</time>
      </trkpt>
      <trkpt lat="44.05052" lon="7.29997">
        <ele>1044.13</ele>
        <time>2017-07-28T13:10:22Z</time>
      </trkpt>
      <trkpt lat="44.05039" lon="7.30008">
        <ele>1044.13</ele>
        <time>2017-07-28T13:10:37Z</time>
      </trkpt>
      <trkpt lat="44.0503" lon="7.3002">
        <ele>1043.65</ele>
        <time>2017-07-28T13:10:50Z</time>
      </trkpt>
      <trkpt lat="44.05017" lon="7.30011">
        <ele>1043.65</ele>
        <time>2017-07-28T13:11:06Z</time>
      </trkpt>
      <trkpt lat="44.05016" lon="7.3001">
        <ele>1042.21</ele>
        <time>2017-07-28T13:11:08Z</time>
      </trkpt>
      <trkpt lat="44.05002" lon="7.3001">
        <ele>1042.21</ele>
        <time>2017-07-28T13:11:21Z</time>
      </trkpt>
      <trkpt lat="44.04991" lon="7.30015">
        <ele>1041.25</ele>
        <time>2017-07-28T13:11:36Z</time>
      </trkpt>
      <trkpt lat="44.04983" lon="7.30019">
        <ele>1041.25</ele>
        <time>2017-07-28T13:11:57Z</time>
      </trkpt>
      <trkpt lat="44.04981" lon="7.30015">
        <ele>1040.76</ele>
        <time>2017-07-28T13:12:24Z</time>
      </trkpt>
      <trkpt lat="44.04982" lon="7.3001">
        <ele>1040.76</ele>
        <time>2017-07-28T13:13:00Z</time>
      </trkpt>
      <trkpt lat="44.04978" lon="7.30014">
        <ele>1040.76</ele>
        <time>2017-07-28T13:13:36Z</time>
      </trkpt>
      <trkpt lat="44.04972" lon="7.30022">
        <ele>1040.76</ele>
        <time>2017-07-28T13:13:47Z</time>
      </trkpt>
      <trkpt lat="44.04958" lon="7.3003">
        <ele>1040.76</ele>
        <time>2017-07-28T13:14:03Z</time>
      </trkpt>
      <trkpt lat="44.04945" lon="7.30033">
        <ele>1040.76</ele>
        <time>2017-07-28T13:14:17Z</time>
      </trkpt>
      <trkpt lat="44.04937" lon="7.30037">
        <ele>1040.76</ele>
        <time>2017-07-28T13:14:25Z</time>
      </trkpt>
      <trkpt lat="44.04918" lon="7.30047">
        <ele>1040.28</ele>
        <time>2017-07-28T13:14:40Z</time>
      </trkpt>
      <trkpt lat="44.04905" lon="7.30052">
        <ele>1039.32</ele>
        <time>2017-07-28T13:14:54Z</time>
      </trkpt>
      <trkpt lat="44.04894" lon="7.30059">
        <ele>1039.32</ele>
        <time>2017-07-28T13:15:07Z</time>
      </trkpt>
      <trkpt lat="44.04877" lon="7.30061">
        <ele>1036.44</ele>
        <time>2017-07-28T13:15:21Z</time>
      </trkpt>
      <trkpt lat="44.0486" lon="7.30064">
        <ele>1035.48</ele>
        <time>2017-07-28T13:15:38Z</time>
      </trkpt>
      <trkpt lat="44.04849" lon="7.30067">
        <ele>1034.04</ele>
        <time>2017-07-28T13:15:50Z</time>
      </trkpt>
      <trkpt lat="44.04829" lon="7.30072">
        <ele>1033.55</ele>
        <time>2017-07-28T13:16:06Z</time>
      </trkpt>
      <trkpt lat="44.04809" lon="7.30077">
        <ele>1032.59</ele>
        <time>2017-07-28T13:16:23Z</time>
      </trkpt>
      <trkpt lat="44.0479" lon="7.30085">
        <ele>1031.63</ele>
        <time>2017-07-28T13:16:38Z</time>
      </trkpt>
      <trkpt lat="44.04776" lon="7.30095">
        <ele>1031.15</ele>
        <time>2017-07-28T13:16:53Z</time>
      </trkpt>
      <trkpt lat="44.04758" lon="7.30109">
        <ele>1030.67</ele>
        <time>2017-07-28T13:17:11Z</time>
      </trkpt>
      <trkpt lat="44.04745" lon="7.30124">
        <ele>1030.19</ele>
        <time>2017-07-28T13:17:27Z</time>
      </trkpt>
      <trkpt lat="44.04728" lon="7.30141">
        <ele>1029.23</ele>
        <time>2017-07-28T13:17:43Z</time>
      </trkpt>
      <trkpt lat="44.04717" lon="7.30168">
        <ele>1028.75</ele>
        <time>2017-07-28T13:17:59Z</time>
      </trkpt>
      <trkpt lat="44.04709" lon="7.30189">
        <ele>1028.75</ele>
        <time>2017-07-28T13:18:14Z</time>
      </trkpt>
      <trkpt lat="44.04705" lon="7.30193">
        <ele>1028.75</ele>
        <time>2017-07-28T13:18:18Z</time>
      </trkpt>
      <trkpt lat="44.04702" lon="7.30197">
        <ele>1029.71</ele>
        <time>2017-07-28T13:18:21Z</time>
      </trkpt>
      <trkpt lat="44.04685" lon="7.30216">
        <ele>1030.19</ele>
        <time>2017-07-28T13:18:39Z</time>
      </trkpt>
      <trkpt lat="44.04679" lon="7.30235">
        <ele>1030.19</ele>
        <time>2017-07-28T13:18:55Z</time>
      </trkpt>
      <trkpt lat="44.04674" lon="7.30257">
        <ele>1028.27</ele>
        <time>2017-07-28T13:19:10Z</time>
      </trkpt>
      <trkpt lat="44.04671" lon="7.30266">
        <ele>1027.79</ele>
        <time>2017-07-28T13:19:16Z</time>
      </trkpt>
      <trkpt lat="44.04669" lon="7.30283">
        <ele>1026.83</ele>
        <time>2017-07-28T13:19:26Z</time>
      </trkpt>
      <trkpt lat="44.04665" lon="7.303">
        <ele>1025.38</ele>
        <time>2017-07-28T13:19:41Z</time>
      </trkpt>
      <trkpt lat="44.04664" lon="7.30293">
        <ele>1024.9</ele>
        <time>2017-07-28T13:20:00Z</time>
      </trkpt>
      <trkpt lat="44.04661" lon="7.30273">
        <ele>1023.94</ele>
        <time>2017-07-28T13:20:17Z</time>
      </trkpt>
      <trkpt lat="44.0466" lon="7.30259">
        <ele>1022.98</ele>
        <time>2017-07-28T13:20:29Z</time>
      </trkpt>
      <trkpt lat="44.04659" lon="7.30269">
        <ele>1022.5</ele>
        <time>2017-07-28T13:20:40Z</time>
      </trkpt>
      <trkpt lat="44.04656" lon="7.30278">
        <ele>1022.5</ele>
        <time>2017-07-28T13:20:49Z</time>
      </trkpt>
      <trkpt lat="44.04653" lon="7.30289">
        <ele>1021.06</ele>
        <time>2017-07-28T13:21:00Z</time>
      </trkpt>
      <trkpt lat="44.04649" lon="7.30288">
        <ele>1021.06</ele>
        <time>2017-07-28T13:21:04Z</time>
      </trkpt>
      <trkpt lat="44.04647" lon="7.30288">
        <ele>1020.58</ele>
        <time>2017-07-28T13:21:15Z</time>
      </trkpt>
      <trkpt lat="44.04647" lon="7.30288">
        <ele>1020.58</ele>
        <time>2017-07-28T13:21:16Z</time>
      </trkpt>
      <trkpt lat="44.0465" lon="7.30287">
        <ele>1020.1</ele>
        <time>2017-07-28T13:21:21Z</time>
      </trkpt>
      <trkpt lat="44.04652" lon="7.30288">
        <ele>1020.1</ele>
        <time>2017-07-28T13:21:25Z</time>
      </trkpt>
      <trkpt lat="44.04654" lon="7.30295">
        <ele>1020.1</ele>
        <time>2017-07-28T13:21:30Z</time>
      </trkpt>
      <trkpt lat="44.04655" lon="7.30301">
        <ele>1020.1</ele>
        <time>2017-07-28T13:21:36Z</time>
      </trkpt>
      <trkpt lat="44.04655" lon="7.30297">
        <ele>1020.1</ele>
        <time>2017-07-28T13:21:41Z</time>
      </trkpt>
      <trkpt lat="44.04656" lon="7.30287">
        <ele>1021.54</ele>
        <time>2017-07-28T13:21:51Z</time>
      </trkpt>
      <trkpt lat="44.04659" lon="7.30272">
        <ele>1022.98</ele>
        <time>2017-07-28T13:22:03Z</time>
      </trkpt>
      <trkpt lat="44.04662" lon="7.30264">
        <ele>1026.34</ele>
        <time>2017-07-28T13:22:09Z</time>
      </trkpt>
      <trkpt lat="44.04663" lon="7.30263">
        <ele>1023.46</ele>
        <time>2017-07-28T13:22:10Z</time>
      </trkpt>
      <trkpt lat="44.04662" lon="7.30253">
        <ele>1022.98</ele>
        <time>2017-07-28T13:22:17Z</time>
      </trkpt>
      <trkpt lat="44.04662" lon="7.30232">
        <ele>1021.54</ele>
        <time>2017-07-28T13:22:32Z</time>
      </trkpt>
      <trkpt lat="44.04659" lon="7.30214">
        <ele>1019.62</ele>
        <time>2017-07-28T13:22:45Z</time>
      </trkpt>
      <trkpt lat="44.04653" lon="7.30226">
        <ele>1018.65</ele>
        <time>2017-07-28T13:22:57Z</time>
      </trkpt>
      <trkpt lat="44.04646" lon="7.30248">
        <ele>1017.21</ele>
        <time>2017-07-28T13:23:12Z</time>
      </trkpt>
      <trkpt lat="44.04637" lon="7.30272">
        <ele>1014.81</ele>
        <time>2017-07-28T13:23:30Z</time>
      </trkpt>
      <trkpt lat="44.04634" lon="7.30294">
        <ele>1013.37</ele>
        <time>2017-07-28T13:23:44Z</time>
      </trkpt>
      <trkpt lat="44.04635" lon="7.30304">
        <ele>1012.41</ele>
        <time>2017-07-28T13:23:50Z</time>
      </trkpt>
      <trkpt lat="44.04639" lon="7.30325">
        <ele>1010.96</ele>
        <time>2017-07-28T13:24:04Z</time>
      </trkpt>
      <trkpt lat="44.0464" lon="7.30332">
        <ele>1010</ele>
        <time>2017-07-28T13:24:09Z</time>
      </trkpt>
      <trkpt lat="44.0464" lon="7.30353">
        <ele>1008.08</ele>
        <time>2017-07-28T13:24:25Z</time>
      </trkpt>
      <trkpt lat="44.04637" lon="7.30354">
        <ele>1008.08</ele>
        <time>2017-07-28T13:24:28Z</time>
      </trkpt>
      <trkpt lat="44.04627" lon="7.30336">
        <ele>1006.16</ele>
        <time>2017-07-28T13:24:43Z</time>
      </trkpt>
      <trkpt lat="44.0462" lon="7.30318">
        <ele>1003.27</ele>
        <time>2017-07-28T13:24:57Z</time>
      </trkpt>
      <trkpt lat="44.04615" lon="7.30301">
        <ele>1000.87</ele>
        <time>2017-07-28T13:25:11Z</time>
      </trkpt>
      <trkpt lat="44.04609" lon="7.30284">
        <ele>999.91</ele>
        <time>2017-07-28T13:25:23Z</time>
      </trkpt>
      <trkpt lat="44.04603" lon="7.30282">
        <ele>998.47</ele>
        <time>2017-07-28T13:25:28Z</time>
      </trkpt>
      <trkpt lat="44.046" lon="7.30288">
        <ele>997.99</ele>
        <time>2017-07-28T13:25:33Z</time>
      </trkpt>
      <trkpt lat="44.04601" lon="7.30296">
        <ele>997.99</ele>
        <time>2017-07-28T13:25:38Z</time>
      </trkpt>
      <trkpt lat="44.04608" lon="7.30319">
        <ele>995.58</ele>
        <time>2017-07-28T13:25:55Z</time>
      </trkpt>
      <trkpt lat="44.0461" lon="7.30344">
        <ele>994.14</ele>
        <time>2017-07-28T13:26:10Z</time>
      </trkpt>
      <trkpt lat="44.04613" lon="7.30355">
        <ele>993.18</ele>
        <time>2017-07-28T13:26:17Z</time>
      </trkpt>
      <trkpt lat="44.04616" lon="7.30371">
        <ele>991.74</ele>
        <time>2017-07-28T13:26:28Z</time>
      </trkpt>
      <trkpt lat="44.04617" lon="7.30393">
        <ele>989.81</ele>
        <time>2017-07-28T13:26:43Z</time>
      </trkpt>
      <trkpt lat="44.04617" lon="7.30425">
        <ele>987.89</ele>
        <time>2017-07-28T13:27:02Z</time>
      </trkpt>
      <trkpt lat="44.04619" lon="7.30447">
        <ele>985.01</ele>
        <time>2017-07-28T13:27:18Z</time>
      </trkpt>
      <trkpt lat="44.0462" lon="7.30461">
        <ele>984.05</ele>
        <time>2017-07-28T13:27:29Z</time>
      </trkpt>
      <trkpt lat="44.04621" lon="7.30467">
        <ele>983.57</ele>
        <time>2017-07-28T13:27:33Z</time>
      </trkpt>
      <trkpt lat="44.04622" lon="7.30472">
        <ele>983.57</ele>
        <time>2017-07-28T13:27:36Z</time>
      </trkpt>
      <trkpt lat="44.04624" lon="7.30497">
        <ele>980.68</ele>
        <time>2017-07-28T13:27:51Z</time>
      </trkpt>
      <trkpt lat="44.04624" lon="7.30513">
        <ele>979.24</ele>
        <time>2017-07-28T13:28:04Z</time>
      </trkpt>
      <trkpt lat="44.04623" lon="7.30516">
        <ele>978.76</ele>
        <time>2017-07-28T13:28:22Z</time>
      </trkpt>
      <trkpt lat="44.04624" lon="7.30537">
        <ele>977.32</ele>
        <time>2017-07-28T13:28:38Z</time>
      </trkpt>
      <trkpt lat="44.04623" lon="7.30543">
        <ele>973.95</ele>
        <time>2017-07-28T13:28:43Z</time>
      </trkpt>
      <trkpt lat="44.04623" lon="7.30544">
        <ele>979.72</ele>
        <time>2017-07-28T13:28:44Z</time>
      </trkpt>
      <trkpt lat="44.04623" lon="7.30548">
        <ele>976.84</ele>
        <time>2017-07-28T13:28:47Z</time>
      </trkpt>
      <trkpt lat="44.04624" lon="7.30575">
        <ele>974.91</ele>
        <time>2017-07-28T13:29:04Z</time>
      </trkpt>
      <trkpt lat="44.04626" lon="7.30597">
        <ele>972.51</ele>
        <time>2017-07-28T13:29:17Z</time>
      </trkpt>
      <trkpt lat="44.04628" lon="7.30606">
        <ele>971.55</ele>
        <time>2017-07-28T13:29:23Z</time>
      </trkpt>
      <trkpt lat="44.04638" lon="7.30627">
        <ele>968.67</ele>
        <time>2017-07-28T13:29:40Z</time>
      </trkpt>
      <trkpt lat="44.0465" lon="7.30633">
        <ele>966.74</ele>
        <time>2017-07-28T13:29:55Z</time>
      </trkpt>
      <trkpt lat="44.04663" lon="7.30635">
        <ele>965.3</ele>
        <time>2017-07-28T13:30:09Z</time>
      </trkpt>
      <trkpt lat="44.0468" lon="7.30644">
        <ele>963.86</ele>
        <time>2017-07-28T13:30:22Z</time>
      </trkpt>
      <trkpt lat="44.04686" lon="7.30657">
        <ele>962.9</ele>
        <time>2017-07-28T13:30:31Z</time>
      </trkpt>
      <trkpt lat="44.04681" lon="7.30675">
        <ele>960.01</ele>
        <time>2017-07-28T13:30:44Z</time>
      </trkpt>
      <trkpt lat="44.04673" lon="7.307">
        <ele>958.09</ele>
        <time>2017-07-28T13:31:01Z</time>
      </trkpt>
      <trkpt lat="44.04676" lon="7.30731">
        <ele>956.65</ele>
        <time>2017-07-28T13:31:19Z</time>
      </trkpt>
      <trkpt lat="44.04682" lon="7.30753">
        <ele>953.77</ele>
        <time>2017-07-28T13:31:34Z</time>
      </trkpt>
      <trkpt lat="44.04696" lon="7.30777">
        <ele>951.36</ele>
        <time>2017-07-28T13:31:54Z</time>
      </trkpt>
      <trkpt lat="44.04706" lon="7.30793">
        <ele>950.88</ele>
        <time>2017-07-28T13:32:07Z</time>
      </trkpt>
      <trkpt lat="44.04713" lon="7.30806">
        <ele>950.88</ele>
        <time>2017-07-28T13:32:17Z</time>
      </trkpt>
      <trkpt lat="44.04726" lon="7.30827">
        <ele>950.88</ele>
        <time>2017-07-28T13:32:33Z</time>
      </trkpt>
      <trkpt lat="44.04736" lon="7.30846">
        <ele>949.92</ele>
        <time>2017-07-28T13:32:48Z</time>
      </trkpt>
      <trkpt lat="44.04748" lon="7.30862">
        <ele>947.52</ele>
        <time>2017-07-28T13:33:04Z</time>
      </trkpt>
      <trkpt lat="44.04757" lon="7.30882">
        <ele>944.15</ele>
        <time>2017-07-28T13:33:18Z</time>
      </trkpt>
      <trkpt lat="44.04765" lon="7.30901">
        <ele>940.79</ele>
        <time>2017-07-28T13:33:34Z</time>
      </trkpt>
      <trkpt lat="44.04775" lon="7.30911">
        <ele>938.86</ele>
        <time>2017-07-28T13:33:46Z</time>
      </trkpt>
      <trkpt lat="44.04781" lon="7.30923">
        <ele>936.94</ele>
        <time>2017-07-28T13:33:56Z</time>
      </trkpt>
      <trkpt lat="44.04778" lon="7.30919">
        <ele>936.46</ele>
        <time>2017-07-28T13:34:10Z</time>
      </trkpt>
      <trkpt lat="44.04768" lon="7.30913">
        <ele>935.5</ele>
        <time>2017-07-28T13:34:23Z</time>
      </trkpt>
      <trkpt lat="44.04754" lon="7.30897">
        <ele>935.02</ele>
        <time>2017-07-28T13:34:40Z</time>
      </trkpt>
      <trkpt lat="44.04745" lon="7.30886">
        <ele>935.02</ele>
        <time>2017-07-28T13:34:49Z</time>
      </trkpt>
      <trkpt lat="44.04732" lon="7.30872">
        <ele>934.54</ele>
        <time>2017-07-28T13:35:04Z</time>
      </trkpt>
      <trkpt lat="44.04728" lon="7.30867">
        <ele>934.06</ele>
        <time>2017-07-28T13:35:10Z</time>
      </trkpt>
      <trkpt lat="44.04727" lon="7.30863">
        <ele>933.58</ele>
        <time>2017-07-28T13:35:13Z</time>
      </trkpt>
      <trkpt lat="44.04721" lon="7.30859">
        <ele>933.1</ele>
        <time>2017-07-28T13:35:29Z</time>
      </trkpt>
      <trkpt lat="44.04726" lon="7.30867">
        <ele>934.54</ele>
        <time>2017-07-28T13:35:38Z</time>
      </trkpt>
      <trkpt lat="44.0474" lon="7.30882">
        <ele>934.54</ele>
        <time>2017-07-28T13:35:55Z</time>
      </trkpt>
      <trkpt lat="44.04752" lon="7.30897">
        <ele>935.02</ele>
        <time>2017-07-28T13:36:10Z</time>
      </trkpt>
      <trkpt lat="44.04756" lon="7.30901">
        <ele>935.02</ele>
        <time>2017-07-28T13:36:15Z</time>
      </trkpt>
      <trkpt lat="44.04767" lon="7.30917">
        <ele>935.02</ele>
        <time>2017-07-28T13:36:29Z</time>
      </trkpt>
      <trkpt lat="44.04779" lon="7.30934">
        <ele>935.5</ele>
        <time>2017-07-28T13:36:44Z</time>
      </trkpt>
      <trkpt lat="44.04782" lon="7.30937">
        <ele>932.14</ele>
        <time>2017-07-28T13:36:54Z</time>
      </trkpt>
      <trkpt lat="44.04782" lon="7.30937">
        <ele>938.86</ele>
        <time>2017-07-28T13:36:55Z</time>
      </trkpt>
      <trkpt lat="44.04782" lon="7.30937">
        <ele>935.98</ele>
        <time>2017-07-28T13:36:56Z</time>
      </trkpt>
      <trkpt lat="44.04788" lon="7.30953">
        <ele>935.5</ele>
        <time>2017-07-28T13:37:10Z</time>
      </trkpt>
      <trkpt lat="44.04795" lon="7.30973">
        <ele>935.5</ele>
        <time>2017-07-28T13:37:26Z</time>
      </trkpt>
      <trkpt lat="44.04806" lon="7.30994">
        <ele>936.94</ele>
        <time>2017-07-28T13:37:43Z</time>
      </trkpt>
      <trkpt lat="44.04816" lon="7.31009">
        <ele>938.38</ele>
        <time>2017-07-28T13:37:59Z</time>
      </trkpt>
      <trkpt lat="44.04824" lon="7.31023">
        <ele>937.9</ele>
        <time>2017-07-28T13:38:13Z</time>
      </trkpt>
      <trkpt lat="44.04835" lon="7.3104">
        <ele>938.38</ele>
        <time>2017-07-28T13:38:30Z</time>
      </trkpt>
      <trkpt lat="44.0484" lon="7.31052">
        <ele>938.86</ele>
        <time>2017-07-28T13:38:42Z</time>
      </trkpt>
      <trkpt lat="44.04842" lon="7.31052">
        <ele>939.35</ele>
        <time>2017-07-28T13:38:59Z</time>
      </trkpt>
      <trkpt lat="44.04837" lon="7.31044">
        <ele>938.86</ele>
        <time>2017-07-28T13:39:12Z</time>
      </trkpt>
      <trkpt lat="44.04833" lon="7.31035">
        <ele>938.86</ele>
        <time>2017-07-28T13:39:21Z</time>
      </trkpt>
      <trkpt lat="44.04831" lon="7.3103">
        <ele>938.86</ele>
        <time>2017-07-28T13:39:26Z</time>
      </trkpt>
      <trkpt lat="44.04826" lon="7.3102">
        <ele>935.98</ele>
        <time>2017-07-28T13:39:35Z</time>
      </trkpt>
      <trkpt lat="44.04814" lon="7.31001">
        <ele>937.42</ele>
        <time>2017-07-28T13:39:50Z</time>
      </trkpt>
      <trkpt lat="44.04813" lon="7.30998">
        <ele>935.98</ele>
        <time>2017-07-28T13:39:52Z</time>
      </trkpt>
      <trkpt lat="44.04814" lon="7.30988">
        <ele>935.5</ele>
        <time>2017-07-28T13:40:04Z</time>
      </trkpt>
      <trkpt lat="44.04814" lon="7.30987">
        <ele>935.5</ele>
        <time>2017-07-28T13:40:06Z</time>
      </trkpt>
      <trkpt lat="44.04806" lon="7.30975">
        <ele>935.02</ele>
        <time>2017-07-28T13:40:16Z</time>
      </trkpt>
      <trkpt lat="44.04796" lon="7.3096">
        <ele>934.54</ele>
        <time>2017-07-28T13:40:35Z</time>
      </trkpt>
      <trkpt lat="44.04793" lon="7.30952">
        <ele>934.06</ele>
        <time>2017-07-28T13:40:55Z</time>
      </trkpt>
      <trkpt lat="44.04789" lon="7.30946">
        <ele>934.06</ele>
        <time>2017-07-28T13:41:12Z</time>
      </trkpt>
      <trkpt lat="44.04782" lon="7.30935">
        <ele>934.06</ele>
        <time>2017-07-28T13:41:27Z</time>
      </trkpt>
      <trkpt lat="44.04787" lon="7.30931">
        <ele>934.06</ele>
        <time>2017-07-28T13:41:40Z</time>
      </trkpt>
      <trkpt lat="44.04786" lon="7.30938">
        <ele>935.02</ele>
        <time>2017-07-28T13:41:54Z</time>
      </trkpt>
      <trkpt lat="44.04787" lon="7.30933">
        <ele>935.5</ele>
        <time>2017-07-28T13:42:06Z</time>
      </trkpt>
      <trkpt lat="44.04784" lon="7.30932">
        <ele>935.5</ele>
        <time>2017-07-28T13:42:20Z</time>
      </trkpt>
      <trkpt lat="44.04777" lon="7.30934">
        <ele>934.06</ele>
        <time>2017-07-28T13:42:36Z</time>
      </trkpt>
      <trkpt lat="44.04779" lon="7.30939">
        <ele>934.06</ele>
        <time>2017-07-28T13:42:51Z</time>
      </trkpt>
      <trkpt lat="44.04779" lon="7.30938">
        <ele>937.9</ele>
        <time>2017-07-28T13:43:00Z</time>
      </trkpt>
      <trkpt lat="44.04779" lon="7.30938">
        <ele>934.54</ele>
        <time>2017-07-28T13:43:01Z</time>
      </trkpt>
      <trkpt lat="44.04779" lon="7.30939">
        <ele>934.06</ele>
        <time>2017-07-28T13:43:26Z</time>
      </trkpt>
      <trkpt lat="44.04779" lon="7.30936">
        <ele>934.06</ele>
        <time>2017-07-28T13:43:42Z</time>
      </trkpt>
      <trkpt lat="44.04777" lon="7.30926">
        <ele>931.17</ele>
        <time>2017-07-28T13:43:55Z</time>
      </trkpt>
      <trkpt lat="44.04777" lon="7.30925">
        <ele>935.98</ele>
        <time>2017-07-28T13:43:56Z</time>
      </trkpt>
      <trkpt lat="44.04764" lon="7.30909">
        <ele>933.58</ele>
        <time>2017-07-28T13:44:12Z</time>
      </trkpt>
      <trkpt lat="44.04763" lon="7.30907">
        <ele>933.58</ele>
        <time>2017-07-28T13:44:14Z</time>
      </trkpt>
      <trkpt lat="44.0475" lon="7.30887">
        <ele>932.14</ele>
        <time>2017-07-28T13:44:33Z</time>
      </trkpt>
      <trkpt lat="44.04738" lon="7.30868">
        <ele>931.17</ele>
        <time>2017-07-28T13:44:50Z</time>
      </trkpt>
      <trkpt lat="44.04727" lon="7.30851">
        <ele>930.69</ele>
        <time>2017-07-28T13:45:05Z</time>
      </trkpt>
      <trkpt lat="44.04716" lon="7.30832">
        <ele>930.69</ele>
        <time>2017-07-28T13:45:19Z</time>
      </trkpt>
      <trkpt lat="44.04708" lon="7.30814">
        <ele>929.73</ele>
        <time>2017-07-28T13:45:32Z</time>
      </trkpt>
      <trkpt lat="44.04693" lon="7.30792">
        <ele>928.77</ele>
        <time>2017-07-28T13:45:51Z</time>
      </trkpt>
      <trkpt lat="44.0469" lon="7.30787">
        <ele>927.33</ele>
        <time>2017-07-28T13:45:56Z</time>
      </trkpt>
      <trkpt lat="44.04676" lon="7.30769">
        <ele>927.33</ele>
        <time>2017-07-28T13:46:13Z</time>
      </trkpt>
      <trkpt lat="44.04664" lon="7.30749">
        <ele>926.85</ele>
        <time>2017-07-28T13:46:27Z</time>
      </trkpt>
      <trkpt lat="44.04663" lon="7.30741">
        <ele>926.85</ele>
        <time>2017-07-28T13:46:33Z</time>
      </trkpt>
      <trkpt lat="44.04663" lon="7.30722">
        <ele>926.37</ele>
        <time>2017-07-28T13:46:45Z</time>
      </trkpt>
      <trkpt lat="44.0466" lon="7.30712">
        <ele>925.89</ele>
        <time>2017-07-28T13:46:52Z</time>
      </trkpt>
      <trkpt lat="44.04643" lon="7.3069">
        <ele>925.41</ele>
        <time>2017-07-28T13:47:09Z</time>
      </trkpt>
      <trkpt lat="44.04627" lon="7.30683">
        <ele>924.93</ele>
        <time>2017-07-28T13:47:21Z</time>
      </trkpt>
      <trkpt lat="44.04624" lon="7.3068">
        <ele>924.93</ele>
        <time>2017-07-28T13:47:25Z</time>
      </trkpt>
      <trkpt lat="44.04615" lon="7.3067">
        <ele>923.96</ele>
        <time>2017-07-28T13:47:33Z</time>
      </trkpt>
      <trkpt lat="44.04601" lon="7.30642">
        <ele>923.48</ele>
        <time>2017-07-28T13:47:51Z</time>
      </trkpt>
      <trkpt lat="44.04591" lon="7.30618">
        <ele>923</ele>
        <time>2017-07-28T13:48:07Z</time>
      </trkpt>
      <trkpt lat="44.04588" lon="7.30603">
        <ele>923</ele>
        <time>2017-07-28T13:48:16Z</time>
      </trkpt>
      <trkpt lat="44.04588" lon="7.30577">
        <ele>922.52</ele>
        <time>2017-07-28T13:48:32Z</time>
      </trkpt>
      <trkpt lat="44.04587" lon="7.30553">
        <ele>922.52</ele>
        <time>2017-07-28T13:48:46Z</time>
      </trkpt>
      <trkpt lat="44.04581" lon="7.30528">
        <ele>923.48</ele>
        <time>2017-07-28T13:49:01Z</time>
      </trkpt>
      <trkpt lat="44.04561" lon="7.30508">
        <ele>923.48</ele>
        <time>2017-07-28T13:49:17Z</time>
      </trkpt>
      <trkpt lat="44.04543" lon="7.30497">
        <ele>923.48</ele>
        <time>2017-07-28T13:49:33Z</time>
      </trkpt>
      <trkpt lat="44.04527" lon="7.30487">
        <ele>923.48</ele>
        <time>2017-07-28T13:49:47Z</time>
      </trkpt>
      <trkpt lat="44.04517" lon="7.30463">
        <ele>923.48</ele>
        <time>2017-07-28T13:50:06Z</time>
      </trkpt>
      <trkpt lat="44.04511" lon="7.30443">
        <ele>923.48</ele>
        <time>2017-07-28T13:50:19Z</time>
      </trkpt>
      <trkpt lat="44.04509" lon="7.30436">
        <ele>923.48</ele>
        <time>2017-07-28T13:50:23Z</time>
      </trkpt>
      <trkpt lat="44.04499" lon="7.30414">
        <ele>923</ele>
        <time>2017-07-28T13:50:38Z</time>
      </trkpt>
      <trkpt lat="44.04493" lon="7.30404">
        <ele>921.56</ele>
        <time>2017-07-28T13:50:45Z</time>
      </trkpt>
      <trkpt lat="44.04484" lon="7.30388">
        <ele>921.56</ele>
        <time>2017-07-28T13:50:57Z</time>
      </trkpt>
      <trkpt lat="44.04478" lon="7.30373">
        <ele>919.64</ele>
        <time>2017-07-28T13:51:07Z</time>
      </trkpt>
      <trkpt lat="44.04476" lon="7.3037">
        <ele>922.52</ele>
        <time>2017-07-28T13:51:09Z</time>
      </trkpt>
      <trkpt lat="44.04464" lon="7.30342">
        <ele>921.08</ele>
        <time>2017-07-28T13:51:27Z</time>
      </trkpt>
      <trkpt lat="44.04455" lon="7.30325">
        <ele>921.08</ele>
        <time>2017-07-28T13:51:41Z</time>
      </trkpt>
      <trkpt lat="44.04448" lon="7.30299">
        <ele>921.08</ele>
        <time>2017-07-28T13:51:58Z</time>
      </trkpt>
      <trkpt lat="44.04438" lon="7.30283">
        <ele>921.08</ele>
        <time>2017-07-28T13:52:10Z</time>
      </trkpt>
      <trkpt lat="44.04439" lon="7.30279">
        <ele>921.08</ele>
        <time>2017-07-28T13:52:13Z</time>
      </trkpt>
      <trkpt lat="44.0444" lon="7.30266">
        <ele>920.6</ele>
        <time>2017-07-28T13:52:22Z</time>
      </trkpt>
      <trkpt lat="44.04429" lon="7.30236">
        <ele>920.6</ele>
        <time>2017-07-28T13:52:41Z</time>
      </trkpt>
      <trkpt lat="44.04424" lon="7.3021">
        <ele>920.6</ele>
        <time>2017-07-28T13:52:59Z</time>
      </trkpt>
      <trkpt lat="44.04418" lon="7.30187">
        <ele>922.04</ele>
        <time>2017-07-28T13:53:13Z</time>
      </trkpt>
      <trkpt lat="44.04406" lon="7.30161">
        <ele>922.04</ele>
        <time>2017-07-28T13:53:30Z</time>
      </trkpt>
      <trkpt lat="44.04391" lon="7.30141">
        <ele>922.04</ele>
        <time>2017-07-28T13:53:47Z</time>
      </trkpt>
      <trkpt lat="44.04389" lon="7.30138">
        <ele>920.6</ele>
        <time>2017-07-28T13:53:50Z</time>
      </trkpt>
      <trkpt lat="44.04385" lon="7.3013">
        <ele>920.12</ele>
        <time>2017-07-28T13:53:56Z</time>
      </trkpt>
      <trkpt lat="44.04374" lon="7.3011">
        <ele>919.16</ele>
        <time>2017-07-28T13:54:12Z</time>
      </trkpt>
      <trkpt lat="44.04374" lon="7.30105">
        <ele>919.16</ele>
        <time>2017-07-28T13:54:15Z</time>
      </trkpt>
      <trkpt lat="44.04369" lon="7.30071">
        <ele>916.75</ele>
        <time>2017-07-28T13:54:38Z</time>
      </trkpt>
      <trkpt lat="44.04362" lon="7.30042">
        <ele>915.31</ele>
        <time>2017-07-28T13:54:57Z</time>
      </trkpt>
      <trkpt lat="44.04352" lon="7.30012">
        <ele>913.39</ele>
        <time>2017-07-28T13:55:18Z</time>
      </trkpt>
      <trkpt lat="44.04351" lon="7.29997">
        <ele>913.39</ele>
        <time>2017-07-28T13:55:28Z</time>
      </trkpt>
      <trkpt lat="44.04361" lon="7.29972">
        <ele>910.99</ele>
        <time>2017-07-28T13:55:47Z</time>
      </trkpt>
      <trkpt lat="44.04368" lon="7.29954">
        <ele>910.03</ele>
        <time>2017-07-28T13:56:01Z</time>
      </trkpt>
      <trkpt lat="44.04373" lon="7.29932">
        <ele>908.58</ele>
        <time>2017-07-28T13:56:19Z</time>
      </trkpt>
      <trkpt lat="44.04379" lon="7.29934">
        <ele>908.58</ele>
        <time>2017-07-28T13:56:35Z</time>
      </trkpt>
      <trkpt lat="44.04376" lon="7.2993">
        <ele>909.06</ele>
        <time>2017-07-28T13:56:46Z</time>
      </trkpt>
      <trkpt lat="44.04371" lon="7.2993">
        <ele>908.1</ele>
        <time>2017-07-28T13:57:01Z</time>
      </trkpt>
      <trkpt lat="44.04366" lon="7.29931">
        <ele>906.18</ele>
        <time>2017-07-28T13:57:12Z</time>
      </trkpt>
      <trkpt lat="44.04355" lon="7.29936">
        <ele>903.78</ele>
        <time>2017-07-28T13:57:26Z</time>
      </trkpt>
      <trkpt lat="44.04336" lon="7.2993">
        <ele>900.41</ele>
        <time>2017-07-28T13:57:46Z</time>
      </trkpt>
      <trkpt lat="44.04325" lon="7.29923">
        <ele>898.97</ele>
        <time>2017-07-28T13:58:00Z</time>
      </trkpt>
      <trkpt lat="44.04311" lon="7.29915">
        <ele>896.57</ele>
        <time>2017-07-28T13:58:16Z</time>
      </trkpt>
      <trkpt lat="44.04296" lon="7.29914">
        <ele>894.64</ele>
        <time>2017-07-28T13:58:31Z</time>
      </trkpt>
      <trkpt lat="44.04285" lon="7.29914">
        <ele>893.68</ele>
        <time>2017-07-28T13:58:47Z</time>
      </trkpt>
      <trkpt lat="44.04275" lon="7.29905">
        <ele>891.76</ele>
        <time>2017-07-28T13:59:03Z</time>
      </trkpt>
      <trkpt lat="44.04264" lon="7.29906">
        <ele>889.36</ele>
        <time>2017-07-28T13:59:19Z</time>
      </trkpt>
      <trkpt lat="44.04262" lon="7.2991">
        <ele>889.84</ele>
        <time>2017-07-28T13:59:37Z</time>
      </trkpt>
      <trkpt lat="44.04263" lon="7.29909">
        <ele>889.84</ele>
        <time>2017-07-28T13:59:57Z</time>
      </trkpt>
    </trkseg>
  </trk>
</gpx>